[[{"header":{"parameterUnit":"m.s-1","parameterCategory":1,"la1":30.6,"la2":29.2853,"lo1":-89.7004,"lo2":-87.6739,"dy":0.0162,"dx":0.0183,"nx":112,"ny":82,"refTime":"2024-08-21T06:00:00:Z","depth":0,"parameterNumber":2,"parameterNumberName":"U-component_of_WINDS"},"data":[0.0,0.0,0.0,0.0,0.0,0.0,0.0,0.0,0.0,0.0,0.0,0.0,0.0,0.0,0.0,0.0,0.0,0.0,0.0,0.0,0.0,0.0,0.0,0.0,0.0,0.0,0.0,0.0,0.0,0.0,0.0,0.0,0.0,0.0,0.0,0.0,0.0,0.0,0.0,0.0,0.0,0.0,0.0,0.0,0.0,0.0,0.0,0.0,0.0,0.0,0.0,0.0,0.0,0.0,0.0,0.0,0.0,0.0,0.0,0.0,0.0,0.0,0.0,0.0,0.0,0.0,0.0,0.0,0.0,0.0,0.0,0.0,0.0,0.0,0.0,0.0,0.0,0.0,0.0,0.0,0.0,0.0,0.0,0.0,0.0,0.0,0.0,0.0,0.0,0.0,-0.2301,-0.2737,-0.2156,-0.139,-0.0521,0.0123,0.0635,0.0983,0.0,0.0,0.0,0.0,0.0,0.0,0.0,0.0,0.0,0.0,0.0,0.0,0.0,0.0,0.0,0.0,0.0,0.0,0.0,0.0,0.0,0.0,0.0,0.0,0.0,0.0,0.0,0.0,0.0,0.0,0.0,0.0,0.0,0.0,0.0,0.0,0.0,0.0,0.0,0.0,0.0,0.0,0.0,0.0,0.0,0.0,0.0,0.0,0.0,0.0,0.0,0.0,0.0,0.0,0.0,0.0,0.0,0.0,0.0,0.0,0.0,0.0,0.0,0.0,0.0,0.0,0.0,0.0,0.0,0.0,0.0,0.0,0.0,0.0,0.0,0.0,0.0,0.0,0.0,0.0,0.0,0.0,0.0,0.0,0.0,0.0,0.0,0.0,0.0,0.0,0.0,0.0,0.0,0.0,0.0,0.0,0.0,0.0,0.0,0.0,0.0,0.0,0.0,0.0,-0.2486,-0.307,-0.243,-0.1607,-0.0825,0.0041,0.0677,0.1043,0.0,0.0,0.0,0.0,0.0,0.0,0.0,0.0,0.0,0.0,0.0,0.0,0.0,0.0,0.0,0.0,0.0,0.0,0.0,0.0,0.0,0.0,0.0,0.0,0.0,0.0,0.0,0.0,0.0,0.0,0.0,0.0,0.0,0.0,0.0,0.0,0.0,0.0,0.0,0.0,0.0,0.0,0.0,0.0,0.0,0.0,0.0,0.0,0.0,0.0,0.0,0.0,0.0,0.0,0.0,0.0,0.0,0.0,0.0,0.0,0.0,0.0,0.0,0.0,0.0,0.0,0.0,0.0,0.0,0.0,0.0,0.0,0.0,0.0,0.0,0.0,0.0,0.0,0.0,0.0,0.0,0.0,0.0,0.0,0.0,0.0,0.0,0.0,0.0,0.0,0.0,0.0,0.0,0.0,0.0,0.0,0.0,0.0,0.0,0.0,0.0,0.0,0.0,-0.2463,-0.2896,-0.3063,-0.2498,-0.1714,-0.0652,0.0082,0.0674,0.1028,0.0898,0.0,0.0,0.0,0.0,0.0,0.0,0.0,0.0,0.0,0.0,0.0,0.0,0.0,0.0,0.0,0.0,0.0,0.0,0.0,0.0,0.0,0.0,0.0,0.0,0.0,0.0,0.0,0.0,0.0,0.0,0.0,0.0,0.0,0.0,0.0,0.0,0.0,0.0,0.0,0.0,0.0,0.0,0.0,0.0,0.0,0.0,0.0,0.0,0.0,0.0,0.0,0.0,0.0,0.0,0.0,0.0,0.0,0.0,0.0,0.0,0.0,0.0,0.0,0.0,0.0,0.0,0.0,0.0,0.0,0.0,0.0,0.0,0.0,0.0,0.0,0.0,0.0,0.0,0.0,0.0,0.0,0.0,0.0,0.0,0.0,0.0,0.0,0.0,0.0,0.0,0.0,0.0,0.0,0.0,0.0,0.0,0.0,0.0,0.0,0.0,0.0,0.0,-0.2778,-0.3127,-0.3002,-0.2447,-0.164,-0.0518,0.0162,0.0628,0.0968,0.0881,0.0,0.0,0.0,0.0,0.0,0.0,0.0,0.0,0.0,0.0,0.0,0.0,0.0,0.0,0.0,0.0,0.0,0.0,0.0,0.0,0.0,0.0,0.0,0.0,0.0,0.0,0.0,0.0,0.0,0.0,0.0,0.0,0.0,0.0,0.0,0.0,0.0,0.0,0.0,0.0,0.0,0.0,0.0,0.0,0.0,0.0,0.0,0.0,0.0,0.0,0.0,0.0,0.0,0.0,0.0,0.0,0.0,0.0,0.0,0.0,0.0,0.0,0.0,0.0,0.0,0.0,0.0,0.0,0.0,0.0,0.0,0.0,0.0,0.0,0.0,0.0,0.0,0.0,0.0,0.0,0.0,0.0,0.0,0.0,0.0,0.0,0.0,0.0,0.0,0.0,0.0,0.0,0.0,0.0,0.0,0.0,0.0,0.0,0.0,0.0,0.0,0.0,-0.2545,-0.2874,-0.3007,-0.2318,-0.1455,-0.0465,0.0158,0.0647,0.0969,0.0877,0.0,0.0,0.0,0.0,0.0,0.0,0.0,0.0,0.0,0.0,0.0,0.0,0.0,0.0,0.0,0.0,0.0,0.0,0.0,0.0,0.0,0.0,0.0,0.0,0.0,0.0,0.0,0.0,0.0,0.0,0.0,0.0,0.0,0.0,0.0,0.0,0.0,0.0,0.0,0.0,0.0,0.0,0.0,0.0,0.0,0.0,0.0,0.0,0.0,0.0,0.0,0.0,0.0,0.0,0.0,0.0,0.0,0.0,0.0,0.0,0.0,0.0,0.0,0.0,0.0,0.0,0.0,0.0,0.0,0.0,0.0,0.0,0.0,0.0,0.0,0.0,0.0,0.0,0.0,0.0,0.0,0.0,0.0,0.0,0.0,0.0,0.0,0.0,0.0,0.0,0.0,0.0,0.0,0.0,0.0,0.0,0.0,0.0,0.0,0.0,0.0,0.0,-0.2584,-0.284,0.0,-0.2246,-0.1383,-0.0289,0.0232,0.0625,0.0913,0.0,0.0,0.0,0.0,0.0,0.0,0.0,0.0,0.0,0.0,0.0,0.0,0.0,0.0,0.0,0.0,0.0,0.0,0.0,0.0,0.0,0.0,0.0,0.0,0.0,0.0,0.0,0.0,0.0,0.0,0.0,0.0,0.0,0.0,0.0,0.0,0.0,0.0,0.0,0.0,0.0,0.0,0.0,0.0,0.0,0.0,0.0,0.0,0.0,0.0,0.0,0.0,0.0,0.0,0.0,0.0,0.0,0.0,0.0,0.0,0.0,0.0,0.0,0.0,0.0,0.0,0.0,0.0,0.0,0.0,0.0,0.0,0.0,0.0,0.0,0.0,0.0,0.0,0.0,0.0,0.0,0.0,0.0,0.0,0.0,0.0,0.0,0.0,0.0,0.0,0.0,0.0,0.0,0.0,0.0,0.0,0.0,0.0,0.0,0.0,0.0,0.0,-0.2325,-0.2652,-0.2879,0.0,-0.2271,-0.1327,-0.0412,0.0229,0.0686,0.0907,0.0,0.0,0.0,0.0,0.0,0.0,0.0,0.0,0.0,0.0,0.0,0.0,0.0,0.0,0.0,0.0,0.0,0.0,0.0,0.0,0.0,0.0,0.0,0.0,0.0,0.0,0.0,0.0,0.0,0.0,0.0,0.0,0.0,0.0,0.0,0.0,0.0,0.0,0.0,0.0,0.0,0.0,0.0,0.0,0.0,0.0,0.0,0.0,0.0,0.0,0.0,0.0,0.0,0.0,0.0,0.0,0.0,0.0,0.0,0.0,0.0,0.0,0.0,0.0,0.0,0.0,0.0,0.0,0.0,0.0,0.0,0.0,0.0,0.0,0.0,0.0,0.0,0.0,0.0,0.0,0.0,0.0,0.0,0.0,0.0,0.0,0.0,0.0,0.0,0.0,0.0,0.0,0.0,0.0,0.0,0.0,0.0,0.0,0.0,0.0,0.0,0.0,-0.2472,-0.2722,-0.2997,-0.3546,-0.2356,-0.1334,-0.0841,0.0193,0.0871,0.0,0.0,0.0,0.0,0.0,0.0,0.0,0.0,0.0,0.0,0.0,0.0,0.0,0.0,0.0,0.0,0.0,0.0,0.0,0.0,0.0,0.0,0.0,0.0,0.0,0.0,0.0,0.0,0.0,0.0,0.0,0.0,0.0,0.0,0.0,0.0,0.0,0.0,0.0,0.0,0.0,0.0,0.0,0.0,0.0,0.0,0.0,0.0,0.0,0.0,0.0,0.0,0.0,0.0,0.0,0.0,0.0,0.0,0.0,0.0,0.0,0.0,0.0,0.0,0.0,0.0,0.0,0.0,0.0,0.0,0.0,0.0,0.0,0.0,0.0,0.0,0.0,0.0,0.0,0.0,0.0,0.0,0.0,0.0,0.0,0.0,0.0,0.0,0.0,0.0,0.0,0.0,0.0,0.0,0.0,0.0,0.0,0.0,0.0,0.0,0.0,0.0,0.0,-0.2752,-0.3262,-0.3565,-0.3796,-0.2534,-0.1472,-0.0904,0.015,0.0839,0.0933,0.0,0.0,0.0,0.0,0.0,0.0,0.0,0.0,0.0,0.0,0.0,0.0,0.0,0.0,0.0,0.0,0.0,0.0,0.0,0.0,0.0,0.0,0.0,0.0,0.0,0.0,0.0,0.0,0.0,0.0,0.0,0.0,0.0,0.0,0.0,0.0,0.0,0.0,0.0,0.0,0.0,0.0,0.0,0.0,0.0,0.0,0.0,0.0,0.0,0.0,0.0,0.0,0.0,0.0,0.0,0.0,0.0,0.0,0.0,0.0,0.0,0.0,0.0,0.0,0.0,0.0,0.0,0.0,0.0,0.0,0.0,0.0,0.0,0.0,0.0,0.0,0.0,0.0,0.0,0.0,0.0,0.0,0.0,0.0,0.0,0.0,0.0,0.0,0.0,0.0,0.0,0.0,0.0,0.0,0.0,0.0,0.0,0.0,0.0,0.0,0.0,0.0,-0.3024,-0.3661,-0.4125,-0.4398,-0.3272,-0.2235,-0.1483,-0.038,0.0411,0.081,0.0,0.0,0.0,0.0,0.0,0.0,0.0,0.0,0.0,0.0,0.0,0.0,0.0,0.0,0.0,0.0,0.0,0.0,0.0,0.0,0.0,0.0,0.0,0.0,0.0,0.0,0.0,0.0,0.0,0.0,0.0,0.0,0.0,0.0,0.0,0.0,0.0,0.0,0.0,0.0,0.0,0.0,0.0,0.0,0.0,0.0,0.0,0.0,0.0,0.0,0.0,0.0,0.0,0.0,0.0,0.0,0.0,0.0,0.0,0.0,0.0,0.0,0.0,0.0,0.0,0.0,0.0,0.0,0.0,0.0,0.0,0.0,0.0,0.0,0.0,0.0,0.0,0.0,0.0,0.0,0.0,0.0,0.0,0.0,0.0,0.0,0.0,0.0,0.0,0.0,0.0,0.0,0.0,0.0,0.0,0.0,0.0,0.0,0.0,0.0,0.0,0.0,-0.328,-0.3974,-0.4579,-0.5132,-0.4245,-0.3262,-0.2269,-0.1222,-0.0218,0.0653,0.0,0.0,0.0,0.0,0.0,0.0,0.0,0.0,0.0,0.0,0.0,0.0,0.0,0.0,0.0,0.0,0.0,0.0,0.0,0.0,0.0,0.0,0.0,0.0,0.0,0.0,0.0,0.0,0.0,0.0,0.0,0.0,0.0,0.0,0.0,0.0,0.0,0.0,0.0,0.0,0.0,0.0,0.0,0.0,0.0,0.0,0.0,0.0,0.0,0.0,0.0,0.0,0.0,0.0,0.0,0.0,0.0,0.0,0.0,0.0,-1.0134,0.0,0.0,0.0,0.0,0.0,0.0,0.0,0.0,0.0,0.0,0.0,0.0,0.0,0.0,0.0,0.0,0.0,0.0,0.0,0.0,0.0,0.0,0.0,0.0,0.0,0.0,0.0,0.0,0.0,0.0,0.0,0.0,0.0,0.0,0.0,0.0,0.0,0.0,0.0,0.0,0.0,-0.3383,-0.4393,-0.5071,-0.5178,-0.442,-0.3435,-0.2311,-0.1161,-0.0149,0.074,0.085,0.0,0.0,0.0,0.0,0.0,0.0,0.0,0.0,0.0,0.0,0.0,0.0,0.0,0.0,0.0,0.0,0.0,0.0,0.0,0.0,0.0,0.0,0.0,0.0,0.0,0.0,0.0,0.0,0.0,0.0,0.0,0.0,0.0,0.0,0.0,0.0,0.0,0.0,0.0,0.0,0.0,0.0,0.0,0.0,0.0,0.0,0.0,0.0,0.0,0.0,0.0,0.0,0.0,0.0,0.0,0.0,0.0,0.0,0.0,0.0,-1.1121,0.0,0.0,0.0,0.0,0.0,0.0,0.0,0.0,0.0,0.0,0.0,0.0,0.0,0.0,0.0,0.0,0.0,0.0,0.0,0.0,0.0,0.0,0.0,0.0,0.0,0.0,0.0,0.0,0.0,0.0,0.0,0.0,0.0,0.0,0.0,0.0,0.0,0.0,0.0,0.0,-0.3616,-0.4637,-0.5157,-0.4821,-0.4401,-0.3521,-0.1936,-0.1098,-0.0269,0.0599,0.0842,0.0,0.0,0.0,0.0,0.0,0.0,0.0,0.0,0.0,0.0,0.0,0.0,0.0,0.0,0.0,0.0,0.0,0.0,0.0,0.0,0.0,0.0,0.0,0.0,0.0,0.0,0.0,0.0,0.0,0.0,0.0,0.0,0.0,0.0,0.0,0.0,0.0,0.0,0.0,0.0,0.0,0.0,0.0,0.0,0.0,0.0,0.0,0.0,0.0,0.0,0.0,0.0,0.0,-1.7897,-1.8035,-1.7938,-1.7938,-1.7635,-1.7067,-1.5201,-1.3785,-1.2729,-1.2058,0.0,0.0,0.0,0.0,0.0,0.0,0.0,0.0,0.0,0.0,0.0,0.0,0.0,0.0,0.0,0.0,0.0,0.0,0.0,0.0,0.0,0.0,0.0,0.0,-0.4688,-0.4543,-0.3794,0.0,0.0,0.0,0.0,0.0,0.0,0.0,0.0,0.0,0.0,0.0,-0.3918,-0.4687,-0.4969,-0.437,-0.4164,-0.335,-0.1569,-0.1035,-0.0437,0.0445,0.0827,0.0997,0.0,0.0,0.0,0.0,0.0,0.0,0.0,0.0,0.0,0.0,0.0,0.0,0.0,0.0,0.0,0.0,0.0,0.0,0.0,0.0,0.0,0.0,0.0,0.0,0.0,0.0,0.0,0.0,0.0,0.0,0.0,0.0,-1.064,-1.1094,0.0,0.0,0.0,0.0,0.0,0.0,0.0,0.0,0.0,0.0,0.0,0.0,0.0,-1.7647,-1.862,-1.9434,-2.005,-2.0514,-2.0978,-2.1195,-2.1185,-2.1185,-2.0794,-2.0107,-1.9533,0.0,-1.4586,-1.3727,0.0,0.0,0.0,0.0,0.0,0.0,0.0,0.0,0.0,0.0,0.0,0.0,0.0,0.0,0.0,0.0,0.0,0.0,0.0,0.0,0.0,0.0,-0.5246,-0.5113,-0.5197,-0.5238,0.0,-0.4268,-0.3598,-0.3342,-0.2966,0.0,0.0,0.0,0.0,0.0,0.0,0.0,-0.4254,-0.4279,-0.4272,-0.4287,-0.3583,-0.2618,-0.1517,-0.1017,-0.041,0.0546,0.0962,0.1157,0.1061,0.1123,0.0,0.0,0.0,0.0,0.0,0.0,0.0,0.0,0.0,0.0,0.0,0.0,0.0,0.0,0.0,0.0,0.0,0.0,0.0,0.0,0.0,0.0,0.0,0.0,0.0,0.0,0.0,0.0,0.0,-1.0723,-1.1934,-1.2637,-1.2936,-1.2892,0.0,0.0,0.0,0.0,0.0,0.0,0.0,0.0,0.0,-1.863,-1.9259,-2.0069,-2.099,-2.1393,-2.1818,-2.2283,-2.248,-2.2584,-2.2584,-2.2584,-2.2009,-2.0947,-2.0835,-1.9476,-1.7269,-1.6056,-1.4813,-1.3573,0.0,0.0,0.0,0.0,-0.9485,-0.9436,-0.8904,-0.8888,-0.8985,-0.8504,0.0,0.0,0.0,0.0,0.0,0.0,0.0,-0.4911,0.0,0.0,-0.5416,-0.5388,-0.5485,-0.5559,-0.5504,-0.507,-0.4574,0.0,-0.3923,-0.368,-0.3129,0.0,0.0,0.0,0.0,-0.4154,-0.4678,-0.4377,-0.3934,-0.3575,-0.2644,-0.1645,-0.0697,-0.0341,0.0041,0.0562,0.088,0.1069,0.1153,0.1213,0.1215,0.0,0.0,0.0,0.0,0.0,0.0,0.0,0.0,0.0,0.0,0.0,0.0,0.0,0.0,0.0,0.0,0.0,0.0,0.0,0.0,0.0,0.0,0.0,0.0,0.0,0.0,0.0,0.0,-1.2296,-1.3364,-1.39,-1.4687,-1.4956,0.0,0.0,0.0,0.0,0.0,0.0,-1.8008,-1.9158,-2.0131,-2.0928,-2.1518,-2.2149,-2.2842,-2.2967,-2.3194,-2.3536,-2.3536,-2.3454,-2.3289,-2.3289,-2.2522,-2.124,-2.124,-2.0567,-1.935,-1.7857,-1.6695,-1.5679,-1.461,-1.3769,-1.3068,-1.1935,-1.1463,-1.122,-1.0455,-1.0343,-1.0445,-0.9896,-0.9623,-0.9352,-0.8321,0.0,0.0,0.0,0.0,-0.5176,-0.5324,-0.541,-0.5485,-0.5532,-0.5623,-0.5688,-0.5688,-0.5618,-0.5395,0.0,-0.4763,-0.4627,-0.3947,0.0,0.0,0.0,0.0,-0.4632,-0.5038,-0.4342,-0.3564,-0.2952,-0.1793,-0.0758,-0.0044,0.0171,0.0376,0.0534,0.0746,0.0955,0.1108,0.1222,0.1214,0.1107,0.0,0.0,0.0,0.0,0.0,0.0,0.0,0.0,0.0,0.0,0.0,0.0,0.0,0.0,0.0,0.0,0.0,0.0,0.0,0.0,0.0,0.0,0.0,0.0,0.0,0.0,0.0,0.0,0.0,-1.4976,-1.6459,0.0,0.0,0.0,0.0,-1.8766,-1.8922,-1.951,-2.0798,-2.1393,-2.189,-2.2377,-2.3267,-2.3764,-2.3805,-2.4229,-2.4404,-2.4425,-2.4425,-2.4082,-2.3477,-2.3477,-2.2717,-2.1382,-2.1382,-2.0944,-2.0146,-1.8556,-1.7738,-1.7315,-1.6397,-1.5882,-1.5527,-1.4652,-1.3906,-1.3283,-1.2793,-1.2016,-1.1321,-1.179,-1.1123,-0.992,-0.8737,-0.766,0.0,0.0,-0.5647,-0.5616,-0.5834,-0.5796,-0.5672,-0.5677,-0.5686,-0.5688,-0.5688,-0.5686,-0.564,0.0,-0.5289,-0.5095,-0.4768,0.0,-0.4534,-0.4539,-0.4779,-0.5054,-0.5344,-0.396,-0.2953,-0.2911,-0.1211,-0.0045,0.0,0.0173,0.0295,0.0294,0.0684,0.0902,0.0902,0.1108,0.1163,0.1106,0.1106,0.0,0.0,0.0,0.0,0.0,0.0,0.0,0.0,0.0,0.0,0.0,0.0,0.0,0.0,0.0,0.0,0.0,0.0,0.0,0.0,0.0,0.0,0.0,0.0,0.0,0.0,0.0,0.0,-1.8009,-1.9158,0.0,-1.9044,-1.9396,-1.9862,-2.0348,-2.0938,-2.1621,-2.2408,-2.2884,-2.335,-2.3753,-2.4126,-2.4312,-2.4312,-2.4425,-2.4497,-2.4497,-2.4067,-2.398,-2.411,-2.3212,-2.2501,-2.2006,-2.157,-2.1006,-2.0257,-1.9722,-1.9252,-1.8836,-1.7993,-1.7249,-1.6472,-1.539,-1.4459,-1.3566,-1.2827,-1.2316,-1.2002,-1.2086,-1.178,-1.1219,-1.0246,-0.9207,-0.8208,-0.7324,-0.6555,-0.6011,-0.6,-0.5972,-0.5939,-0.586,-0.5841,-0.5822,-0.5704,-0.5688,-0.5677,-0.5634,-0.5553,-0.5456,-0.5296,-0.5198,-0.5169,-0.5169,-0.5243,-0.5384,-0.5589,-0.4036,-0.2911,-0.2911,-0.1166,0.0,0.0,0.0086,0.0167,0.0289,0.0434,0.0648,0.0899,0.0965,0.105,0.1106,0.1087,0.106,0.0,0.0,0.0,0.0,0.0,0.0,0.0,0.0,0.0,0.0,0.0,0.0,0.0,0.0,0.0,0.0,0.0,0.0,0.0,0.0,0.0,0.0,0.0,0.0,0.0,0.0,-1.8949,-1.9872,-2.0928,-2.1393,-2.0938,-2.1311,-2.1714,-2.2025,-2.2615,-2.3163,-2.3619,-2.3939,-2.424,-2.4487,-2.4497,-2.4368,-2.4153,-2.4153,-2.4057,-2.3777,-2.3343,-2.3266,-2.343,-2.2492,-2.1917,-2.165,-2.1221,-2.0736,-2.0292,-2.0292,-2.0146,-1.9853,-1.9333,-1.8696,-1.7971,-1.6697,-1.5659,-1.4616,-1.3159,-1.2659,-1.2601,-1.2292,-1.2218,-1.2031,-1.101,-0.9985,-0.898,-0.8024,-0.6977,-0.6171,-0.6111,-0.6086,-0.6064,-0.5986,-0.5964,-0.5931,-0.5814,-0.5745,-0.5734,-0.5696,-0.5688,-0.5664,-0.5583,-0.5523,-0.548,-0.548,-0.539,-0.5331,-0.5366,-0.3851,-0.2732,-0.2643,-0.1032,0.0,0.0,0.0,0.0042,0.0206,0.0274,0.0413,0.0702,0.0842,0.0936,0.1016,0.1048,0.1054,0.1061,0.0,0.0,0.0,0.0,0.0,0.0,0.0,0.0,0.0,0.0,0.0,0.0,0.0,0.0,0.0,0.0,0.0,0.0,0.0,0.0,0.0,0.0,0.0,-1.7781,-1.9321,-2.0467,-2.0498,-2.1725,-2.2387,-2.1932,-2.2294,-2.2936,-2.3836,-2.394,-2.4084,-2.4476,-2.4497,-2.4497,-2.4497,-2.4497,-2.4196,-2.3547,-2.3503,-2.3135,-2.2438,-2.2394,-2.205,-2.1445,-2.141,-2.1024,-2.0354,-2.0326,-2.0326,-2.0326,-2.0326,-2.0326,-2.0326,-2.03,-2.0246,-2.0011,-1.8603,-1.7522,-1.6432,-1.3998,-1.3098,-1.306,-1.2548,-1.2425,-1.2188,-1.1013,-0.9926,-0.8909,-0.802,-0.6941,-0.6097,-0.6097,-0.6097,-0.6094,-0.6092,-0.6092,-0.6056,-0.5934,-0.5909,-0.5874,-0.5715,-0.5694,-0.5694,-0.5688,-0.5552,-0.5416,-0.5416,-0.5191,0.0,-0.475,-0.3449,-0.2418,-0.2149,-0.0852,0.0,0.0,0.0,0.0,0.0,0.0197,0.0303,0.0303,0.0665,0.0901,0.0913,0.0968,0.1071,0.12,0.0,0.0,0.0,0.0,0.0,0.0,0.0,0.0,0.0,0.0,0.0,0.0,0.0,0.0,0.0,0.0,0.0,0.0,0.0,0.0,0.0,-1.862,-1.9651,-1.9651,-2.0979,-2.218,-2.2853,-2.3557,-2.3887,-2.3763,-2.3856,-2.4042,-2.4301,-2.4321,-2.4373,-2.4487,-2.4497,-2.4497,-2.4497,-2.4497,-2.4411,-2.4239,-2.3764,-2.3406,-2.3178,-2.2148,-2.1828,-2.2104,-2.139,-2.1211,-2.144,-2.122,-2.1105,-2.1105,-2.1105,-2.1105,-2.1045,-2.0506,-1.9401,-1.8087,-1.7669,-1.6311,-1.4627,-1.3925,-1.3539,-1.3335,-1.3027,-1.2908,-1.2844,-1.2342,-1.0913,-0.9413,-0.917,-0.7756,-0.6339,-0.6339,-0.6339,-0.632,-0.6238,-0.6268,-0.6184,-0.6062,-0.6034,-0.5999,-0.588,-0.5855,-0.5831,-0.5702,-0.5644,-0.5599,-0.5599,-0.5552,0.0,-0.5421,-0.3896,-0.2777,-0.2688,-0.1077,0.0,0.0,0.0,0.0,0.0,0.0038,0.0147,0.0295,0.0402,0.0586,0.089,0.1061,0.1152,0.0,0.0,0.0,0.0,0.0,0.0,0.0,0.0,0.0,0.0,0.0,0.0,0.0,0.0,0.0,0.0,0.0,0.0,0.0,0.0,0.0,0.0,-2.0483,-2.1652,-2.1849,-2.2563,-2.3339,-2.4074,-2.4342,-2.4497,-2.4497,-2.4497,-2.4497,-2.4497,-2.4497,-2.4497,-2.4497,-2.4683,-2.4786,-2.4786,-2.4655,-2.4428,-2.4162,-2.3438,-2.2953,-2.2626,-2.1806,-2.1614,-2.198,-2.136,-2.1324,-2.1699,-2.1501,-2.1413,-2.1413,-2.1413,-2.1413,0.0,0.0,0.0,0.0,0.0,-1.5568,-1.407,-1.3931,-1.3786,-1.3636,-1.3346,-1.3249,-1.3152,-1.2613,-1.1282,-0.9805,-0.9266,-0.7879,-0.6539,-0.6437,-0.6387,-0.6371,-0.6352,-0.6339,-0.6306,-0.6189,-0.6162,-0.6127,-0.6002,-0.5977,0.0,-0.5825,-0.5673,-0.5552,-0.5552,-0.5463,-0.5374,-0.5285,-0.3807,-0.2688,-0.2597,-0.1032,0.0,0.0,0.0,0.0,0.0,0.0,0.0076,0.0301,0.0301,0.0,0.0,0.0,0.0,0.0,0.0,0.0,0.0,0.1712,0.1888,0.0,0.0,0.0,0.0,0.0,0.0,0.0,0.0,0.0,0.0,0.0,0.0,0.0,0.0,0.0,0.0,-2.1927,-2.3299,-2.3669,-2.3782,-2.4021,-2.4456,-2.4497,-2.4497,-2.4497,-2.4497,-2.4518,-2.4569,-2.458,-2.46,-2.4642,0.0,0.0,0.0,0.0,-2.4358,-2.3672,-2.2914,-2.2159,-2.15,-2.1453,-2.1413,-2.1413,-2.1456,-2.1482,-2.1482,-2.1516,-2.1542,-2.1542,-2.1542,-2.1411,-2.1239,-2.0788,-1.9976,-1.8821,-1.6566,-1.5147,-1.434,-1.411,0.0,0.0,-1.3682,-1.3562,-1.3346,-1.2322,-1.1233,-1.0145,-0.8825,-0.7686,-0.6792,-0.6539,-0.6437,-0.6437,-0.6387,-0.6387,-0.6407,-0.6309,-0.6287,-0.6252,-0.613,-0.6108,-0.6067,-0.5945,-0.5644,-0.5431,-0.5419,-0.5235,-0.4966,-0.4703,-0.3403,-0.2418,-0.215,0.0,0.0,0.0,0.0,0.0,0.0,0.0,0.0081,0.0277,0.0278,0.0359,0.0479,0.0572,0.0632,0.0614,0.0895,0.106,0.1146,0.1563,0.1774,0.0,0.0,0.0,0.0,0.0,0.0,0.0,0.0,0.0,0.0,0.0,0.0,0.0,0.0,0.0,-2.1422,-2.2388,-2.2817,-2.2703,-2.3181,-2.3793,-2.4444,-2.4497,-2.4497,-2.4497,-2.4497,-2.4652,-2.5024,-2.5055,-2.5254,-2.5595,-2.5709,-2.548,-2.4836,-2.4733,-2.4312,-2.3532,-2.2867,-2.2443,-2.2301,0.0,0.0,-2.1422,-2.1739,-2.1884,-2.1901,-2.2251,-2.2379,-2.2379,-2.2379,-2.1636,-2.039,-1.9241,-1.8125,-1.6997,-1.5707,-1.51,-1.495,-1.4906,-1.4718,-1.4495,-1.4242,-1.4004,-1.3593,-1.237,-1.1233,0.0,-0.9019,-0.7932,-0.7039,-0.6792,-0.6742,-0.6692,-0.6437,-0.6387,-0.6381,-0.6357,-0.6404,-0.6372,-0.6255,-0.6281,-0.6243,-0.6072,-0.5904,-0.5748,-0.5657,-0.5599,-0.5282,-0.4478,-0.3449,-0.2509,-0.1658,-0.0628,0.0,0.0,0.0,0.0,0.0,0.0,0.0,0.0042,0.0258,0.035,0.035,0.0581,0.068,0.0686,0.0747,0.0906,0.1171,0.146,0.1602,0.0,0.0,0.0,0.0,0.0,0.0,0.0,0.0,0.0,0.0,0.0,-1.9284,-1.9762,0.0,-2.0912,-2.1791,-2.2411,-2.277,-2.2614,-2.3299,-2.3874,-2.397,-2.398,-2.4153,-2.4454,-2.4704,-2.4941,-2.5168,-2.5651,-2.5905,-2.591,-2.5945,-2.5691,-2.5063,-2.4506,-2.4,-2.3616,-2.2899,-2.2558,-2.2558,-2.2166,-2.1978,-2.2036,-2.2234,-2.2319,-2.2328,-2.2517,-2.2594,-2.2544,-2.1971,-2.0942,-1.9643,-1.8411,-1.7404,-1.6493,-1.5455,-1.5107,-1.5107,-1.5107,-1.5022,-1.4864,-1.4757,-1.417,-1.3264,-1.2127,-1.0964,-0.9752,-0.8531,-0.7839,-0.7341,-0.7092,-0.6892,-0.6742,-0.6639,-0.6487,-0.6387,-0.6387,-0.6387,-0.6371,-0.6363,-0.6352,-0.6314,-0.6198,-0.6127,-0.6026,-0.5844,-0.5726,-0.5374,-0.4433,-0.3494,-0.251,-0.1524,-0.0539,0.0,0.0,0.0,0.0,0.0,0.0,0.0,0.0,0.0134,0.0182,0.0137,0.0279,0.033,0.0334,0.0481,0.0638,0.0808,0.12,0.1509,0.0,0.0,0.0,0.0,0.0,0.0,0.0,0.0,-2.0564,-2.0852,-2.1485,-2.2,-2.1865,-2.2241,-2.2438,-2.2131,-2.2563,-2.2872,-2.275,-2.3454,-2.392,-2.3787,-2.3787,-2.4057,-2.4711,-2.5138,-2.5451,-2.5612,-2.6422,-2.6663,-2.6179,-2.6233,-2.596,-2.5223,-2.4342,-2.3786,-2.3637,-2.3046,-2.2745,-2.2745,-2.2695,-2.2695,-2.2695,-2.2594,-2.2594,-2.2594,-2.2594,-2.2594,-2.2493,-2.1353,-2.021,-1.9072,-1.7996,-1.7132,-1.6361,-1.5559,-1.5264,-1.5264,-1.5264,-1.5228,-1.5185,-1.5185,-1.4432,-1.3241,-1.1988,-1.0866,-0.9652,-0.8095,-0.7696,-0.7593,-0.7341,-0.7141,-0.6945,-0.6845,-0.6639,-0.6487,-0.6387,-0.6387,-0.6387,-0.6387,-0.6387,-0.6407,-0.6317,-0.6331,-0.6195,-0.5972,-0.5657,-0.5136,-0.4187,-0.3187,-0.2241,-0.1256,-0.0449,0.0,0.0,0.0,0.0,0.0,0.0,0.0,0.0,0.0,0.0,0.0,0.0,0.0,0.0,0.0198,0.0353,0.0416,0.0941,0.1374,-1.762,-1.7351,-1.7511,-1.9199,-1.964,-2.0158,0.0,0.0,-2.3018,-2.3107,-2.3516,-2.3883,-2.4181,-2.3887,-2.3543,-2.3268,-2.3274,-2.3139,-2.2536,-2.3042,-2.377,-2.4542,-2.4872,-2.52,-2.5686,-2.583,-2.6225,-2.703,-2.7586,-2.7667,-2.7112,-2.708,-2.6338,-2.4651,-2.4461,-2.4093,-2.3447,-2.3347,-2.3297,-2.3297,-2.3046,-2.2946,-2.2946,-2.2695,-2.2594,-2.2594,-2.2594,-2.2594,-2.2493,-2.1353,-2.021,-1.9072,-1.7996,-1.6962,-1.596,-1.5854,-1.5801,-1.5801,-1.5801,-1.565,-1.5457,-1.5457,-1.5173,-1.4449,-1.2294,-1.1513,-1.0907,-0.8617,-0.7939,-0.7889,-0.7643,-0.7547,-0.7397,-0.6895,-0.6792,-0.6692,-0.6437,-0.6387,-0.6387,-0.6387,-0.6387,-0.6381,-0.6371,-0.6333,-0.627,-0.6086,-0.5261,-0.4272,-0.3263,-0.2219,-0.1211,-0.0269,-0.0045,0.0,0.0,0.0,0.0,0.0,0.0,0.0,0.0,0.0,0.0,0.0,0.0,0.0,0.0,0.0051,0.0155,0.0416,0.075,0.1088,-1.8866,-1.9404,-2.0057,0.0,-2.1829,-2.2662,-2.3517,-2.4252,-2.4842,-2.5172,-2.537,-2.5463,-2.5328,-2.447,-2.3597,0.0,-2.258,-2.2325,-2.2526,-2.3304,-2.42,-2.5263,-2.5253,-2.5369,-2.5853,-2.6411,-2.6932,-2.7249,-2.8285,-2.8424,-2.7268,-2.7067,-2.6196,-2.4529,-2.4093,-2.3696,-2.3397,-2.3397,-2.3397,-2.3397,-2.3297,-2.3247,-2.3197,-2.2946,-2.2745,-2.2594,-2.2594,-2.2594,-2.2443,-2.0672,-1.9642,-1.902,-1.7305,-1.6311,-1.5891,-1.5891,-1.5891,-1.5891,-1.5891,-1.5819,-1.5728,-1.5728,-1.4693,-1.3211,-1.2232,-1.0908,-0.9462,-0.844,-0.8109,-0.7992,-0.7842,-0.7693,-0.7547,-0.7297,-0.7141,-0.6939,-0.6689,-0.6639,-0.6589,-0.6437,-0.6387,-0.6387,-0.6387,-0.6396,-0.6347,-0.6298,-0.5265,-0.413,-0.3145,-0.2052,-0.1017,-0.0092,0.0,0.0,0.0,0.0,0.0,0.0,0.0,0.0,0.0,0.0,0.0,0.0,0.0,0.0,0.0,0.0,0.0052,0.0158,0.0649,0.0934,-2.0266,0.0,0.0,-2.2776,-2.3798,-2.4694,-2.4969,-2.5601,-2.6232,-2.66,-2.6701,-2.6569,-2.6257,-2.52,-2.4082,-2.3304,-2.2457,-2.2157,-2.3052,-2.379,-2.4691,-2.6049,-2.5684,-2.5485,-2.5832,-2.6487,-2.6887,-2.6884,-2.8239,-2.8397,-2.6887,-2.658,-2.5858,-2.444,-2.3895,-2.3596,-2.3596,-2.3596,-2.3596,-2.3596,-2.3555,-2.3447,-2.3406,-2.3046,-2.2795,-2.2594,-2.2594,-2.2594,-2.2434,-2.0158,-1.9176,-1.8968,-1.6776,-1.5891,-1.5891,-1.5891,-1.5891,-1.5891,-1.5891,-1.5891,-1.5891,-1.5891,-1.4467,-1.266,-1.2327,-1.0644,-0.884,-0.8395,-0.8191,-0.8092,-0.8002,-0.7842,-0.7696,-0.7596,-0.7444,-0.7241,-0.6895,-0.6795,-0.6742,-0.6437,-0.6387,-0.6387,-0.6387,-0.6387,-0.6387,-0.6387,-0.5112,-0.3857,-0.3164,-0.1861,-0.0757,-0.0093,0.0,0.0,0.0,0.0,0.0,0.0,0.0,0.0,0.0,0.0,0.0,0.0,0.0,0.0,0.0,0.0,0.0,0.0,0.0546,0.0831,0.0,0.0,-2.3306,-2.5145,-2.5635,-2.5922,-2.6869,-2.7121,-2.7144,-2.7167,-2.7179,-2.7179,-2.7149,-2.6393,-2.5453,-2.4573,-2.3661,-2.3367,-2.4317,-2.4456,-2.5137,-2.6933,-2.6351,-2.5788,-2.5777,-2.5894,-2.593,-2.5861,-2.7224,-2.7384,-2.5819,-2.5742,-2.5265,-2.4251,-2.4202,-2.4202,-2.4202,-2.4202,-2.4202,-2.4152,-2.3895,-2.3646,-2.3397,-2.2846,-2.2603,-2.2594,-2.2594,-2.2594,-2.2434,-2.0158,-1.9176,-1.8968,-1.6776,-1.5891,-1.5891,-1.5891,-1.5891,-1.5891,-1.5891,-1.5891,-1.5891,-1.5891,-1.5078,-1.3895,-1.2587,-1.1354,-1.0118,-0.8708,-0.832,-0.8231,-0.8029,-0.7988,-0.7942,-0.7643,-0.7596,-0.7447,-0.6895,-0.6795,-0.6742,-0.6437,-0.6387,-0.6387,-0.6387,-0.6387,-0.6387,-0.6387,-0.4574,-0.3246,-0.3187,-0.1349,-0.0048,0.0,0.0,0.0,0.0,0.0,0.0,0.0,0.0,0.0,0.0,0.0,0.0,0.0,0.0,0.0,0.0,0.0,0.0,0.0,0.0278,0.0616,0.0,0.0,-2.5171,-2.6035,-2.6462,-2.6766,-2.711,-2.719,-2.7087,-2.6795,-2.6726,-2.6542,-2.5922,-2.4931,-2.4082,-2.3645,-2.2685,-2.2577,-2.4276,-2.479,-2.5294,-2.6177,-2.5764,0.0,-2.4102,-2.4871,0.0,-2.5771,-2.6567,-2.6677,-2.5761,-2.5693,-2.5265,-2.4251,-2.4202,-2.4202,-2.4202,-2.4202,-2.4202,-2.4211,-2.4176,-2.3889,-2.3491,-2.3539,-2.3497,-2.334,-2.3306,-2.2797,-2.177,-2.0226,-1.8998,-1.7989,-1.6471,-1.5891,-1.5891,-1.5891,-1.5891,-1.5891,-1.5891,-1.5891,-1.5891,-1.5891,-1.4589,-1.2896,-1.2494,-1.0932,-0.9223,-0.8694,-0.8421,-0.831,-0.8208,-0.8116,-0.7992,-0.7892,-0.7842,-0.7743,-0.7394,-0.7191,-0.6992,-0.6742,-0.6539,-0.6387,-0.6387,-0.6387,-0.5934,-0.4477,-0.3676,-0.2665,-0.125,-0.0443,0.0,0.0,0.0,0.0,0.0,0.0,0.0,0.0,0.0,0.0,0.0,0.0,0.0,0.0,0.0,0.0,0.0,0.0,0.0,0.0,0.0278,0.0449,-2.3793,-2.5078,-2.6262,-2.6651,-2.699,-2.719,-2.719,-2.7093,-2.6806,-2.6301,-2.6037,-2.5684,-2.475,-2.3805,-2.3058,-2.2897,-2.2159,-2.2263,-2.3981,-2.4591,-2.5108,-2.5679,-2.5257,-2.452,0.0,0.0,0.0,-2.4758,-2.552,-2.5737,-2.5187,-2.5167,-2.4873,-2.4202,-2.4202,-2.4202,-2.4202,-2.4202,-2.4275,-2.4431,-2.4368,-2.4188,-2.3834,-2.3922,-2.3877,-2.3682,-2.3691,-2.2881,-2.1425,-2.0287,-1.8939,-1.7477,-1.6365,-1.5891,-1.5891,-1.5891,-1.5891,-1.5891,-1.5891,-1.5891,-1.5891,-1.5891,-1.4315,-1.2417,-1.2417,-1.0703,-0.8781,-0.8726,-0.8574,-0.8414,-0.836,-0.8235,-0.8123,-0.8123,-0.8029,-0.7942,-0.7646,-0.7391,-0.7138,-0.6845,-0.6589,-0.6387,-0.6387,-0.6387,-0.5682,-0.3525,-0.3224,-0.2418,-0.0252,0.0,0.0,0.0,0.0,0.0,0.0,0.0,0.0,0.0,0.0,0.0,0.0,0.0,0.0,0.0,0.0,0.0,0.0,0.0,0.0,0.0,0.0167,0.0336,-2.5237,-2.6106,-2.6662,-2.7075,-2.719,-2.7179,-2.7156,-2.6795,-2.6306,-2.5704,-2.5164,-2.4525,-2.3672,0.0,-2.2532,-2.2322,-2.2188,-2.2459,-2.3576,-2.4049,-2.4634,0.0,0.0,0.0,0.0,0.0,0.0,-2.294,0.0,-2.4651,-2.4223,-2.4202,-2.4202,-2.4202,-2.4202,-2.4202,-2.4202,-2.422,-2.445,-2.4821,-2.4627,-2.4535,-2.4482,-2.3973,-2.3787,-2.3759,-2.3734,-2.287,-2.1368,-2.0264,-1.8908,-1.7444,-1.6318,-1.5891,-1.5891,-1.5891,-1.5891,-1.5891,-1.5891,-1.5891,-1.5891,-1.5891,-1.4315,-1.2417,-1.2417,-1.0735,-0.8854,-0.8764,-0.8716,-0.8676,-0.853,-0.8387,-0.833,-0.8323,-0.816,-0.7949,-0.7696,-0.7391,-0.7138,-0.6892,-0.6589,-0.6387,-0.6387,-0.6387,-0.5682,-0.3525,-0.3224,-0.2418,-0.0252,0.0,0.0,0.0,0.0,0.0,0.0,0.0,0.0,0.0,0.0,0.0,0.0,0.0,0.0,0.0,0.0,0.0,0.0,0.0,0.0,0.0,0.0,0.0112,-2.5578,-2.6358,-2.7059,-2.7156,-2.719,-2.7087,-2.6749,-2.6267,-2.5543,-2.4244,-2.3603,-2.2799,-2.1296,0.0,0.0,-2.0958,-2.1569,0.0,-2.3576,-2.4394,0.0,-2.47,0.0,-2.4465,-2.3345,-2.3312,0.0,0.0,-2.3666,-2.3955,-2.4183,-2.4202,-2.4202,-2.4202,-2.4202,-2.4202,-2.4202,-2.4514,-2.477,-2.4966,-2.5145,-2.5014,-2.4648,-2.4757,-2.4732,-2.4538,-2.453,-2.3127,-2.0893,-2.0436,-1.8801,-1.659,-1.6071,-1.5891,-1.5891,-1.5891,-1.5891,-1.5891,-1.5891,-1.5891,-1.5891,-1.5891,-1.4315,-1.2417,-1.2417,-1.0735,-0.8875,-0.8838,-0.8798,-0.8703,-0.8662,-0.854,-0.8401,-0.8347,-0.8241,-0.818,-0.7965,-0.7537,-0.7188,-0.7089,-0.6739,-0.6387,-0.6387,-0.6387,-0.5682,-0.3525,-0.3224,-0.2418,-0.0252,0.0,0.0,0.0,0.0,0.0,0.0,0.0,0.0,0.0,0.0,0.0,0.0,0.0,0.0,0.0,0.0,0.0,0.0,0.0,0.0,0.0,0.0,0.0056,-2.6255,-2.6754,-2.719,-2.719,-2.719,-2.7036,-2.6301,-2.5566,-2.4519,-2.2708,-2.1804,0.0,-1.9221,-1.9613,0.0,0.0,0.0,0.0,-2.3218,-2.3975,-2.4355,0.0,-2.4516,0.0,-2.3549,-2.3675,-2.3813,0.0,-2.3813,-2.3904,-2.4192,-2.4202,-2.4202,-2.4202,-2.4202,-2.4293,-2.4477,-2.484,-2.5182,-2.5418,-2.5666,-2.5531,-2.5151,-2.5188,-2.5072,-2.4821,0.0,-2.3237,-2.0696,-2.0637,-1.8872,-1.6266,-1.6115,-1.5988,-1.5891,-1.5891,-1.5891,-1.5891,-1.5891,-1.5891,-1.5832,-1.5298,-1.3884,-1.2304,-1.1814,-1.0351,-0.8885,-0.8885,-0.8821,-0.8811,-0.8811,-0.8696,-0.8564,-0.8482,-0.8367,-0.8248,-0.816,-0.7632,-0.7138,-0.6886,-0.6587,-0.6387,-0.6387,-0.6387,-0.5682,-0.3525,-0.3224,-0.2418,-0.0252,0.0,0.0,0.0,0.0,0.0,0.0,0.0,0.0,0.0,0.0,0.0,0.0,0.0,0.0,0.0,0.0,0.0,0.0,0.0,0.0,0.0,0.0,0.0,-2.6949,-2.719,-2.719,-2.719,-2.7133,-2.68,-2.5723,-2.4634,-2.3246,-2.1071,0.0,-1.8694,-1.7346,-1.7954,-1.8762,-1.9141,0.0,-2.1678,-2.273,-2.3242,-2.3694,-2.4156,-2.4202,-2.4202,-2.4202,-2.4202,-2.4202,-2.4202,-2.4202,-2.4202,-2.4202,-2.4202,-2.4202,-2.4202,-2.4202,-2.4404,-2.4776,-2.5176,-2.5543,-2.5938,-2.5964,-2.5882,-2.5608,-2.5313,-2.5072,-2.4765,-2.4646,-2.3086,-2.0769,-2.0577,-1.8843,-1.6332,-1.626,-1.6091,-1.5891,-1.5891,-1.5891,-1.5891,-1.5891,-1.5891,-1.5731,-1.4546,-1.3398,-1.22,-1.1055,-0.986,-0.8885,-0.8885,-0.8885,-0.8885,-0.8885,-0.8842,-0.8733,-0.8716,-0.8516,-0.8319,-0.833,-0.7743,-0.7036,-0.6487,-0.6387,-0.6387,-0.6387,-0.6387,-0.5682,-0.3525,-0.3224,-0.2418,-0.0252,0.0,0.0,0.0,0.0,0.0,0.0,0.0,0.0,0.0,0.0,0.0,0.0,0.0,0.0,0.0,0.0,0.0,0.0,0.0,0.0,0.0,0.0,0.0,-2.7133,-2.719,-2.719,-2.719,-2.6909,-2.6232,-2.4659,-2.3175,0.0,0.0,-1.7873,-1.6764,-1.5691,-1.649,-1.7543,-1.8142,0.0,0.0,0.0,0.0,-2.3694,0.0,0.0,0.0,0.0,0.0,0.0,0.0,-2.4202,-2.4202,-2.4202,-2.4202,-2.4202,-2.4202,-2.4202,-2.4404,-2.4776,-2.4849,-2.5139,-2.5472,-2.5566,-2.5487,-2.5227,-2.52,-2.5072,-2.4765,-2.3728,0.0,-2.0949,-1.948,-1.8014,-1.6585,-1.6133,-1.5928,-1.5891,-1.5891,-1.5891,-1.5891,-1.5891,-1.5891,-1.5731,-1.4546,-1.3398,-1.22,-1.1055,-0.986,-0.8885,-0.8885,-0.8885,-0.8885,-0.8885,-0.8865,-0.8811,-0.874,-0.8672,-0.8567,-0.8323,-0.7743,-0.7036,-0.6487,-0.6387,-0.6387,-0.6387,-0.6387,-0.5682,-0.3525,-0.3224,-0.2418,-0.0252,0.0,0.0,0.0,0.0,0.0,0.0,0.0,0.0,0.0,0.0,0.0,0.0,0.0,0.0,0.0,0.0,0.0,0.0,0.0,0.0,0.0,0.0,0.0,-2.7121,-2.719,-2.719,-2.719,-2.6645,-2.5643,-2.3875,0.0,0.0,0.0,-1.6331,-1.5314,-1.448,0.0,0.0,0.0,0.0,0.0,0.0,0.0,0.0,0.0,0.0,0.0,0.0,0.0,0.0,-2.4202,-2.4202,-2.4202,-2.4202,-2.4202,-2.4202,-2.4202,-2.4202,-2.4404,-2.4776,-2.4785,-2.4977,-2.5372,-2.5302,-2.5075,-2.4801,-2.4657,-2.4587,-2.4403,-2.3204,-2.2012,-2.0803,-1.9339,-1.783,-1.6453,-1.6193,-1.6012,-1.5891,-1.5891,-1.5891,-1.5891,-1.5891,-1.5512,-1.4809,-1.3668,-1.2856,-1.2091,-1.0296,-0.9372,-0.8885,-0.8885,-0.8885,-0.8885,-0.8885,-0.8885,-0.8865,-0.8794,-0.8767,-0.8575,-0.8175,-0.7696,-0.7223,-0.6703,-0.6487,-0.6387,-0.6387,-0.5937,-0.5033,-0.3425,-0.272,-0.1815,-0.0202,0.0,0.0,0.0,0.0,0.0,0.0,0.0,0.0,0.0,0.0,0.0,0.0,0.0,0.0,0.0,0.0,0.0,0.0,0.0,0.0,0.0,0.0,0.0,-2.7059,-2.719,-2.719,-2.719,-2.6381,-2.5028,-2.3163,-2.1029,0.0,0.0,-1.5011,-1.4059,-1.3467,0.0,-1.5119,0.0,0.0,0.0,0.0,0.0,0.0,0.0,0.0,0.0,0.0,0.0,0.0,-2.4202,-2.4202,-2.4202,-2.4202,-2.4202,-2.4202,-2.4202,-2.4202,-2.4358,-2.4647,-2.4647,-2.4854,-2.5166,-2.4887,-2.4602,-2.4332,-2.4105,-2.3926,-2.367,-2.244,-2.1334,-2.0226,-1.8886,-1.7544,-1.6278,-1.6223,-1.6072,-1.5891,-1.5891,-1.5891,-1.5891,-1.5891,-1.5137,-1.4002,-1.2797,-1.2254,-1.1655,-0.9537,-0.8885,-0.8885,-0.8885,-0.8885,-0.8885,-0.8885,-0.8885,-0.8885,-0.8885,-0.8821,-0.8592,-0.8095,-0.7765,-0.7398,-0.6962,-0.6631,-0.6416,-0.6389,-0.5502,-0.4455,-0.3344,-0.2289,-0.1225,-0.0153,0.0,0.0,0.0,0.0,0.0,0.0,0.0,0.0,0.0,0.0,0.0,0.0,0.0,0.0,0.0,0.0,0.0,0.0,0.0,0.0,0.0,0.0,0.0,-2.6926,-2.719,-2.719,-2.719,-2.6067,-2.4443,-2.2377,0.0,0.0,-1.5248,-1.3892,-1.3051,-1.2676,-1.2982,0.0,0.0,0.0,0.0,0.0,0.0,0.0,0.0,0.0,0.0,0.0,0.0,0.0,-2.4202,-2.4202,-2.4202,-2.4202,-2.4202,-2.4202,-2.4202,-2.4202,-2.422,-2.4257,-2.4266,-2.4275,-2.4321,-2.408,-2.3994,-2.3952,-2.3826,-2.3188,-2.2135,-2.0946,-1.9745,0.0,-1.7156,-1.6448,-1.6284,-1.6024,-1.591,-1.5891,-1.5891,-1.5891,-1.5891,-1.5891,-1.5137,-1.4002,-1.2797,-1.1705,-1.0621,-0.932,-0.8885,-0.8885,-0.8885,-0.8885,-0.8885,-0.8885,-0.8885,-0.8885,-0.8885,-0.8821,-0.8595,-0.8303,-0.793,-0.7485,-0.715,-0.681,-0.6567,-0.6406,-0.5505,-0.4435,-0.3357,-0.2306,-0.122,-0.0159,0.0,0.0,0.0,0.0,0.0,0.0,0.0,0.0,0.0,0.0,0.0,0.0,0.0,0.0,0.0,0.0,0.0,0.0,0.0,0.0,0.0,0.0,0.0,-2.6416,-2.699,-2.711,-2.6852,-2.5292,-2.3371,-2.1589,0.0,-1.6312,-1.468,-1.3482,-1.2632,-1.2421,-1.271,-1.3288,0.0,-1.5302,-1.6563,-1.8119,0.0,0.0,0.0,0.0,0.0,0.0,0.0,0.0,0.0,-2.4202,-2.4202,-2.4202,-2.4202,-2.4202,-2.4202,-2.4202,-2.4202,-2.4202,-2.4202,-2.4202,-2.4211,-2.3817,-2.3586,-2.3536,-2.2492,-2.1897,-2.1571,-1.9693,-1.8666,0.0,-1.6818,-1.6205,-1.6042,-1.5934,-1.5891,-1.5891,-1.5891,-1.5891,-1.5891,-1.5891,-1.4696,-1.3019,-1.258,-1.1114,-0.9537,-0.9047,-0.8885,-0.8885,-0.8885,-0.8885,-0.8885,-0.8885,-0.8885,-0.8885,-0.8885,-0.8838,-0.877,-0.8571,-0.8126,-0.7727,-0.7439,-0.7044,-0.6714,-0.6665,-0.5122,-0.3834,-0.3364,-0.1801,-0.048,-0.0053,0.0,0.0,0.0,0.0,0.0,0.0,0.0,0.0,0.0,0.0,0.0,0.0,0.0,0.0,0.0,0.0,0.0,0.0,0.0,0.0,0.0,0.0,0.0,-2.5421,-2.6163,-2.6496,-2.629,-2.4517,-2.2369,0.0,-1.7988,-1.5329,-1.4077,-1.3074,-1.2406,-1.2283,-1.2575,-1.3024,0.0,-1.4726,-1.5881,-1.6936,-1.8614,0.0,0.0,0.0,0.0,0.0,0.0,0.0,0.0,-2.4202,-2.4202,-2.4202,-2.4202,-2.4202,-2.4202,-2.4202,-2.4202,-2.4202,-2.4202,-2.4202,-2.4202,-2.3646,-2.3238,-2.2828,-2.1497,-2.0711,-2.0272,-1.8577,-1.7722,0.0,-1.6555,-1.6066,-1.5891,-1.5891,-1.5891,-1.5891,-1.5891,-1.5891,-1.5832,-1.5512,-1.4099,-1.2358,-1.2032,-1.0515,-0.8885,-0.8885,-0.8885,-0.8885,-0.8885,-0.8885,-0.8885,-0.8885,-0.8885,-0.8885,-0.8885,-0.8885,-0.8854,-0.8801,-0.8394,-0.8024,-0.773,-0.7281,-0.6951,-0.6809,-0.4906,-0.3425,-0.3425,-0.1454,0.0,0.0,0.0,0.0,0.0,0.0,0.0,0.0,0.0,0.0,0.0,0.0,0.0,0.0,0.0,0.0,0.0,0.0,0.0,0.0,0.0,0.0,0.0,0.0,0.0,-2.381,-2.4568,-2.5061,-2.5589,-2.3824,-2.1594,0.0,-1.7485,-1.4941,-1.3256,-1.2588,-1.2249,-1.2126,-1.2422,-1.2836,-1.3231,-1.4313,-1.5661,-1.7266,-1.854,0.0,0.0,0.0,0.0,0.0,0.0,0.0,0.0,-2.4202,0.0,-2.4202,-2.4202,-2.4202,-2.4202,-2.4202,-2.4202,-2.4202,-2.4202,-2.4202,-2.4202,-2.3646,-2.2828,-2.1684,-2.114,-1.9702,-1.7641,-1.7589,-1.6955,0.0,-1.5891,-1.5891,-1.5891,-1.5891,-1.5891,-1.5891,-1.5891,-1.5891,-1.5731,-1.46,-1.3398,-1.2195,-1.1055,-0.9915,-0.8885,-0.8885,-0.8885,-0.8885,-0.8885,-0.8885,-0.8885,-0.8885,-0.8885,-0.8885,-0.8885,-0.8885,-0.8885,-0.8881,-0.8709,-0.8384,-0.7973,-0.7624,-0.7263,-0.6876,-0.4903,-0.3379,-0.3379,-0.1439,0.0,0.0,0.0,0.0,0.0,0.0,0.0,0.0,0.0,0.0,0.0,0.0,0.0,0.0,0.0,0.0,0.0,0.0,0.0,0.0,0.0,0.0,0.0,0.0,0.0,-2.208,-2.2683,-2.2846,-2.2561,-2.0979,-1.9156,-1.7989,-1.5837,-1.3867,-1.307,-1.2503,-1.215,-1.2101,-1.2202,-1.2514,-1.3186,-1.4084,0.0,0.0,0.0,0.0,0.0,0.0,0.0,0.0,0.0,0.0,-2.4202,-2.4202,-2.4202,-2.4202,-2.4202,-2.4202,-2.4202,-2.4202,-2.4202,-2.4202,-2.4202,-2.4202,-2.4202,-2.3038,-2.2215,-2.1633,-1.979,-1.8454,-1.7582,-1.6789,-1.6205,-1.5891,-1.5891,-1.5891,-1.5891,-1.5891,-1.5891,-1.5891,-1.5891,-1.5891,-1.5731,-1.46,-1.3403,-1.2195,-1.1051,-0.986,-0.8885,-0.8885,-0.8885,-0.8885,-0.8885,-0.8885,-0.8885,-0.8885,-0.8885,-0.8885,-0.8885,-0.8885,-0.8885,-0.8885,-0.8712,-0.8416,-0.8045,-0.7709,-0.7422,-0.7103,-0.5084,-0.3552,-0.3552,-0.1507,0.0,0.0,0.0,0.0,0.0,0.0,0.0,0.0,0.0,0.0,0.0,0.0,0.0,0.0,0.0,0.0,0.0,0.0,0.0,0.0,0.0,0.0,0.0,0.0,0.0,0.0,-2.0387,-2.052,-2.0193,-1.8786,-1.7246,-1.643,-1.4707,-1.3159,-1.2689,-1.2326,-1.2101,-1.2101,-1.2358,-1.2781,-1.3406,-1.446,0.0,0.0,0.0,0.0,0.0,0.0,0.0,0.0,0.0,0.0,-2.4202,-2.4202,-2.4202,-2.4202,-2.4202,-2.4202,-2.4202,-2.4202,-2.4202,-2.4202,-2.3795,-2.3538,-2.3538,-2.2173,-2.114,-2.04,-1.8753,-1.7621,-1.6895,-1.6205,-1.5891,0.0,-1.5891,-1.5891,-1.5891,-1.5891,-1.5891,-1.5891,-1.5891,-1.5891,-1.5672,-1.4051,-1.3019,-1.2146,-1.0566,-0.9537,-0.8885,-0.8885,-0.8885,-0.8885,-0.8885,-0.8885,-0.8885,-0.8885,-0.8885,-0.8885,-0.8885,-0.8885,-0.8885,-0.8885,-0.8768,-0.8543,-0.81,-0.7878,-0.766,-0.7265,-0.5198,-0.358,-0.358,-0.1567,0.0,0.0,0.0,0.0,0.0,0.0,0.0,0.0,0.0,0.0,0.0,0.0,0.0,0.0,0.0,0.0,0.0,0.0,0.0,0.0,0.0,0.0,0.0,0.0,0.0,0.0,-1.7707,-1.802,-1.8311,-1.7132,-1.5764,-1.5245,-1.3944,0.0,-1.2199,-1.2101,-1.211,-1.2138,-1.2736,-1.3396,-1.3883,0.0,0.0,0.0,0.0,0.0,0.0,0.0,0.0,0.0,0.0,0.0,-2.4202,-2.4202,-2.4202,-2.4202,-2.4102,-2.4102,-2.4202,-2.4053,-2.4044,-2.4202,-2.3088,-2.2476,-2.2476,-2.1097,-1.9694,-1.8447,-1.8087,-1.7199,0.0,-1.5891,-1.5891,-1.5891,-1.5891,-1.5891,-1.5891,-1.5891,-1.5891,-1.5891,-1.5891,-1.5891,-1.5565,-1.3231,-1.2417,-1.2037,-0.9647,-0.8885,-0.8885,-0.8885,-0.8885,-0.8885,-0.8885,-0.8885,-0.8885,-0.8885,-0.8885,-0.8885,-0.8885,-0.8885,-0.8885,-0.8885,-0.8885,-0.8716,-0.81,-0.7989,-0.7823,-0.7265,-0.5198,-0.358,-0.358,-0.1567,0.0,0.0,0.0,0.0,0.0,0.0,0.0,0.0,0.0,0.0,0.0,0.0,0.0,0.0,0.0,0.0,0.0,0.0,0.0,0.0,0.0,0.0,0.0,0.0,0.0,-1.3937,0.0,-1.5429,-1.5423,-1.4687,-1.3863,0.0,-1.2921,-1.2395,-1.2144,-1.2101,-1.2193,-1.2496,-1.2707,-1.3185,-1.4194,0.0,0.0,0.0,0.0,0.0,0.0,0.0,0.0,0.0,0.0,-2.4202,-2.4202,-2.4202,-2.4202,-2.4202,-2.3388,-2.3288,-2.4152,-2.2568,-2.2467,-2.4202,-2.3088,-2.2476,-2.2476,-2.0467,-1.9228,-1.8662,-1.7516,-1.6736,-1.6164,-1.5998,-1.5891,-1.5891,-1.5891,-1.5891,-1.5891,-1.5891,-1.5891,-1.5891,-1.5891,-1.5891,-1.5565,-1.3231,-1.2417,-1.2037,-0.9647,-0.8885,-0.8885,-0.8885,-0.8885,-0.8885,-0.8885,-0.8885,-0.8885,-0.8885,-0.8885,-0.8885,-0.8885,-0.8885,-0.8885,-0.8885,-0.8885,-0.8716,-0.81,-0.7989,-0.7823,-0.7265,-0.5198,-0.358,-0.358,-0.1567,0.0,0.0,0.0,0.0,0.0,0.0,0.0,0.0,0.0,0.0,0.0,0.0,0.0,0.0,0.0,0.0,0.0,0.0,0.0,0.0,0.0,0.0,0.0,0.0,0.0,-1.2599,-1.3258,-1.3875,-1.3981,-1.3542,-1.3086,-1.2922,-1.2537,-1.2175,0.0,0.0,-1.2496,-1.2909,-1.3286,0.0,0.0,-1.6001,0.0,0.0,0.0,0.0,0.0,0.0,0.0,0.0,0.0,-2.4202,-2.4202,-2.4202,-2.3954,-2.3438,-2.2828,-2.2778,-2.3388,-2.1802,-2.17,-2.3388,-2.1802,-2.0979,-2.0979,-1.928,-1.8304,-1.8048,-1.71,-1.6524,-1.6271,-1.5998,-1.5891,-1.5891,-1.5891,-1.5891,-1.5891,-1.5891,-1.5891,-1.5891,-1.5891,-1.5891,-1.5565,-1.3231,-1.171,-1.057,-0.932,-0.8885,-0.8885,-0.8885,-0.8885,-0.8885,-0.8885,-0.8885,-0.8885,-0.8885,-0.8885,-0.8885,-0.8885,-0.8885,-0.8885,-0.8885,-0.8885,-0.8716,-0.81,-0.7989,-0.7654,-0.6541,-0.481,-0.3413,-0.2854,-0.1176,0.0,0.0,0.0,0.0,0.0,0.0,0.0,0.0,0.0,0.0,0.0,0.0,0.0,0.0,0.0,0.0,0.0,0.0,0.0,0.0,0.0,0.0,0.0,0.0,0.0,-1.2015,-1.2553,-1.3066,-1.3419,-1.3233,-1.2973,-1.2973,0.0,0.0,0.0,0.0,0.0,0.0,-1.4093,0.0,0.0,0.0,0.0,0.0,0.0,0.0,0.0,0.0,0.0,0.0,0.0,-2.4029,-2.3945,-2.3945,-2.3438,-2.2325,-2.2114,-2.2064,-2.2274,-2.1038,-2.0936,-2.2013,-2.0151,-1.9176,-1.9176,-1.8101,-1.7483,-1.7179,-1.6842,-1.6524,-1.6271,0.0,0.0,-1.5891,-1.5891,-1.5891,-1.5891,-1.5891,-1.5891,-1.5891,-1.5891,-1.5891,-1.5565,-1.3231,-1.0844,-0.8885,-0.8885,-0.8885,-0.8885,-0.8885,-0.8885,-0.8885,-0.8885,-0.8885,-0.8885,-0.8885,-0.8885,-0.8885,-0.8885,-0.8885,-0.8885,-0.8885,-0.8885,-0.8716,-0.81,-0.7989,-0.7432,-0.5706,-0.4419,-0.3189,-0.1959,-0.0784,0.0,0.0,0.0,0.0,0.0,0.0,0.0,0.0,0.0,0.0,0.0,0.0,0.0,0.0,0.0,0.0,0.0,0.0,0.0,0.0,0.0,0.0,0.0,0.0,0.0,-1.1271,-1.2082,-1.295,-1.3398,-1.3366,-1.3249,-1.3249,0.0,0.0,0.0,0.0,0.0,0.0,-1.4698,0.0,0.0,0.0,0.0,0.0,0.0,0.0,0.0,0.0,0.0,0.0,0.0,-2.3385,-2.2811,-2.2778,-2.2274,-2.1191,-2.021,-2.0158,-2.114,-1.9183,-1.861,-1.9694,-1.9383,-1.9176,-1.9176,-1.8101,-1.7483,-1.7179,-1.6842,-1.6524,-1.6271,0.0,-1.5891,-1.5891,-1.5891,-1.5891,-1.5891,-1.5891,-1.5891,-1.5891,-1.5891,-1.5891,-1.5565,-1.3231,-1.0844,-0.8885,-0.8885,-0.8885,-0.8885,-0.8885,-0.8885,-0.8885,-0.8885,-0.8885,-0.8885,-0.8885,-0.8885,-0.8885,-0.8885,-0.8885,-0.8885,-0.8885,-0.8885,-0.8716,-0.81,-0.7989,-0.7432,-0.5706,-0.4419,-0.3189,-0.1959,-0.0784,0.0,0.0,0.0,0.0,0.0,0.0,0.0,0.0,0.0,0.0,0.0,0.0,0.0,0.0,0.0,0.0,0.0,0.0,0.0,0.0,0.0,0.0,0.0,0.0,0.0,-1.126,-1.2057,-1.2962,-1.3829,-1.3838,-1.3671,-1.3901,-1.3782,0.0,0.0,0.0,0.0,0.0,0.0,0.0,0.0,0.0,0.0,0.0,0.0,0.0,0.0,0.0,0.0,0.0,0.0,-2.2311,-2.1999,-2.1468,-2.0758,-1.9832,-1.9279,-1.9309,-1.9945,-1.8408,-1.8094,-1.9176,-1.861,-1.8356,-1.8356,-1.7838,-1.7483,-1.7179,-1.6842,-1.6524,-1.6271,0.0,-1.5891,-1.5891,-1.5891,-1.5891,-1.5891,-1.5891,-1.5891,-1.5838,-1.519,-1.4589,-1.3771,-1.2087,-1.0351,-0.8885,-0.8885,-0.8885,-0.8885,-0.8885,-0.8885,-0.8885,-0.8885,-0.8885,-0.8885,-0.8885,-0.8885,-0.8885,-0.8885,-0.8885,-0.8885,-0.8885,-0.8885,-0.8716,-0.81,-0.7989,-0.7432,-0.5706,-0.4419,-0.3189,-0.1959,-0.0784,0.0,0.0,0.0,0.0,0.0,0.0,0.0,0.0,0.0,0.0,0.0,0.0,0.0,0.0,0.0,0.0,0.0,0.0,0.0,0.0,0.0,0.0,0.0,0.0,0.0,-1.1246,-1.1984,-1.2827,-1.3937,0.0,-1.4093,-1.4891,-1.468,0.0,0.0,0.0,0.0,0.0,0.0,0.0,0.0,0.0,0.0,0.0,0.0,0.0,0.0,0.0,0.0,0.0,-2.1789,-2.1198,-2.0795,-2.0079,-1.9219,-1.8376,-1.829,-1.8404,-1.859,-1.7836,-1.7818,-1.8704,-1.7946,-1.7515,-1.7582,-1.7529,-1.7378,-1.7067,-1.6736,-1.6471,-1.6164,-1.5998,-1.5891,-1.5891,-1.5891,-1.5891,-1.5891,-1.5891,-1.5731,-1.5405,-1.4546,-1.329,-1.1869,-1.1,-0.9915,-0.8885,-0.8885,-0.8885,-0.8885,-0.8885,-0.8885,-0.8885,-0.8885,-0.8885,-0.8885,-0.8885,-0.8885,-0.8885,-0.8885,-0.8885,-0.8885,-0.8885,-0.8885,-0.8716,-0.81,-0.7989,-0.7376,-0.5314,-0.4196,-0.3078,-0.1623,-0.0616,0.0,0.0,0.0,0.0,0.0,0.0,0.0,0.0,0.0,0.0,0.0,0.0,0.0,0.0,0.0,0.0,0.0,0.0,0.0,0.0,0.0,0.0,0.0,0.0,0.0,-1.0827,-1.1522,-1.2349,-1.3176,-1.3635,0.0,-1.6294,-1.612,0.0,-1.755,0.0,0.0,0.0,0.0,0.0,0.0,0.0,0.0,0.0,0.0,0.0,0.0,0.0,0.0,0.0,-2.0976,-2.0303,-1.8746,-1.8572,-1.8044,-1.6934,-1.6834,-1.6841,-1.6867,-1.6817,-1.6951,-1.7329,-1.7284,-1.7367,-1.7582,-1.7331,-1.706,-1.6736,-1.6424,-1.6158,-1.5945,-1.5891,-1.5891,-1.5891,-1.5891,-1.5891,-1.5891,-1.5891,-1.5244,-1.4331,-1.4223,-1.2748,-1.0836,-1.0726,-0.9915,-0.8885,-0.8885,-0.8885,-0.8885,-0.8885,-0.8885,-0.8885,-0.8885,-0.8885,-0.8885,-0.8885,-0.8885,-0.8885,-0.8885,-0.8885,-0.8885,-0.8885,-0.8885,-0.8716,-0.81,-0.7989,-0.7093,-0.425,-0.3636,-0.2797,-0.0504,-0.0056,0.0,0.0,0.0,0.0,0.0,0.0,0.0,0.0,0.0,0.0,0.0,0.0,0.0,0.0,0.0,0.0,0.0,0.0,0.0,0.0,0.0,0.0,0.0,0.0,0.0,-1.0726,-1.1476,-1.2358,-1.3424,-1.3974,0.0,0.0,-1.667,-1.6899,-1.8522,-1.8733,0.0,0.0,0.0,0.0,0.0,0.0,0.0,0.0,0.0,0.0,0.0,0.0,0.0,0.0,-1.9041,-1.8402,-1.7772,-1.7165,-1.6676,-1.6476,-1.6433,-1.652,-1.67,-1.6707,-1.676,-1.6874,-1.6874,-1.6927,-1.7041,-1.716,-1.7014,-1.6677,-1.6424,-1.6164,-1.5891,-1.5891,-1.5891,-1.5891,-1.5891,-1.5891,-1.5891,-1.5891,-1.519,-1.411,-1.3349,-1.2091,-1.0562,-0.986,-0.9261,-0.8885,-0.8885,-0.8885,-0.8885,-0.8885,-0.8885,-0.8885,-0.8885,-0.8885,-0.8885,-0.8885,-0.8885,-0.8885,-0.8885,-0.8885,-0.8885,-0.8885,-0.8885,-0.8716,-0.81,-0.7989,-0.7318,-0.5089,-0.4083,-0.3022,-0.1344,-0.0504,0.0,0.0,0.0,0.0,0.0,0.0,0.0,0.0,0.0,0.0,0.0,0.0,0.0,0.0,0.0,0.0,0.0,0.0,0.0,0.0,0.0,0.0,0.0,0.0,0.0,-1.0726,-1.1476,-1.2395,-1.3608,0.0,0.0,-1.7046,-1.7376,-1.7779,-1.9512,-1.9769,0.0,0.0,0.0,0.0,0.0,0.0,0.0,0.0,0.0,0.0,0.0,0.0,0.0,0.0,-1.7692,-1.7185,-1.6857,-1.6204,-1.5919,-1.6119,-1.6132,-1.6226,-1.642,-1.6426,-1.6473,-1.6567,-1.6567,-1.6564,-1.657,-1.671,-1.6691,-1.6423,-1.615,-1.5929,-1.5771,-1.5855,-1.5891,-1.5891,-1.5891,-1.5891,-1.5891,-1.5891,-1.497,-1.3511,-1.2689,-1.1437,-1.0021,-0.921,-0.8885,-0.8885,-0.8885,-0.8885,-0.8885,-0.8885,-0.8885,-0.8885,-0.8885,-0.8885,-0.8885,-0.8885,-0.8885,-0.8885,-0.8885,-0.8885,-0.8881,-0.8771,-0.8768,-0.8602,-0.7989,-0.7543,-0.676,-0.5089,-0.3804,-0.2629,-0.14,-0.0504,0.0,0.0,0.0,0.0,0.0,0.0,0.0,0.0,0.0,0.0,0.0,0.0,0.0,0.0,0.0,0.0,0.0,0.0,0.0,0.0,0.0,0.0,0.0,0.0,0.0,-1.0809,-1.1509,-1.2404,0.0,0.0,0.0,-1.8164,-1.8374,-1.8658,-2.0704,0.0,-2.0521,-2.0521,0.0,0.0,0.0,0.0,0.0,0.0,0.0,0.0,0.0,0.0,0.0,0.0,0.0,-1.6857,-1.5872,-1.5784,-1.5784,-1.5784,-1.5784,-1.5784,-1.5784,-1.5784,-1.5972,-1.6315,-1.6321,-1.6321,-1.6312,-1.6004,-1.5903,-1.5865,-1.563,-1.5493,-1.5511,-1.5771,-1.5885,-1.5885,-1.5885,-1.5885,-1.5885,-1.5885,-1.4476,-1.2358,-1.2358,-1.0895,-0.8881,-0.8881,-0.8881,-0.8881,-0.8885,-0.8885,-0.8885,-0.8885,-0.8885,-0.8885,-0.8885,-0.8885,-0.8885,-0.8885,-0.8885,-0.8885,-0.8885,-0.8885,-0.8826,-0.8543,-0.8484,-0.8322,-0.7715,-0.6652,-0.5308,-0.386,-0.2574,-0.14,-0.0168,0.0,0.0,0.0,0.0,0.0,0.0,0.0,0.0,0.0,0.0,0.0,0.0,0.0,0.0,0.0,0.0,0.0,0.0,0.0,0.0,0.0,0.0,0.0,0.0,0.0,0.0,-1.1476,-1.2119,0.0,-1.4359,0.0,0.0,0.0,-1.8834,0.0,0.0,0.0,-2.0934,-2.0934,0.0,0.0,0.0,0.0,0.0,0.0,0.0,0.0,0.0,0.0,0.0,0.0,0.0,-1.6109,-1.5825,-1.5784,-1.5784,-1.5784,-1.5784,-1.5784,-1.5784,-1.5784,-1.5872,-1.5959,-1.5965,-1.5957,-1.5948,-1.5519,-1.543,-1.5601,-1.5338,-1.5228,-1.5228,-1.5306,-1.5342,-1.5342,-1.5342,-1.4972,-1.4434,-1.4434,-1.3085,-1.1202,-1.1078,-1.0066,-0.8777,-0.8777,-0.8777,-0.8798,-0.8848,-0.8885,-0.8885,-0.8885,-0.8885,-0.8885,-0.8885,-0.8885,-0.8885,-0.8885,-0.8885,-0.8885,-0.8885,-0.8885,-0.8881,-0.8826,-0.8654,-0.8377,-0.7934,-0.676,-0.5308,-0.386,-0.2574,-0.14,-0.0168,0.0,0.0,0.0,0.0,0.0,0.0,0.0,0.0,0.0,0.0,0.0,0.0,0.0,0.0,0.0,0.0,0.0,0.0,0.0,0.0,0.0,0.0,0.0,0.0,0.0,0.0,-1.1816,-1.2634,0.0,-1.5175,-1.6367,-1.7541,-1.9081,0.0,0.0,0.0,0.0,-2.1163,0.0,0.0,0.0,0.0,0.0,0.0,0.0,0.0,0.0,0.0,0.0,0.0,0.0,0.0,-1.5784,-1.5784,-1.5784,-1.5784,-1.5784,-1.5784,-1.5784,-1.5784,-1.5784,-1.5784,-1.5784,-1.5784,-1.5778,-1.5683,-1.5267,-1.511,-1.5177,-1.5002,-1.495,-1.4956,-1.5065,-1.5107,-1.5056,-1.4638,-1.4156,-1.3658,-1.3242,-1.2006,-1.0502,-1.04,-0.9621,-0.8618,-0.8618,-0.8618,-0.8635,-0.8726,-0.8798,-0.8849,-0.8849,-0.8838,-0.8885,-0.8885,-0.8885,-0.8885,-0.8885,-0.8885,-0.8885,-0.8885,-0.8826,-0.8712,-0.8546,-0.8325,-0.8045,-0.7768,-0.6202,-0.4641,-0.3748,-0.2183,-0.084,-0.0112,0.0,0.0,0.0,0.0,0.0,0.0,0.0,0.0,0.0,0.0,0.0,0.0,0.0,0.0,0.0,0.0,0.0,0.0,0.0,0.0,0.0,0.0,0.0,0.0,0.0,0.0309,-1.1938,0.0,0.0,-1.5977,-1.7003,0.0,-1.9966,0.0,-2.1,-2.156,0.0,0.0,0.0,0.0,0.0,0.0,0.0,0.0,0.0,0.0,0.0,0.0,0.0,0.0,0.0,0.0,0.0,-1.5784,-1.5784,-1.5784,-1.5784,-1.5784,-1.5784,-1.5784,-1.5784,-1.5784,-1.5784,-1.5784,-1.573,-1.554,-1.522,-1.4981,-1.4748,-1.471,-1.4678,-1.469,-1.4825,-1.4877,-1.4776,-1.3745,-1.3247,-1.3058,-1.2135,-1.1061,-1.0036,-1.002,-0.9395,-0.8462,-0.8462,-0.8462,-0.8465,-0.8479,-0.8577,-0.8689,-0.8689,-0.8798,-0.8861,-0.8861,-0.8871,-0.8881,-0.8881,-0.8881,-0.8881,-0.8826,-0.8654,-0.8429,-0.8045,-0.7771,-0.7493,-0.7154,-0.5198,-0.358,-0.3469,-0.1512,0.0,0.0,0.0,0.0,0.0,0.0,0.0,0.0,0.0,0.0,0.0,0.0,0.0,0.0,0.0,0.0,0.0,0.0,0.0,0.0,0.0,0.0,0.0,0.0,0.0,0.0,0.0,0.074,-1.2346,-1.3447,0.0,0.0,-1.7792,-1.8565,-1.9321,-1.9201,-1.9432,0.0,0.0,0.0,0.0,0.0,0.0,0.0,0.0,0.0,0.0,0.0,0.0,0.0,0.0,0.0,0.0,0.0,0.0,-1.5784,-1.5784,-1.5784,-1.5784,-1.5784,-1.5784,-1.5784,-1.5784,-1.5784,-1.5784,-1.5784,-1.5784,-1.573,-1.5315,-1.5083,-1.4987,-1.4557,-1.4389,-1.434,-1.3556,-1.3231,-1.3133,-1.2097,-1.1256,-1.0594,-1.0344,-0.9713,-0.8832,-0.8767,-0.857,-0.8368,-0.8368,-0.8368,-0.8385,-0.8445,-0.8506,-0.853,-0.853,-0.8638,-0.876,-0.876,-0.8845,-0.8826,-0.8654,-0.8598,-0.8543,-0.8269,-0.8377,-0.8429,-0.8045,-0.7771,-0.7326,-0.6313,-0.4752,-0.3301,-0.2351,-0.0953,0.0,0.0,0.0,0.0,0.0,0.0,0.0,0.0,0.0,0.0,0.0,0.0,0.0,0.0,0.0,0.0,0.0,0.0,0.0,0.0,0.0,0.0,0.0,0.0,0.0,0.0,0.0,0.074,-1.1809,0.0,0.0,-1.6661,0.0,-1.8631,-1.887,-1.811,0.0,0.0,0.0,0.0,0.0,0.0,0.0,0.0,0.0,0.0,0.0,0.0,0.0,0.0,0.0,0.0,0.0,0.0,0.0,-1.5784,-1.5784,-1.5784,-1.5784,-1.5784,-1.5784,-1.5784,-1.5784,-1.5784,-1.5784,-1.5784,-1.5737,-1.5635,-1.5267,-1.4688,-1.3956,-1.3661,-1.327,-1.278,-1.2242,-1.1999,-1.1901,-1.0877,-1.0156,-0.965,-0.9152,-0.8653,-0.8262,-0.8187,-0.816,-0.816,-0.816,-0.816,-0.8174,-0.8245,-0.8319,-0.8381,-0.8381,-0.8482,-0.8601,-0.8445,-0.8497,-0.8558,-0.8275,-0.8216,-0.8208,-0.7881,-0.7937,-0.8048,-0.7826,-0.7157,-0.6376,-0.5759,-0.4083,-0.2519,-0.1903,-0.0784,0.0,0.0,0.0,0.0,0.0,0.0,0.0,0.0,0.0,0.0,0.0,0.0,0.0,0.0,0.0,0.0,0.0,0.0,0.0,0.0,0.0,0.0,0.0,0.0,0.0,0.0,0.0664,0.1653,-1.0881,0.0,-1.3752,-1.6196,-1.7369,0.0,-1.8012,0.0,0.0,0.0,0.0,0.0,0.0,0.0,0.0,0.0,0.0,0.0,0.0,0.0,0.0,0.0,0.0,0.0,0.0,0.0,0.0,-1.5784,-1.5784,-1.5784,-1.5784,-1.5784,-1.5784,-1.5784,-1.5784,-1.5784,-1.5784,-1.5784,-1.5642,-1.5493,-1.4975,-1.3956,-1.2436,-1.2242,-1.1804,-1.117,-1.0974,-1.0925,-1.0828,-0.9756,-0.9312,-0.9217,-0.8333,-0.7988,-0.7988,-0.7988,-0.7988,-0.7988,-0.7988,-0.7988,-0.7988,-0.7988,-0.8126,-0.8231,-0.8231,-0.8333,-0.8393,-0.8135,-0.8186,-0.8195,-0.7891,-0.7871,-0.7796,-0.7321,-0.7215,-0.7271,-0.7493,-0.6432,-0.5316,-0.5146,-0.3134,-0.1512,-0.1512,-0.0672,0.0,0.0,0.0,0.0,0.0,0.0,0.0,0.0,0.0,0.0,0.0,0.0,0.0,0.0,0.0,0.0,0.0,0.0,0.0,0.0,0.0,0.0,0.0,0.0,0.0,0.0059,0.1374,0.2666,0.0,0.0,-1.4561,0.0,-1.5677,-1.5475,0.0,0.0,0.0,0.0,0.0,0.0,0.0,0.0,0.0,0.0,0.0,0.0,0.0,0.0,0.0,0.0,0.0,0.0,0.0,0.0,0.0,-1.5784,-1.5784,-1.5784,-1.5784,-1.5784,-1.5784,-1.5784,-1.5784,-1.5784,-1.5784,-1.5635,-1.554,-1.5493,-1.404,-1.2684,-1.1365,-1.044,-1.044,-1.117,-1.0243,-0.9805,-0.9756,-0.8676,-0.8237,-0.8187,-0.8038,-0.7988,-0.7988,-0.7988,-0.7988,-0.7988,-0.7988,-0.7988,-0.7988,-0.7988,-0.8005,-0.8019,-0.8019,-0.8177,-0.8244,-0.7984,-0.8037,-0.8017,-0.76,-0.7479,-0.719,-0.5964,-0.5706,-0.5984,-0.7043,-0.6262,-0.5091,-0.4029,-0.1903,-0.0224,-0.0224,-0.0112,0.0,0.0,0.0,0.0,0.0,0.0,0.0,0.0,0.0,0.0,0.0,0.0,0.0,0.0,0.0,0.0,0.0,0.0,0.0,0.0,0.0,0.0,0.0,0.0,0.0,0.0058,0.1367,0.2711,-0.9421,-1.1435,-1.3316,0.0,-1.4456,-1.4587,0.0,0.0,0.0,0.0,0.0,0.0,0.0,0.0,0.0,0.0,0.0,0.0,0.0,0.0,0.0,0.0,0.0,0.0,0.0,0.0,0.0,0.0,-1.5784,-1.5784,-1.5784,-1.5784,-1.5784,-1.5784,-1.5784,-1.5737,-1.5635,-1.554,-1.5057,-1.4136,-1.2091,-1.0828,-1.0293,-0.9217,-0.897,-0.9361,-0.892,-0.8726,-0.8676,-0.8187,-0.7988,-0.7988,-0.7988,-0.7988,-0.7988,-0.7988,-0.7988,-0.7988,-0.7988,-0.7988,-0.7988,-0.7988,-0.7988,-0.7988,-0.7988,-0.8039,-0.8039,-0.7629,-0.7581,-0.744,-0.6338,-0.6131,-0.588,-0.4667,-0.4412,-0.4534,-0.5077,-0.4249,-0.3022,-0.1791,-0.0728,0.0,0.0,0.0,0.0,0.0,0.0,0.0,0.0,0.0,0.0,0.0,0.0,0.0,0.0,0.0,0.0,0.0,0.0,0.0,0.0,0.0,0.0,0.0,0.0,0.0,0.0,0.0,0.0342,0.1034,0.2408,0.3755,0.0,0.0,-1.1568,-1.2454,-1.304,-1.3598,0.0,0.0,0.0,0.0,0.0,0.0,0.0,0.0,0.0,0.0,0.0,0.0,0.0,0.0,0.0,0.0,0.0,0.0,0.0,0.0,0.0,0.0,-1.5784,-1.5784,-1.5784,-1.5784,-1.5784,-1.5784,-1.5737,-1.5635,-1.5493,-1.5105,-1.4232,-1.2974,-1.0681,-0.9608,-0.9558,-0.8525,-0.8099,-0.8096,-0.8008,-0.7988,-0.7988,-0.7988,-0.7988,-0.7988,-0.7988,-0.7988,-0.7988,-0.7988,-0.7988,-0.7988,-0.7988,-0.7988,-0.7988,-0.7988,-0.7988,-0.7988,-0.7988,-0.7939,-0.7793,-0.7338,-0.7006,-0.6575,-0.5317,-0.4856,-0.445,-0.3399,-0.3153,-0.3123,-0.3122,-0.2462,-0.1456,-0.0224,0.0,0.0,0.0,0.0,0.0,0.0,0.0,0.0,0.0,0.0,0.0,0.0,0.0,0.0,0.0,0.0,0.0,0.0,0.0,0.0,0.0,0.0,0.0,0.0,0.0,0.0,0.0,0.0,0.062,0.1826,0.3256,0.4547,0.0,-0.8605,0.0,-1.0532,0.0,0.0,0.0,0.0,0.0,0.0,0.0,0.0,0.0,0.0,0.0,0.0,0.0,0.0,0.0,0.0,0.0,0.0,0.0,0.0,0.0,0.0,0.0,0.0,-1.5784,-1.5784,-1.5784,-1.5784,-1.5784,-1.5784,-1.5635,-1.5493,-1.5493,-1.3992,-1.3071,-1.2678,-1.0583,-0.9608,-0.9567,-0.869,-0.831,-0.8252,-0.8102,-0.7988,-0.7988,-0.7988,-0.7988,-0.7988,-0.7988,-0.7988,-0.7988,-0.7988,-0.7988,-0.7988,-0.7988,-0.7988,-0.7988,-0.7988,-0.7988,-0.7988,-0.7988,-0.7842,-0.7547,-0.7288,-0.6287,-0.5258,-0.5041,-0.4241,-0.3225,-0.2173,-0.1887,-0.1919,-0.1897,-0.1847,-0.1456,-0.0224,0.0,0.0,0.0,0.0,0.0,0.0,0.0,0.0,0.0,0.0,0.0,0.0,0.0,0.0,0.0,0.0,0.0,0.0,0.0,0.0,0.0,0.0,0.0,0.0,0.0,0.0,0.0,0.0,0.0617,0.1851,0.324,0.4521,0.0,0.0,0.0,-0.9552,0.0,0.0,0.0,0.0,0.0,0.0,0.0,0.0,0.0,0.0,0.0,0.0,0.0,0.0,0.0,0.0,0.0,0.0,0.0,0.0,0.0,0.0,0.0,0.0,-1.5551,-1.5631,-1.5771,-1.5784,-1.5784,-1.5784,-1.5588,-1.535,-1.4975,-1.2926,-1.1853,-1.1707,-0.9608,-0.8581,-0.8581,-0.8246,-0.8123,-0.8119,-0.8015,-0.8096,-0.8316,-0.8225,-0.8187,-0.8177,-0.8029,-0.7988,-0.7988,-0.7988,-0.7988,-0.7988,-0.7988,-0.7988,-0.7988,-0.7988,-0.7988,-0.7988,-0.7988,-0.7793,-0.7547,-0.7288,-0.6234,-0.4987,-0.4058,-0.305,-0.1994,-0.0886,-0.0637,-0.0648,-0.066,-0.0668,-0.0504,-0.0056,0.0,0.0,0.0,0.0,0.0,0.0,0.0,0.0,0.0,0.0,0.0,0.0,0.0,0.0,0.0,0.0,0.0,0.0,0.0,0.0,0.0,0.0,0.0,0.0,0.0,0.0,0.0,0.0,0.1008,0.2967,0.3549,0.4942,-0.6672,0.0,0.0,0.0,0.0,0.0,0.0,0.0,0.0,0.0,0.0,0.0,0.0,0.0,0.0,0.0,0.0,0.0,0.0,0.0,0.0,0.0,0.0,0.0,0.0,0.0,0.0,0.0,-1.5251,0.0,-1.5531,-1.5538,-1.5491,-1.5402,-1.5399,-1.5118,-1.4592,-1.2344,-1.1219,-1.117,-0.9019,-0.7988,-0.7992,-0.8092,-0.8116,-0.8119,-0.8167,-0.8241,-0.833,-0.8289,-0.8323,-0.831,-0.8157,-0.8116,-0.8109,-0.8008,-0.7988,-0.7988,-0.7988,-0.7988,-0.7988,-0.7988,-0.7988,-0.7988,-0.7988,-0.7743,-0.7444,-0.7238,-0.5932,-0.4327,-0.3425,-0.2116,-0.0862,-0.0155,0.0,0.0,0.0,0.0,0.0,0.0,0.0,0.0,0.0,0.0,0.0,0.0,0.0,0.0,0.0,0.0,0.0,0.0,0.0,0.0,0.0,0.0,0.0,0.0,0.0,0.0,0.0,0.0,0.0,0.0,0.0,0.0,0.0,0.0392,0.1623,0.3638,0.4178,0.5612,0.0,0.0,0.0,0.0,0.0,0.0,0.0,0.0,0.0,0.0,0.0,0.0,0.0,0.0,0.0,0.0,0.0,0.0,0.0,0.0,0.0,0.0,0.0,0.0,0.0,0.0,0.0,0.0,-1.4995,-1.4995,-1.5008,-1.5008,-1.4864,-1.4591,-1.4924,-1.4825,-1.4286,-1.2242,-1.1219,-1.117,-0.9019,-0.7988,-0.7995,-0.8197,-0.8313,-0.8323,-0.8411,-0.8306,-0.8002,-0.8208,-0.8323,-0.8323,-0.8323,-0.8323,-0.8252,-0.8106,-0.8002,-0.7995,-0.7995,-0.7992,-0.7988,-0.7988,-0.7988,-0.7988,-0.7988,-0.764,-0.7188,-0.7135,-0.5229,-0.3173,-0.3123,-0.1563,0.0,0.0,0.0,0.0,0.0,0.0,0.0,0.0,0.0,0.0,0.0,0.0,0.0,0.0,0.0,0.0,0.0,0.0,0.0,0.0,0.0,0.0,0.0,0.0,0.0,0.0,0.0,0.0,0.0,0.0,0.0,0.0,0.0,0.0,0.0056,0.1232,0.2407,0.3639,0.5088,0.6506,-0.6533,0.0,0.0,0.0,0.0,0.0,0.0,0.0,0.0,0.0,0.0,0.0,0.0,0.0,0.0,0.0,0.0,0.0,0.0,0.0,0.0,0.0,0.0,0.0,0.0,0.0,0.0,0.0,-1.4643,-1.4736,-1.4995,-1.4822,-1.4585,-1.4339,-1.444,-1.4356,-1.4014,-1.2164,-1.1219,-1.117,-0.9019,-0.7988,-0.7992,-0.8032,-0.8102,-0.8106,-0.8143,-0.8066,-0.8002,-0.8208,-0.8323,-0.8323,-0.8323,-0.8323,-0.833,-0.8336,-0.8296,-0.8208,-0.8208,-0.8133,-0.7988,-0.7988,-0.7988,-0.7942,-0.7793,-0.749,-0.6986,-0.6032,-0.4528,-0.2821,-0.1311,-0.0454,0.0,0.0,0.0,0.0,0.0,0.0,0.0,0.0,0.0,0.0,0.0,0.0,0.0,0.0,0.0,0.0,0.0,0.0,0.0,0.0,0.0,0.0,0.0,0.0,0.0,0.0,0.0,0.0,0.0,0.0,0.0,0.0,0.0,0.0448,0.1288,0.1623,0.2407,0.3639,0.5956,0.7302,0.0,0.0,0.0,0.0,0.0,0.0,0.0,-0.9212,0.0,0.0,0.0,0.0,0.0,0.0,0.0,0.0,0.0,0.0,0.0,0.0,0.0,0.0,0.0,0.0,0.0,-1.4242,-1.4342,-1.4342,-1.4342,-1.4372,-1.4451,-1.4438,-1.4275,-1.3913,-1.406,-1.3835,-1.3171,-1.175,-1.0849,-1.0413,-0.8791,-0.7988,-0.7988,-0.7988,-0.7988,-0.7988,-0.7988,-0.7988,-0.7995,-0.8136,-0.8211,-0.8323,-0.8323,-0.8323,-0.8333,-0.8364,-0.8391,-0.8323,-0.8323,-0.8211,-0.8126,-0.8012,-0.7988,-0.7889,-0.7138,-0.6734,-0.6229,-0.4924,-0.3572,-0.2116,-0.0454,0.0,0.0,0.0,0.0,0.0,0.0,0.0,0.0,0.0,0.0,0.0,0.0,0.0,0.0,0.0,0.0,0.0,0.0,0.0,0.0,0.0,0.0,0.0,0.0,0.0,0.0,0.0,0.0,0.0,0.0,0.0,0.0,0.0,0.0,0.084,0.2574,0.2574,0.3425,0.5201,0.6789,0.7584,-0.7856,-0.7905,0.0,0.0,-0.815,0.0,-0.8402,-0.8798,-0.9251,0.0,0.0,0.0,0.0,0.0,0.0,0.0,0.0,0.0,0.0,0.0,0.0,0.0,0.0,0.0,-1.3995,-1.4048,-1.4075,-1.4041,-1.4053,-1.3946,-1.3695,-1.3968,-1.393,-1.3455,-1.369,-1.3233,-1.2075,-1.1194,-1.0317,-0.9384,-0.8434,-0.7975,-0.7988,-0.7988,-0.7988,-0.7988,-0.7988,-0.7988,-0.7988,-0.7988,-0.8123,-0.8248,-0.8313,-0.8323,-0.8323,-0.834,-0.8337,-0.8323,-0.834,-0.8333,-0.8248,-0.8109,-0.7965,-0.7606,-0.6384,-0.5727,-0.5122,-0.377,-0.2416,-0.121,-0.0252,0.0,0.0,0.0,0.0,0.0,0.0,0.0,0.0,0.0,0.0,0.0,0.0,0.0,0.0,0.0,0.0,0.0,0.0,0.0,0.0,0.0,0.0,0.0,0.0,0.0,0.0,0.0,0.0,0.0,0.0,0.0,0.0,0.0,0.028,0.1456,0.358,0.3748,0.5019,0.7282,0.7462,0.7584,-0.8051,-0.7977,-0.7905,-0.7905,0.0,0.0,-0.8402,-0.8644,-0.8944,0.0,0.0,0.0,0.0,0.0,0.0,0.0,0.0,0.0,0.0,0.0,0.0,0.0,0.0,0.0,-1.3407,-1.3808,-1.3904,-1.35,-1.3687,-1.3763,-1.3489,-1.3572,-1.3492,-1.3181,-1.323,-1.2788,-1.1786,-1.1013,-1.0224,-0.9384,-0.8319,-0.7919,-0.7988,-0.7988,-0.7988,-0.7988,-0.7988,-0.7988,-0.7988,-0.7988,-0.8008,-0.8096,-0.8221,-0.8323,-0.8337,-0.8397,-0.837,-0.8337,-0.8401,-0.8367,-0.8316,-0.8235,-0.7655,-0.6811,-0.6208,-0.5227,-0.3974,-0.2417,-0.116,-0.0252,-0.0051,0.0,0.0,0.0,0.0,0.0,0.0,0.0,0.0,0.0,0.0,0.0,0.0,0.0,0.0,0.0,0.0,0.0,0.0,0.0,0.0,0.0,0.0,0.0,0.0,0.0,0.0,0.0,0.0,0.0,0.0,0.0,0.0,0.0,0.1903,0.3134,0.358,0.4587,0.581,0.7282,0.7462,0.7584,-0.8967,-0.8821,-0.8669,-0.8771,0.0,0.0,0.0,-0.8804,-0.8844,-0.8964,0.0,0.0,0.0,0.0,0.0,0.0,0.0,0.0,0.0,0.0,0.0,0.0,0.0,0.0,-1.2876,-1.3266,-1.3343,-1.299,-1.3246,-1.3355,-1.327,-1.3268,-1.3034,-1.2421,-1.2252,-1.1548,-1.0132,-0.984,-0.9259,-0.838,-0.7902,-0.7784,-0.7877,-0.7877,-0.7917,-0.7988,-0.7988,-0.7988,-0.7988,-0.7988,-0.7988,-0.7995,-0.8126,-0.8153,-0.8174,-0.8323,-0.8333,-0.8333,-0.835,-0.8377,-0.8312,-0.7618,-0.7078,-0.6441,-0.4906,-0.3397,-0.2016,-0.1059,-0.0404,0.0,0.0,0.0,0.0,0.0,0.0,0.0,0.0,0.0,0.0,0.0,0.0,0.0,0.0,0.0,0.0,0.0,0.0,0.0,0.0,0.0,0.0,0.0,0.0,0.0,0.0,0.0,0.0,0.0,0.0,0.0,0.0,0.0,0.028,0.0896,0.2686,0.3916,0.4475,0.5704,0.6626,0.7247,0.7372,0.7494,0.0,0.0,0.0,0.0,0.0,-0.9211,0.0,0.0,0.0,-0.8804,0.0,0.0,0.0,0.0,0.0,0.0,0.0,0.0,0.0,0.0,0.0,0.0,0.0,0.0,-1.207,-1.2183,-1.2272,-1.2301,-1.2305,-1.2369,-1.2439,-1.2504,-1.2149,-1.1375,-1.1158,-1.0236,-0.85,-0.8682,-0.8279,-0.7419,-0.7495,-0.7631,-0.777,-0.7797,-0.7879,-0.7948,-0.7978,-0.7988,-0.7988,-0.7988,-0.7988,-0.7988,-0.7988,-0.7988,-0.8005,-0.818,-0.8225,-0.8231,-0.831,-0.8347,-0.8268,-0.6932,-0.6269,-0.5525,-0.3209,-0.1536,-0.0354,-0.0051,0.0,0.0,0.0,0.0,0.0,0.0,0.0,0.0,0.0,0.0,0.0,0.0,0.0,0.0,0.0,0.0,0.0,0.0,0.0,0.0,0.0,0.0,0.0,0.0,0.0,0.0,0.0,0.0,0.0112,0.0336,0.0112,0.0112,0.0336,0.0336,0.0784,0.1791,0.3189,0.4419,0.5427,0.6599,0.721,0.7213,0.7279,0.7331,0.0,0.0,0.0,0.0,-0.9544,0.0,0.0,0.0,-0.8804,-0.8804,0.0,0.0,0.0,0.0,0.0,0.0,0.0,0.0,0.0,0.0,0.0,0.0,0.0,0.0,0.0,-1.027,-1.0384,-1.1135,-1.0328,-0.9882,-1.0097,-1.0305,-1.0332,-1.0086,-1.0062,-0.9536,-0.85,-0.8516,-0.8168,-0.7415,-0.7436,-0.7478,-0.7628,-0.7753,-0.7821,-0.7845,-0.7931,-0.7988,-0.7988,-0.7988,-0.7988,-0.7988,-0.7988,-0.7988,-0.7992,-0.8008,-0.8015,-0.8035,-0.8221,-0.8333,-0.8155,-0.7055,-0.5183,-0.3054,-0.1556,-0.0769,-0.0354,-0.0051,0.0,0.0,0.0,0.0,0.0,0.0,0.0,0.0,0.0,0.0,0.0,0.0,0.0,0.0,0.0,0.0,0.0,0.0,0.0,0.0,0.0,0.0,0.0,0.0,0.0,0.0,0.0,0.0,0.0448,0.1512,0.0616,0.0504,0.1567,0.1623,0.1679,0.1791,0.4029,0.526,0.5427,0.6599,0.721,0.7213,0.7279,0.7285,0.0,0.0,0.0,0.0,0.0,0.0,-0.9499,0.0,-0.8804,0.0,0.0,0.0,0.0,0.0,0.0,0.0,0.0,0.0,0.0,0.0,0.0,0.0,0.0,0.0,0.0,0.0,0.0,0.0,-0.9176,-0.9178,-0.9305,-0.9636,-0.9688,-0.9345,-0.9161,-0.8677,-0.7856,-0.776,-0.7524,-0.7238,-0.7238,-0.7319,-0.7468,-0.7529,-0.7604,-0.7695,-0.7841,-0.7909,-0.7913,-0.7955,-0.7988,-0.7988,-0.7988,-0.7988,-0.7988,-0.7988,-0.7988,-0.7998,-0.8113,-0.7782,-0.7084,-0.5369,-0.3514,-0.1841,-0.1094,-0.062,-0.0359,-0.0051,0.0,0.0,0.0,0.0,0.0,0.0,0.0,0.0,0.0,0.0,0.0,0.0,0.0,0.0,0.0,0.0,0.0,0.0,0.0,0.0,0.0,0.0,0.0,0.0,0.0,0.0,0.0,0.0,0.0504,0.1735,0.1344,0.1567,0.2797,0.2183,0.2463,0.386,0.4868,0.5761,0.6429,0.6932,0.721,0.7213,0.7206,0.7269,-1.1445,0.0,0.0,0.0,0.0,0.0,0.0,0.0,0.0,0.0,0.0,0.0,0.0,0.0,0.0,0.0,0.0,0.0,0.0,0.0,0.0,0.0,0.0,0.0,0.0,0.0,0.0,-0.7632,0.0,-0.7937,-0.8172,-0.8586,-0.8675,-0.8342,-0.8234,-0.7905,-0.7309,-0.7238,-0.7139,-0.7095,-0.7095,-0.7156,-0.7309,-0.7398,-0.7434,-0.7546,-0.7689,-0.7777,-0.7821,-0.788,-0.7951,-0.7988,-0.7988,-0.7988,-0.7988,-0.7988,-0.7988,-0.7942,-0.7637,-0.6763,-0.5527,-0.3882,-0.2414,-0.1223,-0.0945,-0.0628,-0.0366,-0.0052,0.0,0.0,0.0,0.0,0.0,0.0,0.0,0.0,0.0,0.0,0.0,0.0,0.0,0.0,0.0,0.0,0.0,0.0,0.0,0.0,0.0,0.0,0.0,0.0,0.0,0.0109,0.0445,0.0501,0.1003,0.2238,0.263,0.3022,0.358,0.3078,0.3636,0.5371,0.5706,0.6318,0.721,0.721,0.721,0.721,0.721,0.7201,0.0,0.0,0.0,-1.1382,0.0,0.0,0.0,0.0,-0.8804,0.0,0.0,0.0,0.0,0.0,0.0,0.0,0.0,0.0,0.0,0.0,0.0,0.0,0.0,0.0,0.0,0.0,-0.6038,0.0,-0.5758,-0.5491,-0.607,-0.64,-0.6709,-0.6975,-0.7262,-0.734,-0.7105,-0.7292,-0.7288,-0.7095,-0.7095,-0.7098,-0.7109,-0.7302,-0.7419,-0.7433,-0.7539,-0.7685,-0.7811,-0.7818,-0.7906,-0.7988,-0.7988,-0.7988,-0.7988,-0.7988,-0.7988,-0.7839,-0.6786,-0.5092,-0.3418,-0.3315,-0.2413,-0.1225,-0.0959,-0.064,-0.0319,-0.0052,0.0,0.0,0.0,0.0,0.0,0.0,0.0,0.0,0.0,0.0,0.0,0.0,0.0,0.0,0.0,0.0,0.0,0.0,0.0,0.0,0.0,0.0,0.0,0.0,0.0,0.0483,0.1636,0.1748,0.2255,0.3465,0.4643,0.4754,0.3636,0.4698,0.5314,0.5371,0.6541,0.7154,0.721,0.721,0.721,0.721,0.721,0.7213,0.0,0.0,-1.1884,-1.1679,0.0,0.0,0.0,0.0,0.0,0.0,0.0,0.0,0.0,0.0,0.0,0.0,0.0,0.0,0.0,0.0,0.0,0.0,0.0,0.0,0.0,0.0,0.0,0.0,-0.5257,0.0,-0.539,-0.6006,-0.6508,-0.677,-0.6973,-0.7197,-0.7441,-0.7295,-0.7244,-0.7292,-0.7146,-0.7095,-0.7098,-0.7149,-0.7217,-0.7227,-0.738,-0.7475,-0.7536,-0.7729,-0.7841,-0.7899,-0.7948,-0.7988,-0.7988,-0.7988,-0.754,-0.6686,-0.4878,-0.3843,-0.3103,-0.2393,-0.1754,-0.1208,-0.1169,-0.096,-0.0639,-0.0371,-0.0262,-0.0207,-0.0051,0.0,0.0,0.0,0.0,0.0,0.0,0.0,0.0,0.0,0.0,0.0,0.0,0.0,0.0,0.0,0.0,0.0,0.0,0.0,0.0,0.0,0.0628,0.1212,0.1608,0.3143,0.4284,0.4751,0.5146,0.5592,0.598,0.5592,0.5761,0.6596,0.6988,0.721,0.721,0.721,0.721,0.721,0.721,0.721,-1.3421,-1.2822,0.0,-1.2108,-1.1617,0.0,-1.0804,0.0,-0.994,0.0,0.0,0.0,0.0,0.0,0.0,0.0,0.0,0.0,0.0,0.0,0.0,0.0,0.0,0.0,0.0,0.0,-0.4768,-0.4411,-0.4875,0.0,0.0,-0.5796,-0.6315,-0.661,-0.6868,-0.7098,-0.7434,-0.735,-0.7326,-0.7415,-0.7272,-0.7221,-0.7221,-0.7122,-0.7095,-0.7102,-0.7244,-0.7319,-0.7436,-0.7634,-0.7767,-0.7828,-0.7931,-0.7988,-0.7988,-0.7988,-0.7086,-0.5579,-0.3825,-0.2973,-0.2521,-0.1818,-0.1484,-0.1355,-0.1327,-0.1179,-0.0969,-0.0538,-0.0374,-0.0316,-0.0051,0.0,0.0,0.0,0.0,0.0,0.0,0.0,0.0,0.0,0.0,0.0,0.0,0.0,0.0,0.0,0.0,0.0,0.0,0.0353,0.0558,0.0565,0.154,0.2326,0.2788,0.4681,0.5864,0.5985,0.6021,0.6374,0.7154,0.6429,0.6429,0.721,0.721,0.721,0.721,0.721,0.721,0.721,0.721,0.721]},{"header":{"parameterUnit":"m.s-1","parameterCategory":1,"la1":30.6,"la2":29.2853,"lo1":-89.7004,"lo2":-87.6739,"dy":0.0162,"dx":0.0183,"nx":112,"ny":82,"refTime":"2024-08-21T06:00:00:Z","depth":0,"parameterNumber":3,"parameterNumberName":"V-component_of_WINDS"},"data":[0.0,0.0,0.0,0.0,0.0,0.0,0.0,0.0,0.0,0.0,0.0,0.0,0.0,0.0,0.0,0.0,0.0,0.0,0.0,0.0,0.0,0.0,0.0,0.0,0.0,0.0,0.0,0.0,0.0,0.0,0.0,0.0,0.0,0.0,0.0,0.0,0.0,0.0,0.0,0.0,0.0,0.0,0.0,0.0,0.0,0.0,0.0,0.0,0.0,0.0,0.0,0.0,0.0,0.0,0.0,0.0,0.0,0.0,0.0,0.0,0.0,0.0,0.0,0.0,0.0,0.0,0.0,0.0,0.0,0.0,0.0,0.0,0.0,0.0,0.0,0.0,0.0,0.0,0.0,0.0,0.0,0.0,0.0,0.0,0.0,0.0,0.0,0.0,0.0,0.0,2.7325,3.1287,3.6557,3.98,3.9801,3.7461,3.4213,3.0042,0.0,0.0,0.0,0.0,0.0,0.0,0.0,0.0,0.0,0.0,0.0,0.0,0.0,0.0,0.0,0.0,0.0,0.0,0.0,0.0,0.0,0.0,0.0,0.0,0.0,0.0,0.0,0.0,0.0,0.0,0.0,0.0,0.0,0.0,0.0,0.0,0.0,0.0,0.0,0.0,0.0,0.0,0.0,0.0,0.0,0.0,0.0,0.0,0.0,0.0,0.0,0.0,0.0,0.0,0.0,0.0,0.0,0.0,0.0,0.0,0.0,0.0,0.0,0.0,0.0,0.0,0.0,0.0,0.0,0.0,0.0,0.0,0.0,0.0,0.0,0.0,0.0,0.0,0.0,0.0,0.0,0.0,0.0,0.0,0.0,0.0,0.0,0.0,0.0,0.0,0.0,0.0,0.0,0.0,0.0,0.0,0.0,0.0,0.0,0.0,0.0,0.0,0.0,0.0,2.9152,3.5532,3.8361,3.9792,3.9796,3.7461,3.4466,3.0842,0.0,0.0,0.0,0.0,0.0,0.0,0.0,0.0,0.0,0.0,0.0,0.0,0.0,0.0,0.0,0.0,0.0,0.0,0.0,0.0,0.0,0.0,0.0,0.0,0.0,0.0,0.0,0.0,0.0,0.0,0.0,0.0,0.0,0.0,0.0,0.0,0.0,0.0,0.0,0.0,0.0,0.0,0.0,0.0,0.0,0.0,0.0,0.0,0.0,0.0,0.0,0.0,0.0,0.0,0.0,0.0,0.0,0.0,0.0,0.0,0.0,0.0,0.0,0.0,0.0,0.0,0.0,0.0,0.0,0.0,0.0,0.0,0.0,0.0,0.0,0.0,0.0,0.0,0.0,0.0,0.0,0.0,0.0,0.0,0.0,0.0,0.0,0.0,0.0,0.0,0.0,0.0,0.0,0.0,0.0,0.0,0.0,0.0,0.0,0.0,0.0,0.0,0.0,2.8507,3.2292,3.7355,3.9433,4.0276,3.9838,3.7461,3.4329,3.0393,2.5707,0.0,0.0,0.0,0.0,0.0,0.0,0.0,0.0,0.0,0.0,0.0,0.0,0.0,0.0,0.0,0.0,0.0,0.0,0.0,0.0,0.0,0.0,0.0,0.0,0.0,0.0,0.0,0.0,0.0,0.0,0.0,0.0,0.0,0.0,0.0,0.0,0.0,0.0,0.0,0.0,0.0,0.0,0.0,0.0,0.0,0.0,0.0,0.0,0.0,0.0,0.0,0.0,0.0,0.0,0.0,0.0,0.0,0.0,0.0,0.0,0.0,0.0,0.0,0.0,0.0,0.0,0.0,0.0,0.0,0.0,0.0,0.0,0.0,0.0,0.0,0.0,0.0,0.0,0.0,0.0,0.0,0.0,0.0,0.0,0.0,0.0,0.0,0.0,0.0,0.0,0.0,0.0,0.0,0.0,0.0,0.0,0.0,0.0,0.0,0.0,0.0,0.0,3.1361,3.486,3.8144,4.0003,4.0611,3.9586,3.7168,3.3861,2.9554,2.5219,0.0,0.0,0.0,0.0,0.0,0.0,0.0,0.0,0.0,0.0,0.0,0.0,0.0,0.0,0.0,0.0,0.0,0.0,0.0,0.0,0.0,0.0,0.0,0.0,0.0,0.0,0.0,0.0,0.0,0.0,0.0,0.0,0.0,0.0,0.0,0.0,0.0,0.0,0.0,0.0,0.0,0.0,0.0,0.0,0.0,0.0,0.0,0.0,0.0,0.0,0.0,0.0,0.0,0.0,0.0,0.0,0.0,0.0,0.0,0.0,0.0,0.0,0.0,0.0,0.0,0.0,0.0,0.0,0.0,0.0,0.0,0.0,0.0,0.0,0.0,0.0,0.0,0.0,0.0,0.0,0.0,0.0,0.0,0.0,0.0,0.0,0.0,0.0,0.0,0.0,0.0,0.0,0.0,0.0,0.0,0.0,0.0,0.0,0.0,0.0,0.0,0.0,3.1891,3.5528,3.8202,4.005,4.0403,3.8728,3.6269,3.2962,2.8655,2.4359,0.0,0.0,0.0,0.0,0.0,0.0,0.0,0.0,0.0,0.0,0.0,0.0,0.0,0.0,0.0,0.0,0.0,0.0,0.0,0.0,0.0,0.0,0.0,0.0,0.0,0.0,0.0,0.0,0.0,0.0,0.0,0.0,0.0,0.0,0.0,0.0,0.0,0.0,0.0,0.0,0.0,0.0,0.0,0.0,0.0,0.0,0.0,0.0,0.0,0.0,0.0,0.0,0.0,0.0,0.0,0.0,0.0,0.0,0.0,0.0,0.0,0.0,0.0,0.0,0.0,0.0,0.0,0.0,0.0,0.0,0.0,0.0,0.0,0.0,0.0,0.0,0.0,0.0,0.0,0.0,0.0,0.0,0.0,0.0,0.0,0.0,0.0,0.0,0.0,0.0,0.0,0.0,0.0,0.0,0.0,0.0,0.0,0.0,0.0,0.0,0.0,0.0,3.1946,3.559,0.0,3.9546,3.9605,3.7909,3.537,3.183,2.6977,0.0,0.0,0.0,0.0,0.0,0.0,0.0,0.0,0.0,0.0,0.0,0.0,0.0,0.0,0.0,0.0,0.0,0.0,0.0,0.0,0.0,0.0,0.0,0.0,0.0,0.0,0.0,0.0,0.0,0.0,0.0,0.0,0.0,0.0,0.0,0.0,0.0,0.0,0.0,0.0,0.0,0.0,0.0,0.0,0.0,0.0,0.0,0.0,0.0,0.0,0.0,0.0,0.0,0.0,0.0,0.0,0.0,0.0,0.0,0.0,0.0,0.0,0.0,0.0,0.0,0.0,0.0,0.0,0.0,0.0,0.0,0.0,0.0,0.0,0.0,0.0,0.0,0.0,0.0,0.0,0.0,0.0,0.0,0.0,0.0,0.0,0.0,0.0,0.0,0.0,0.0,0.0,0.0,0.0,0.0,0.0,0.0,0.0,0.0,0.0,0.0,0.0,2.7617,3.1921,3.5587,0.0,3.9231,3.9216,3.7791,3.5058,3.1438,2.6821,0.0,0.0,0.0,0.0,0.0,0.0,0.0,0.0,0.0,0.0,0.0,0.0,0.0,0.0,0.0,0.0,0.0,0.0,0.0,0.0,0.0,0.0,0.0,0.0,0.0,0.0,0.0,0.0,0.0,0.0,0.0,0.0,0.0,0.0,0.0,0.0,0.0,0.0,0.0,0.0,0.0,0.0,0.0,0.0,0.0,0.0,0.0,0.0,0.0,0.0,0.0,0.0,0.0,0.0,0.0,0.0,0.0,0.0,0.0,0.0,0.0,0.0,0.0,0.0,0.0,0.0,0.0,0.0,0.0,0.0,0.0,0.0,0.0,0.0,0.0,0.0,0.0,0.0,0.0,0.0,0.0,0.0,0.0,0.0,0.0,0.0,0.0,0.0,0.0,0.0,0.0,0.0,0.0,0.0,0.0,0.0,0.0,0.0,0.0,0.0,0.0,0.0,2.7565,3.1915,3.5597,3.8136,3.9226,3.943,3.8565,3.5351,3.1922,0.0,0.0,0.0,0.0,0.0,0.0,0.0,0.0,0.0,0.0,0.0,0.0,0.0,0.0,0.0,0.0,0.0,0.0,0.0,0.0,0.0,0.0,0.0,0.0,0.0,0.0,0.0,0.0,0.0,0.0,0.0,0.0,0.0,0.0,0.0,0.0,0.0,0.0,0.0,0.0,0.0,0.0,0.0,0.0,0.0,0.0,0.0,0.0,0.0,0.0,0.0,0.0,0.0,0.0,0.0,0.0,0.0,0.0,0.0,0.0,0.0,0.0,0.0,0.0,0.0,0.0,0.0,0.0,0.0,0.0,0.0,0.0,0.0,0.0,0.0,0.0,0.0,0.0,0.0,0.0,0.0,0.0,0.0,0.0,0.0,0.0,0.0,0.0,0.0,0.0,0.0,0.0,0.0,0.0,0.0,0.0,0.0,0.0,0.0,0.0,0.0,0.0,0.0,2.7637,3.2395,3.6192,3.8112,3.8667,3.8527,3.7665,3.4453,3.075,2.6722,0.0,0.0,0.0,0.0,0.0,0.0,0.0,0.0,0.0,0.0,0.0,0.0,0.0,0.0,0.0,0.0,0.0,0.0,0.0,0.0,0.0,0.0,0.0,0.0,0.0,0.0,0.0,0.0,0.0,0.0,0.0,0.0,0.0,0.0,0.0,0.0,0.0,0.0,0.0,0.0,0.0,0.0,0.0,0.0,0.0,0.0,0.0,0.0,0.0,0.0,0.0,0.0,0.0,0.0,0.0,0.0,0.0,0.0,0.0,0.0,0.0,0.0,0.0,0.0,0.0,0.0,0.0,0.0,0.0,0.0,0.0,0.0,0.0,0.0,0.0,0.0,0.0,0.0,0.0,0.0,0.0,0.0,0.0,0.0,0.0,0.0,0.0,0.0,0.0,0.0,0.0,0.0,0.0,0.0,0.0,0.0,0.0,0.0,0.0,0.0,0.0,0.0,2.8178,3.3099,3.6919,3.8598,3.8866,3.8607,3.7744,3.4861,3.1423,2.7508,0.0,0.0,0.0,0.0,0.0,0.0,0.0,0.0,0.0,0.0,0.0,0.0,0.0,0.0,0.0,0.0,0.0,0.0,0.0,0.0,0.0,0.0,0.0,0.0,0.0,0.0,0.0,0.0,0.0,0.0,0.0,0.0,0.0,0.0,0.0,0.0,0.0,0.0,0.0,0.0,0.0,0.0,0.0,0.0,0.0,0.0,0.0,0.0,0.0,0.0,0.0,0.0,0.0,0.0,0.0,0.0,0.0,0.0,0.0,0.0,0.0,0.0,0.0,0.0,0.0,0.0,0.0,0.0,0.0,0.0,0.0,0.0,0.0,0.0,0.0,0.0,0.0,0.0,0.0,0.0,0.0,0.0,0.0,0.0,0.0,0.0,0.0,0.0,0.0,0.0,0.0,0.0,0.0,0.0,0.0,0.0,0.0,0.0,0.0,0.0,0.0,0.0,2.9073,3.3889,3.7633,3.9315,3.9558,3.9259,3.8468,3.6132,3.328,2.9934,0.0,0.0,0.0,0.0,0.0,0.0,0.0,0.0,0.0,0.0,0.0,0.0,0.0,0.0,0.0,0.0,0.0,0.0,0.0,0.0,0.0,0.0,0.0,0.0,0.0,0.0,0.0,0.0,0.0,0.0,0.0,0.0,0.0,0.0,0.0,0.0,0.0,0.0,0.0,0.0,0.0,0.0,0.0,0.0,0.0,0.0,0.0,0.0,0.0,0.0,0.0,0.0,0.0,0.0,0.0,0.0,0.0,0.0,0.0,0.0,1.9782,0.0,0.0,0.0,0.0,0.0,0.0,0.0,0.0,0.0,0.0,0.0,0.0,0.0,0.0,0.0,0.0,0.0,0.0,0.0,0.0,0.0,0.0,0.0,0.0,0.0,0.0,0.0,0.0,0.0,0.0,0.0,0.0,0.0,0.0,0.0,0.0,0.0,0.0,0.0,0.0,0.0,2.9985,3.4231,3.7569,3.9329,3.9558,3.9264,3.8466,3.6681,3.4199,3.0831,2.7819,0.0,0.0,0.0,0.0,0.0,0.0,0.0,0.0,0.0,0.0,0.0,0.0,0.0,0.0,0.0,0.0,0.0,0.0,0.0,0.0,0.0,0.0,0.0,0.0,0.0,0.0,0.0,0.0,0.0,0.0,0.0,0.0,0.0,0.0,0.0,0.0,0.0,0.0,0.0,0.0,0.0,0.0,0.0,0.0,0.0,0.0,0.0,0.0,0.0,0.0,0.0,0.0,0.0,0.0,0.0,0.0,0.0,0.0,0.0,0.0,2.2063,0.0,0.0,0.0,0.0,0.0,0.0,0.0,0.0,0.0,0.0,0.0,0.0,0.0,0.0,0.0,0.0,0.0,0.0,0.0,0.0,0.0,0.0,0.0,0.0,0.0,0.0,0.0,0.0,0.0,0.0,0.0,0.0,0.0,0.0,0.0,0.0,0.0,0.0,0.0,0.0,3.0843,3.4928,3.8208,3.9984,4.0189,3.9747,3.8545,3.7269,3.5253,3.2299,2.9675,0.0,0.0,0.0,0.0,0.0,0.0,0.0,0.0,0.0,0.0,0.0,0.0,0.0,0.0,0.0,0.0,0.0,0.0,0.0,0.0,0.0,0.0,0.0,0.0,0.0,0.0,0.0,0.0,0.0,0.0,0.0,0.0,0.0,0.0,0.0,0.0,0.0,0.0,0.0,0.0,0.0,0.0,0.0,0.0,0.0,0.0,0.0,0.0,0.0,0.0,0.0,0.0,0.0,2.9349,2.9721,2.978,2.978,3.0391,3.1271,2.8217,2.6271,2.5255,2.5279,0.0,0.0,0.0,0.0,0.0,0.0,0.0,0.0,0.0,0.0,0.0,0.0,0.0,0.0,0.0,0.0,0.0,0.0,0.0,0.0,0.0,0.0,0.0,0.0,3.3896,3.366,2.8577,0.0,0.0,0.0,0.0,0.0,0.0,0.0,0.0,0.0,0.0,0.0,3.1909,3.5906,3.906,4.0723,4.0902,4.031,3.8855,3.7935,3.6404,3.4001,3.1591,2.9475,0.0,0.0,0.0,0.0,0.0,0.0,0.0,0.0,0.0,0.0,0.0,0.0,0.0,0.0,0.0,0.0,0.0,0.0,0.0,0.0,0.0,0.0,0.0,0.0,0.0,0.0,0.0,0.0,0.0,0.0,0.0,0.0,1.7027,1.7711,0.0,0.0,0.0,0.0,0.0,0.0,0.0,0.0,0.0,0.0,0.0,0.0,0.0,2.8379,2.9798,3.1177,3.2243,3.2989,3.3736,3.4084,3.4068,3.4068,3.4353,3.4827,3.4525,0.0,3.024,2.8941,0.0,0.0,0.0,0.0,0.0,0.0,0.0,0.0,0.0,0.0,0.0,0.0,0.0,0.0,0.0,0.0,0.0,0.0,0.0,0.0,0.0,0.0,3.7033,3.6381,3.698,3.727,0.0,3.2691,3.0118,2.9617,2.7084,0.0,0.0,0.0,0.0,0.0,0.0,0.0,3.3737,3.7196,3.981,4.0791,4.0957,4.0619,3.9717,3.8834,3.7556,3.5777,3.3912,3.2128,3.0372,2.8572,0.0,0.0,0.0,0.0,0.0,0.0,0.0,0.0,0.0,0.0,0.0,0.0,0.0,0.0,0.0,0.0,0.0,0.0,0.0,0.0,0.0,0.0,0.0,0.0,0.0,0.0,0.0,0.0,0.0,1.716,1.9098,2.0224,2.0752,2.0732,0.0,0.0,0.0,0.0,0.0,0.0,0.0,0.0,0.0,2.9814,3.0895,3.2116,3.3591,3.4237,3.4916,3.5661,3.5976,3.6141,3.6141,3.6141,3.6449,3.7024,3.7109,3.6628,3.5603,3.3196,3.1409,3.0131,0.0,0.0,0.0,0.0,2.9632,3.0507,3.1053,3.1647,3.2127,3.2015,0.0,0.0,0.0,0.0,0.0,0.0,0.0,3.2858,0.0,0.0,3.8232,3.8334,3.903,3.9553,3.9166,3.7254,3.5035,0.0,3.1948,3.0521,2.8284,0.0,0.0,0.0,0.0,3.2942,3.5533,3.805,3.9943,4.0859,4.1028,4.0728,3.9916,3.9061,3.8027,3.6812,3.5087,3.3792,3.3027,3.0875,2.8548,0.0,0.0,0.0,0.0,0.0,0.0,0.0,0.0,0.0,0.0,0.0,0.0,0.0,0.0,0.0,0.0,0.0,0.0,0.0,0.0,0.0,0.0,0.0,0.0,0.0,0.0,0.0,0.0,1.9631,2.1336,2.2245,2.3503,2.3934,0.0,0.0,0.0,0.0,0.0,0.0,2.889,3.0659,3.2216,3.3491,3.4435,3.5446,3.6555,3.6754,3.7119,3.7665,3.7665,3.7716,3.7818,3.7818,3.8235,3.8917,3.8917,3.9299,3.9673,3.6816,3.4904,3.372,3.3303,3.2835,3.2448,3.2902,3.3648,3.4531,3.5015,3.5923,3.6727,3.5988,3.5759,3.5366,3.3373,0.0,0.0,0.0,0.0,3.4892,3.7002,3.8193,3.903,3.9675,4.0332,4.0797,4.0797,4.0294,3.9004,0.0,3.5877,3.5146,3.2436,0.0,0.0,0.0,0.0,3.4889,3.7022,3.886,4.0233,4.0929,4.1074,4.0872,4.0273,3.9238,3.8318,3.7672,3.6008,3.5026,3.5021,3.2946,3.0894,2.8983,0.0,0.0,0.0,0.0,0.0,0.0,0.0,0.0,0.0,0.0,0.0,0.0,0.0,0.0,0.0,0.0,0.0,0.0,0.0,0.0,0.0,0.0,0.0,0.0,0.0,0.0,0.0,0.0,0.0,2.3967,2.6403,0.0,0.0,0.0,0.0,2.9959,3.0208,3.1222,3.3365,3.4237,3.5032,3.581,3.7235,3.803,3.8096,3.8775,3.9149,3.9183,3.9183,3.9394,3.9757,3.9757,4.0152,4.0856,4.0856,4.1105,4.1306,3.9123,3.7717,3.6923,3.6399,3.6201,3.6248,3.661,3.7442,3.8578,3.9668,3.9767,3.9646,4.1116,4.0107,3.8186,3.7471,3.623,0.0,0.0,3.723,3.8143,3.9039,3.9973,4.0681,4.0719,4.0777,4.0797,4.0797,4.0777,4.0448,0.0,3.7934,3.6541,3.562,0.0,3.4153,3.4192,3.5697,3.7138,3.8025,3.9764,4.0948,4.099,4.1115,4.1172,4.1133,3.9589,3.8573,3.8534,3.6908,3.5926,3.5926,3.5002,3.33,3.0722,2.8162,0.0,0.0,0.0,0.0,0.0,0.0,0.0,0.0,0.0,0.0,0.0,0.0,0.0,0.0,0.0,0.0,0.0,0.0,0.0,0.0,0.0,0.0,0.0,0.0,0.0,0.0,0.0,0.0,2.8751,3.0659,0.0,3.0477,3.104,3.1785,3.2564,3.3508,3.4601,3.586,3.6622,3.7367,3.8105,3.8609,3.8907,3.8907,3.9183,3.9299,3.9299,3.9563,3.9616,3.9537,4.0003,4.0385,4.0635,4.089,4.1226,4.1534,4.0774,4.0025,3.9271,3.8697,3.8628,3.8924,3.9322,3.9861,4.0544,4.1153,4.1247,4.1177,4.1804,4.1424,4.0628,3.9977,3.9488,3.9248,3.9761,4.0251,4.0829,4.1699,4.2157,4.226,4.1699,4.1564,4.1429,4.0913,4.0797,4.0719,4.041,3.9829,3.9133,3.8288,3.7887,3.7674,3.7674,3.8216,3.8926,3.9765,4.0522,4.099,4.099,4.1116,4.1191,4.1191,3.9609,3.8359,3.7792,3.613,3.4916,3.4344,3.4029,3.3167,3.166,3.0195,2.7753,0.0,0.0,0.0,0.0,0.0,0.0,0.0,0.0,0.0,0.0,0.0,0.0,0.0,0.0,0.0,0.0,0.0,0.0,0.0,0.0,0.0,0.0,0.0,0.0,0.0,0.0,3.0398,3.1802,3.3491,3.4237,3.3508,3.4104,3.475,3.5247,3.6191,3.7069,3.7798,3.8311,3.8791,3.9282,3.9299,3.9379,3.9511,3.9511,3.9547,3.967,3.9927,3.9995,3.9876,4.0368,4.0683,4.0825,4.1094,4.1363,4.1604,4.1604,4.1306,4.0818,4.0419,4.0438,4.0722,4.1198,4.1604,4.2002,4.2543,4.2735,4.2711,4.2517,4.2436,4.2307,4.1635,4.1592,4.18,4.2014,4.226,4.2563,4.3143,4.3305,4.315,4.2589,4.2434,4.2202,4.1371,4.1203,4.1126,4.0855,4.0797,4.0623,4.0042,3.9932,3.9938,3.9938,3.9931,4.0155,4.0761,4.0932,4.1003,4.1009,4.112,4.1191,4.1191,3.9609,3.8359,3.7773,3.5839,3.4431,3.386,3.3564,3.2994,3.2113,3.0978,2.9278,2.701,0.0,0.0,0.0,0.0,0.0,0.0,0.0,0.0,0.0,0.0,0.0,0.0,0.0,0.0,0.0,0.0,0.0,0.0,0.0,0.0,0.0,0.0,0.0,2.8525,3.0995,3.2834,3.2884,3.4767,3.5827,3.5098,3.5678,3.6704,3.8146,3.8219,3.8543,3.9265,3.9299,3.9299,3.9299,3.9299,3.9484,3.9875,3.9901,4.007,4.0375,4.04,4.0611,4.0977,4.1018,4.1261,4.1617,4.1674,4.1674,4.1674,4.1674,4.1674,4.1674,4.1622,4.1626,4.1719,4.2279,4.2697,4.3086,4.406,4.4397,4.4266,4.3581,4.3332,4.3216,4.2583,4.2569,4.2833,4.3009,4.3216,4.3382,4.3382,4.3382,4.3363,4.3343,4.3343,4.3092,4.2222,4.2048,4.1796,4.099,4.0835,4.0835,4.0797,4.0796,4.0794,4.0794,4.0804,0.0,4.0897,4.0968,4.1003,4.0998,4.1124,4.1191,4.1191,3.9609,3.8574,3.8516,3.6093,3.4667,3.4667,3.3841,3.3015,3.2194,3.059,2.9746,2.9722,0.0,0.0,0.0,0.0,0.0,0.0,0.0,0.0,0.0,0.0,0.0,0.0,0.0,0.0,0.0,0.0,0.0,0.0,0.0,0.0,0.0,2.9798,3.1525,3.1525,3.3574,3.5495,3.6572,3.7698,3.8321,3.8122,3.8271,3.8569,3.8984,3.9017,3.91,3.9282,3.9299,3.9299,3.9299,3.9299,3.9352,3.9458,3.9746,3.9935,4.0045,4.058,4.0731,4.0604,4.1754,4.2195,4.2079,4.2911,4.3272,4.3272,4.3272,4.3272,4.3149,4.2043,4.1963,4.2482,4.2657,4.3195,4.3876,4.4165,4.4285,4.4306,4.4154,4.4107,4.4065,4.3944,4.418,4.4524,4.4574,4.4842,4.5104,4.5104,4.5104,4.4968,4.4388,4.4246,4.4001,4.3131,4.2937,4.2686,4.1835,4.1661,4.1487,4.0893,4.0803,4.0809,4.0809,4.0796,0.0,4.0833,4.0928,4.1,4.1006,4.1119,4.1191,4.1191,3.9609,3.8066,3.6797,3.4844,3.3769,3.3768,3.3533,3.3589,3.3973,3.3538,3.2988,0.0,0.0,0.0,0.0,0.0,0.0,0.0,0.0,0.0,0.0,0.0,0.0,0.0,0.0,0.0,0.0,0.0,0.0,0.0,0.0,0.0,0.0,3.294,3.4651,3.4965,3.6108,3.735,3.8526,3.905,3.9299,3.9299,3.9299,3.9299,3.9299,3.9299,3.9299,3.9299,3.9597,3.9763,3.9763,4.0234,4.0555,4.0714,4.1112,4.1408,4.1565,4.2001,4.2078,4.1888,4.2841,4.3121,4.2933,4.36,4.3904,4.3904,4.3904,4.3904,0.0,0.0,0.0,0.0,0.0,4.351,4.4119,4.4184,4.4229,4.4255,4.4344,4.4373,4.4401,4.4537,4.4833,4.5159,4.5292,4.5554,4.5805,4.58,4.5807,4.5691,4.52,4.5104,4.4871,4.404,4.3846,4.3595,4.2705,4.2531,0.0,4.1448,4.1016,4.0796,4.0796,4.0808,4.082,4.0831,4.0937,4.1006,4.0992,4.112,4.1191,4.1191,3.9941,0.0,0.0,0.0,3.4863,3.4491,3.4491,0.0,0.0,0.0,0.0,0.0,0.0,0.0,0.0,3.4841,3.5281,0.0,0.0,0.0,0.0,0.0,0.0,0.0,0.0,0.0,0.0,0.0,0.0,0.0,0.0,0.0,0.0,3.5607,3.7559,3.8341,3.8432,3.8629,3.9232,3.9299,3.9299,3.9299,3.9299,3.9332,3.9415,3.9431,3.9464,3.9531,0.0,0.0,0.0,0.0,4.2296,4.2706,4.3095,4.3489,4.384,4.3863,4.3904,4.3904,4.3992,4.4044,4.4044,4.4115,4.4167,4.4167,4.4167,4.4144,4.4032,4.3339,4.3332,4.3676,4.3725,4.3989,4.4299,4.4414,0.0,0.0,4.4405,4.436,4.4344,4.4619,4.4845,4.5063,4.54,4.5627,4.5788,4.5805,4.58,4.58,4.5807,4.5807,4.5587,4.4891,4.4736,4.4485,4.3614,4.346,4.3169,4.2299,4.1473,4.091,4.0814,4.0798,4.0812,4.0883,4.0953,4.1003,4.1018,0.0,0.0,4.1191,4.0391,3.9863,3.9766,3.8301,3.7109,3.6327,3.6464,3.658,3.6579,3.7437,3.8647,4.0171,4.1006,4.2233,4.3754,3.9774,3.9648,0.0,0.0,0.0,0.0,0.0,0.0,0.0,0.0,0.0,0.0,0.0,0.0,0.0,0.0,0.0,3.6457,3.7724,3.8832,3.9823,3.975,3.9501,3.9309,3.9299,3.9299,3.9299,3.9299,3.9547,4.0144,4.0194,4.0415,4.0961,4.1143,4.1377,4.1745,4.1987,4.2323,4.2783,4.312,4.3343,4.3416,0.0,0.0,4.3921,4.4571,4.4869,4.4904,4.5495,4.5758,4.5758,4.5758,4.5617,4.5397,4.492,4.5003,4.5461,4.5779,4.5962,4.6011,4.6046,4.5635,4.5111,4.5171,4.4755,4.4289,4.4605,4.4845,0.0,4.5342,4.5565,4.5731,4.5788,4.5795,4.5803,4.58,4.5807,4.5768,4.5594,4.5568,4.5336,4.4504,4.4342,4.4072,4.3208,4.2344,4.1557,4.09,4.0809,4.0812,4.0888,4.0968,4.1017,4.106,4.1147,4.1191,4.1191,4.0391,3.9609,3.8906,3.8535,3.8262,3.8105,3.9394,4.0116,4.0116,4.0972,4.1576,4.1928,4.2786,4.3721,4.4711,4.3159,4.3173,0.0,0.0,0.0,0.0,0.0,0.0,0.0,0.0,0.0,0.0,0.0,3.1545,3.2809,0.0,3.6775,3.832,3.9112,3.9739,4.0277,3.9952,3.9635,3.9599,3.9616,3.9511,3.9325,3.963,4.0011,4.0376,4.0557,4.0859,4.1364,4.1825,4.2233,4.2654,4.3425,4.3974,4.4182,4.458,4.4753,4.4753,4.4949,4.5062,4.5056,4.546,4.5635,4.5653,4.6039,4.6196,4.6221,4.6453,4.6626,4.6701,4.6739,4.6394,4.5937,4.6359,4.6494,4.6494,4.6494,4.6234,4.5916,4.5929,4.546,4.4959,4.5259,4.5233,4.515,4.5476,4.562,4.5703,4.5743,4.5773,4.5795,4.5791,4.5793,4.5807,4.5807,4.5807,4.5691,4.5278,4.52,4.4929,4.4098,4.3595,4.2879,4.1583,4.1067,4.082,4.0893,4.0964,4.1037,4.1085,4.1168,4.1191,4.1191,4.0801,4.0351,3.9922,3.9902,3.9902,3.9902,4.1093,4.1757,4.1757,4.2616,4.326,4.371,4.4138,4.5015,4.6282,4.5844,4.6108,0.0,0.0,0.0,0.0,0.0,0.0,0.0,0.0,2.9781,3.0626,3.2693,3.4616,3.5507,3.6924,3.8284,3.9316,3.988,4.0221,4.0313,3.9817,3.9516,3.9687,3.9687,3.9547,3.9164,3.9842,4.0337,4.0397,4.0783,4.1255,4.1794,4.2496,4.3098,4.3578,4.4833,4.5572,4.5649,4.5972,4.6122,4.6122,4.6147,4.6147,4.6147,4.6196,4.6196,4.6196,4.6196,4.6196,4.6246,4.6719,4.7182,4.7653,4.8132,4.7555,4.6523,4.6839,4.6977,4.6977,4.6977,4.6865,4.6735,4.6735,4.6299,4.58,4.5942,4.5699,4.5411,4.5615,4.5684,4.5682,4.5703,4.5735,4.5785,4.58,4.5791,4.5793,4.5807,4.5807,4.5807,4.5807,4.5807,4.5587,4.4949,4.469,4.4078,4.2492,4.157,4.1086,4.1135,4.1068,4.1052,4.1114,4.1169,4.1191,4.1191,4.1191,4.1191,4.1191,4.1348,4.1426,4.1426,4.2226,4.2734,4.2891,4.3594,4.4375,4.5254,4.5429,4.6229,4.7615,4.794,4.8437,2.1139,2.2358,2.4046,2.673,2.7662,2.8588,0.0,0.0,3.357,3.45,3.6126,3.7399,3.7324,3.8413,3.9377,3.9699,3.9809,3.9978,4.0343,4.0011,3.956,3.9086,3.8947,3.8805,3.8532,3.9397,4.0095,4.0453,4.1091,4.1999,4.3284,4.3442,4.3942,4.4932,4.5169,4.5432,4.577,4.5821,4.5846,4.5846,4.5972,4.6023,4.6023,4.6147,4.6196,4.6196,4.6196,4.6196,4.6246,4.6719,4.7182,4.7653,4.8132,4.8403,4.8578,4.8613,4.863,4.863,4.863,4.8166,4.7571,4.7571,4.7047,4.6355,4.6083,4.5963,4.587,4.5659,4.5603,4.5612,4.5673,4.5709,4.5734,4.5792,4.5788,4.5803,4.58,4.5807,4.5807,4.5807,4.5807,4.5768,4.5691,4.5065,4.4265,4.3305,4.2468,4.1971,4.2041,4.1484,4.1115,4.1171,4.1191,4.1191,4.1191,4.1191,4.1191,4.1191,4.1875,4.2266,4.2266,4.3105,4.3926,4.4687,4.4805,4.5273,4.6152,4.6933,4.7402,4.7635,4.9135,4.9871,2.335,2.5288,2.7168,0.0,3.0323,3.1552,3.2742,3.3921,3.4988,3.5783,3.7001,3.7929,3.7996,3.8877,3.9664,0.0,4.0319,4.0483,4.0326,3.9859,3.9299,3.8624,3.8701,3.8694,3.842,3.9527,4.0307,4.0494,4.1349,4.234,4.3532,4.3634,4.414,4.5177,4.5432,4.5641,4.5795,4.5795,4.5795,4.5795,4.5846,4.5871,4.5897,4.6023,4.6122,4.6196,4.6196,4.6196,4.627,4.6981,4.7421,4.7674,4.8364,4.875,4.8909,4.8909,4.8909,4.8909,4.8909,4.8686,4.8407,4.8407,4.8058,4.7636,4.7513,4.7013,4.6508,4.6387,4.599,4.5614,4.564,4.5665,4.5709,4.575,4.5735,4.5746,4.5783,4.5791,4.5798,4.58,4.5807,4.5807,4.5807,4.551,4.5162,4.4813,4.3668,4.2887,4.2951,4.2724,4.239,4.1953,4.1484,4.1191,4.1191,4.1621,4.1894,4.1894,4.2695,4.3164,4.3164,4.3984,4.4629,4.498,4.5508,4.5937,4.6308,4.7168,4.7851,4.8379,4.9566,5.0362,2.5881,0.0,0.0,3.1277,3.2756,3.3988,3.4367,3.5236,3.6105,3.6611,3.7261,3.7857,3.8026,3.8712,3.9394,3.9859,4.041,4.0597,4.0028,3.9594,3.9038,3.8169,3.8439,3.8595,3.8387,3.9547,4.043,4.0714,4.1475,4.2499,4.3768,4.391,4.4339,4.5247,4.5537,4.5693,4.5693,4.5693,4.5693,4.5693,4.5736,4.577,4.5812,4.5972,4.6097,4.6196,4.6196,4.6196,4.6253,4.7204,4.7611,4.7695,4.855,4.8909,4.8909,4.8909,4.8909,4.8909,4.8909,4.8909,4.8909,4.8909,4.884,4.8734,4.8537,4.8014,4.7405,4.701,4.6451,4.5893,4.5671,4.564,4.5684,4.5701,4.5706,4.5719,4.5792,4.5807,4.5795,4.58,4.5807,4.5807,4.5807,4.5807,4.5807,4.5807,4.4866,4.4089,4.387,4.371,4.3392,4.2812,4.2246,4.1894,4.1894,4.2422,4.2754,4.2754,4.3574,4.4062,4.4062,4.4902,4.5351,4.5351,4.5976,4.6426,4.666,4.7539,4.8418,4.9277,5.0075,5.0794,0.0,0.0,3.1713,3.453,3.5284,3.5679,3.7067,3.7415,3.7447,3.7478,3.7494,3.7494,3.7539,3.7956,3.8546,3.9135,3.9671,3.9868,3.9295,3.9232,3.8799,3.7671,3.7985,3.8322,3.8306,3.9214,4.0217,4.1187,4.1425,4.237,4.4384,4.4474,4.4769,4.5371,4.5397,4.5397,4.5397,4.5397,4.5397,4.5423,4.5537,4.5667,4.5795,4.6073,4.6214,4.6196,4.6196,4.6196,4.6253,4.7204,4.7611,4.7695,4.855,4.8909,4.8909,4.8909,4.8909,4.8909,4.8909,4.8909,4.8909,4.8909,4.9125,4.9269,4.8672,4.8694,4.8646,4.7271,4.6885,4.6682,4.5825,4.5594,4.5622,4.5673,4.5701,4.5726,4.5792,4.5807,4.5795,4.58,4.5807,4.5807,4.5807,4.5807,4.5807,4.5807,4.5925,4.5705,4.4867,4.4139,4.3691,4.3652,4.3633,4.3613,4.3613,4.3652,4.3652,4.3652,4.4473,4.4961,4.4961,4.5801,4.6269,4.6269,4.6289,4.6719,4.7558,4.8437,4.9316,5.0176,5.0995,5.1363,0.0,0.0,3.4172,3.567,3.6421,3.6925,3.7399,3.751,3.7368,3.688,3.6785,3.6701,3.6425,3.6875,3.762,3.8585,3.9292,3.9602,3.9229,3.9576,3.9418,3.8177,3.8925,0.0,3.9428,3.9802,0.0,4.1243,4.1803,4.2796,4.4395,4.4502,4.4769,4.5371,4.5397,4.5397,4.5397,4.5397,4.5397,4.5414,4.6073,4.6508,4.6733,4.7342,4.7646,4.7723,4.7783,4.766,4.7494,4.8087,4.8229,4.8114,4.8696,4.8909,4.8909,4.8909,4.8909,4.8909,4.8909,4.8909,4.8909,4.8909,4.9252,4.9641,4.9422,4.931,4.9162,4.8683,4.7759,4.6827,4.6547,4.6028,4.5614,4.5631,4.564,4.5657,4.5714,4.5727,4.5758,4.5795,4.5805,4.5807,4.5807,4.5807,4.5848,4.5974,4.6064,4.6036,4.5823,4.5076,4.4551,4.4551,4.4043,4.3691,4.3691,4.4238,4.4551,4.4551,4.5371,4.5859,4.5859,4.6133,4.6308,4.6308,4.6875,4.7305,4.7598,4.9062,4.9902,5.0215,5.1034,5.1404,3.2081,3.4046,3.5817,3.6598,3.7148,3.751,3.751,3.7291,3.6896,3.62,3.5837,3.5514,3.5101,3.5795,3.6812,3.792,3.9166,3.9958,3.9912,4.0525,4.0574,3.9542,4.0321,4.091,0.0,0.0,0.0,4.1927,4.2473,4.3368,4.4746,4.4824,4.4988,4.5397,4.5397,4.5397,4.5397,4.5397,4.5535,4.5828,4.6811,4.7343,4.7544,4.8111,4.8417,4.8556,4.8573,4.8377,4.8122,4.8528,4.8546,4.8344,4.8732,4.8909,4.8909,4.8909,4.8909,4.8909,4.8909,4.8909,4.8909,4.8909,4.9312,4.9803,4.9803,4.982,4.9798,4.949,4.8625,4.7721,4.7413,4.6701,4.6067,4.6067,4.5825,4.5622,4.5693,4.5695,4.5715,4.58,4.5798,4.5807,4.5807,4.5807,4.586,4.6076,4.6098,4.6147,4.6288,4.5801,4.5469,4.5469,4.4961,4.4629,4.4629,4.5137,4.5469,4.5469,4.5996,4.6308,4.6308,4.6308,4.6445,4.6758,4.7305,4.791,4.8535,4.9648,5.0351,5.0644,5.1152,5.1405,3.4656,3.5932,3.6614,3.7352,3.751,3.7494,3.7462,3.688,3.6124,3.5379,3.4636,3.399,3.3495,0.0,3.6059,3.7149,3.9217,4.0832,4.1146,4.1865,4.2136,0.0,0.0,0.0,0.0,0.0,0.0,4.3258,0.0,4.4017,4.5319,4.5397,4.5397,4.5397,4.5397,4.5397,4.5397,4.5432,4.5862,4.6682,4.7688,4.8153,4.8179,4.8478,4.8635,4.8714,4.8661,4.8491,4.8275,4.8622,4.8621,4.8418,4.8768,4.8909,4.8909,4.8909,4.8909,4.8909,4.8909,4.8909,4.8909,4.8909,4.9312,4.9803,4.9803,5.0233,5.0539,4.9702,4.9433,4.9202,4.8375,4.7567,4.6942,4.6904,4.6278,4.5661,4.5684,4.5695,4.5715,4.5773,4.5798,4.5807,4.5807,4.5807,4.586,4.6076,4.6098,4.6147,4.6288,4.6308,4.6308,4.6308,4.6308,4.6308,4.6308,4.6308,4.6308,4.6308,4.6308,4.6308,4.6308,4.6348,4.6758,4.7578,4.7695,4.8555,5.0195,5.0234,5.0644,5.1406,5.1406,5.1406,3.5205,3.6279,3.7243,3.7462,3.751,3.7368,3.6817,3.6153,3.5157,3.3446,3.2487,3.1743,3.0914,0.0,0.0,3.5937,3.8713,0.0,4.1146,4.2252,0.0,4.2142,0.0,4.3022,4.2997,4.3614,0.0,0.0,4.4044,4.4466,4.5363,4.5397,4.5397,4.5397,4.5397,4.5397,4.5397,4.5983,4.6709,4.7578,4.8432,4.8961,4.9168,4.979,5.0151,5.0311,5.0294,5.031,5.0285,4.9798,4.9624,4.9583,4.9097,4.8909,4.8909,4.8909,4.8909,4.8909,4.8909,4.8909,4.8909,4.8909,4.9312,4.9803,4.9803,5.0233,5.0654,5.0442,4.9894,4.9356,4.9125,4.8432,4.7644,4.7038,4.674,4.6394,4.5757,4.5651,4.5708,4.5723,4.5776,4.5807,4.5807,4.5807,4.586,4.6076,4.6098,4.6147,4.6288,4.6308,4.6308,4.6308,4.6308,4.6308,4.6308,4.6308,4.6308,4.6308,4.6308,4.6308,4.6308,4.6914,4.7363,4.7598,4.8887,4.9766,5.0195,5.0801,5.1191,5.1406,5.1406,5.1406,3.6137,3.6909,3.751,3.751,3.751,3.7212,3.62,3.5189,3.3825,3.1471,3.0149,0.0,2.8098,3.0346,0.0,0.0,0.0,0.0,4.1886,4.303,4.3712,0.0,4.4002,0.0,4.4173,4.4527,4.4785,0.0,4.4785,4.4958,4.538,4.5397,4.5397,4.5397,4.5397,4.5569,4.5914,4.6717,4.7486,4.8311,4.9173,4.9705,4.9899,5.0382,5.0702,5.0891,0.0,5.099,5.1063,5.0602,5.0307,5.006,4.9596,4.9206,4.8909,4.8909,4.8909,4.8909,4.8909,4.8909,4.8907,4.9077,4.9435,4.9811,4.993,5.0313,5.0712,5.0712,5.0346,4.9971,4.9971,4.9317,4.8567,4.8105,4.7451,4.6778,4.6278,4.5913,4.5715,4.5734,4.5778,4.5807,4.5807,4.5807,4.586,4.6076,4.6098,4.6147,4.6288,4.6308,4.6308,4.6308,4.6308,4.6308,4.6308,4.6308,4.6308,4.6308,4.6308,4.6465,4.6855,4.7344,4.7969,4.873,4.9707,5.0371,5.0723,5.1172,5.1406,5.1406,5.1406,5.1406,3.7178,3.751,3.751,3.751,3.7431,3.6972,3.5486,3.3983,3.2143,2.9473,0.0,2.6513,2.5476,2.8046,3.0994,3.2904,0.0,4.0345,4.2861,4.3828,4.4561,4.5311,4.5397,4.5397,4.5397,4.5397,4.5397,4.5397,4.5397,4.5397,4.5397,4.5397,4.5397,4.5397,4.5397,4.5776,4.6596,4.7224,4.7913,4.8654,4.9612,5.0118,5.0258,5.0495,5.0702,5.0918,5.0954,5.1101,5.1244,5.109,5.0735,5.0265,5.0042,4.9522,4.8909,4.8909,4.8909,4.8909,4.8909,4.8909,4.896,4.9305,4.9569,4.9857,5.0123,5.0432,5.0712,5.0712,5.0712,5.0712,5.0712,5.0144,4.9529,4.9433,4.8298,4.7182,4.6942,4.6271,4.5712,4.5793,4.5807,4.5807,4.5807,4.5807,4.586,4.6076,4.6098,4.6147,4.6288,4.6308,4.6308,4.6308,4.6308,4.6308,4.6308,4.6308,4.6348,4.6465,4.6465,4.6855,4.7734,4.7871,4.8652,5.0176,5.0293,5.0703,5.1406,5.1406,5.1406,5.1406,5.1406,5.1406,3.7431,3.751,3.751,3.751,3.7038,3.6105,3.4254,3.2266,0.0,0.0,2.5824,2.4737,2.4277,2.6843,2.9856,3.2395,0.0,0.0,0.0,0.0,4.4561,0.0,0.0,0.0,0.0,0.0,0.0,0.0,4.5397,4.5397,4.5397,4.5397,4.5397,4.5397,4.5397,4.5776,4.6596,4.6734,4.7155,4.7907,4.8851,4.9354,4.951,5.0268,5.0702,5.0918,5.1323,0.0,5.2014,5.1079,5.0869,5.1045,4.9652,4.902,4.8909,4.8909,4.8909,4.8909,4.8909,4.8909,4.896,4.9305,4.9569,4.9857,5.0123,5.0432,5.0712,5.0712,5.0712,5.0712,5.0712,5.0596,5.0289,4.9567,4.9183,4.8586,4.7201,4.6271,4.5712,4.5793,4.5807,4.5807,4.5807,4.5807,4.586,4.6076,4.6098,4.6147,4.6288,4.6308,4.6308,4.6308,4.6308,4.6308,4.6308,4.6308,4.6601,4.7324,4.7363,4.7773,4.8633,4.9375,4.9883,5.0195,5.0859,5.1269,5.1406,5.1406,5.1406,5.1406,5.1406,5.1406,3.7415,3.751,3.751,3.751,3.6674,3.5375,3.3471,0.0,0.0,0.0,2.4441,2.3357,2.2895,0.0,0.0,0.0,0.0,0.0,0.0,0.0,0.0,0.0,0.0,0.0,0.0,0.0,0.0,4.5397,4.5397,4.5397,4.5397,4.5397,4.5397,4.5397,4.5397,4.5776,4.6596,4.6613,4.6975,4.7717,4.8218,4.8556,4.8675,4.9185,4.9722,5.0312,5.0769,5.1233,5.1652,5.1383,5.1058,5.0636,4.9837,4.928,4.8909,4.8909,4.8909,4.8909,4.8909,4.901,4.9206,4.9495,4.9712,4.9884,5.0325,5.0565,5.0712,5.0712,5.0712,5.0712,5.0712,5.0712,5.0596,5.0192,4.9721,4.8942,4.7267,4.6615,4.6256,4.588,4.5793,4.5807,4.5807,4.5867,4.5956,4.6084,4.6131,4.6195,4.6289,4.6308,4.6308,4.6308,4.6308,4.6484,4.6933,4.6973,4.7344,4.8223,4.8281,4.8672,4.9531,4.998,5.0391,5.082,5.1191,5.1406,5.1406,5.1406,5.1406,5.1406,5.1406,5.1406,3.7243,3.751,3.751,3.751,3.6311,3.4686,3.285,3.0172,0.0,0.0,2.3506,2.2445,2.203,0.0,2.6723,0.0,0.0,0.0,0.0,0.0,0.0,0.0,0.0,0.0,0.0,0.0,0.0,4.5397,4.5397,4.5397,4.5397,4.5397,4.5397,4.5397,4.5397,4.569,4.6355,4.6355,4.6621,4.7207,4.7553,4.7767,4.7883,4.8216,4.8785,4.9624,5.0107,5.0566,5.102,5.1364,5.0951,5.0098,4.993,4.9466,4.8909,4.8909,4.8909,4.8909,4.8909,4.9127,4.9442,4.9707,4.9844,4.9987,5.0534,5.0712,5.0712,5.0712,5.0712,5.0712,5.0712,5.0712,5.0712,5.0712,5.0029,4.9038,4.7736,4.7356,4.7039,4.6237,4.6088,4.602,4.5826,4.6059,4.627,4.6364,4.6584,4.6781,4.6855,4.6855,4.6855,4.6855,4.6699,4.6855,4.7539,4.7773,4.8242,4.9121,4.918,4.9551,5.043,5.0469,5.0742,5.1387,5.1406,5.1406,5.1406,5.1406,5.1406,5.1406,5.1406,5.1406,3.7146,3.751,3.751,3.751,3.596,3.3953,3.2256,0.0,0.0,2.458,2.312,2.2211,2.2405,2.3241,0.0,0.0,0.0,0.0,0.0,0.0,0.0,0.0,0.0,0.0,0.0,0.0,0.0,4.5397,4.5397,4.5397,4.5397,4.5397,4.5397,4.5397,4.5397,4.5432,4.55,4.5518,4.5535,4.5621,4.663,4.7091,4.7135,4.805,4.8751,4.9281,4.9798,5.0286,0.0,5.0361,5.0248,5.0116,4.9317,4.8964,4.8909,4.8909,4.8909,4.8909,4.8909,4.9127,4.9442,4.9707,4.9955,5.0237,5.0594,5.0712,5.0712,5.0712,5.0712,5.0712,5.0712,5.0712,5.0712,5.0712,5.0029,4.9375,4.9286,4.8694,4.7935,4.7137,4.697,4.6728,4.5942,4.6511,4.7135,4.7264,4.8011,4.8598,4.8652,4.8652,4.8652,4.8652,4.7949,4.7519,4.7598,4.832,4.9141,5.0039,5.0078,5.0449,5.1269,5.1289,5.1328,5.1406,5.1406,5.1406,5.1406,5.1406,5.1406,5.1406,5.1406,5.1406,3.6358,3.7148,3.7399,3.6959,3.5458,3.3611,3.1707,0.0,2.6104,2.4674,2.3294,2.2385,2.2525,2.3168,2.441,0.0,2.8628,3.0988,3.4076,0.0,0.0,0.0,0.0,0.0,0.0,0.0,0.0,0.0,4.5397,4.5397,4.5397,4.5397,4.5397,4.5397,4.5397,4.5397,4.5397,4.5397,4.5397,4.5414,4.5996,4.629,4.6316,4.7156,4.7909,4.8591,4.9361,4.9759,0.0,5.0083,4.9875,4.9373,4.9039,4.8909,4.8909,4.8909,4.8909,4.8909,4.8909,4.922,4.967,4.9762,5.013,5.0534,5.0663,5.0712,5.0712,5.0712,5.0712,5.0712,5.0712,5.0712,5.0712,5.0712,5.0442,5.0058,4.9557,4.9216,4.8786,4.7981,4.7844,4.7773,4.7424,4.7734,4.805,4.8105,4.8541,4.8865,4.8906,4.8906,4.8906,4.8906,4.8594,4.8594,4.9121,4.9473,5.0039,5.0879,5.0918,5.1074,5.1387,5.1406,5.1406,5.1406,5.1406,5.1406,5.1406,5.1406,5.1406,5.1406,5.1406,5.1406,3.4908,3.6011,3.6469,3.6184,3.4691,3.2854,0.0,2.8303,2.5765,2.4506,2.3346,2.2555,2.2623,2.322,2.4176,0.0,2.7696,2.9868,3.1852,3.5007,0.0,0.0,0.0,0.0,0.0,0.0,0.0,0.0,4.5397,4.5397,4.5397,4.5397,4.5397,4.5397,4.5397,4.5397,4.5397,4.5397,4.5397,4.5397,4.5667,4.5854,4.6038,4.6631,4.7348,4.8195,4.8873,4.919,0.0,4.9657,4.9447,4.8909,4.8909,4.8909,4.8909,4.8909,4.8909,4.8907,4.901,4.9374,4.9798,4.9878,5.0279,5.0712,5.0712,5.0712,5.0712,5.0712,5.0712,5.0712,5.0712,5.0712,5.0712,5.0712,5.0712,5.0539,4.9913,4.9825,4.9609,4.8806,4.8717,4.8686,4.845,4.8718,4.8982,4.8982,4.9353,4.9648,4.9648,4.9648,4.9648,4.9648,4.9648,4.9785,5.0176,5.043,5.0801,5.1367,5.1406,5.1406,5.1406,5.1406,5.1406,5.1406,5.1406,5.1406,5.1406,5.1406,5.1406,5.1406,5.1406,5.1543,3.2771,3.3814,3.4494,3.5221,3.3555,3.142,0.0,2.7512,2.4928,2.3915,2.3124,2.2619,2.2685,2.3302,2.4077,2.4885,2.6919,2.9455,3.2472,3.4869,0.0,0.0,0.0,0.0,0.0,0.0,0.0,0.0,4.5397,0.0,4.5397,4.5397,4.5397,4.5397,4.5397,4.5397,4.5397,4.5397,4.5397,4.5397,4.5667,4.6038,4.6501,4.6794,4.7417,4.8305,4.8324,4.855,0.0,4.8909,4.8909,4.8909,4.8909,4.8909,4.8909,4.8909,4.8909,4.896,4.9289,4.9569,4.9838,5.0123,5.0421,5.0712,5.0712,5.0712,5.0712,5.0712,5.0712,5.0712,5.0712,5.0712,5.0712,5.0712,5.0712,5.0712,5.0693,5.0683,5.0441,4.9637,4.9534,4.9331,4.8539,4.9229,4.9886,4.9886,5.0741,5.1367,5.1367,5.1367,5.1367,5.1367,5.1367,5.1055,5.0273,5.0937,5.1387,5.1406,5.1406,5.1406,5.1406,5.1406,5.1406,5.1406,5.1406,5.1406,5.1406,5.1406,5.1406,5.1406,5.1406,5.1855,3.0672,3.1874,3.2476,3.2295,3.1177,2.9781,2.851,2.6554,2.476,2.3884,2.3148,2.2672,2.2699,2.2888,2.3474,2.4798,2.6488,0.0,0.0,0.0,0.0,0.0,0.0,0.0,0.0,0.0,0.0,4.5397,4.5397,4.5397,4.5397,4.5397,4.5397,4.5397,4.5397,4.5397,4.5397,4.5397,4.5397,4.5397,4.5955,4.6315,4.6525,4.7338,4.7917,4.8306,4.8587,4.8785,4.8909,4.8909,4.8909,4.8909,4.8909,4.8909,4.8909,4.8909,4.8909,4.896,4.9289,4.9588,4.9838,5.0104,5.0432,5.0712,5.0712,5.0712,5.0712,5.0712,5.0712,5.0712,5.0712,5.0712,5.0712,5.0712,5.0712,5.0712,5.0712,5.0702,5.0633,5.0437,5.045,5.0414,5.0144,5.0487,5.0794,5.0794,5.115,5.1406,5.1406,5.1406,5.1406,5.1406,5.1406,5.1308,5.1035,5.125,5.1406,5.1406,5.1406,5.1406,5.1406,5.1406,5.1406,5.1406,5.1406,5.1406,5.1406,5.1406,5.1406,5.1406,5.2012,5.2754,0.0,2.9048,2.9717,2.9657,2.8928,2.7938,2.6811,2.5473,2.4236,2.3491,2.2999,2.2699,2.2699,2.3181,2.3974,2.5212,2.7195,0.0,0.0,0.0,0.0,0.0,0.0,0.0,0.0,0.0,0.0,4.5397,4.5397,4.5397,4.5397,4.5397,4.5397,4.5397,4.5397,4.5397,4.5397,4.5589,4.5701,4.5701,4.6357,4.6794,4.7057,4.7759,4.825,4.855,4.8785,4.8909,0.0,4.8909,4.8909,4.8909,4.8909,4.8909,4.8909,4.8909,4.8909,4.8959,4.9408,4.967,4.987,5.0249,5.0534,5.0712,5.0712,5.0712,5.0712,5.0712,5.0712,5.0712,5.0712,5.0712,5.0712,5.0712,5.0712,5.0712,5.0712,5.0693,5.0711,5.0784,5.0819,5.0872,5.089,5.1064,5.1203,5.1203,5.1304,5.1406,5.1406,5.1406,5.1406,5.1406,5.1406,5.1406,5.1406,5.1406,5.1406,5.1406,5.1406,5.1406,5.1406,5.1406,5.1406,5.1406,5.1406,5.1406,5.1406,5.1406,5.1406,5.1426,5.2285,5.3164,0.0,2.5583,2.6529,2.7275,2.6763,2.5914,2.5246,2.4335,0.0,2.2823,2.2699,2.2716,2.2767,2.3953,2.5195,2.6042,0.0,0.0,0.0,0.0,0.0,0.0,0.0,0.0,0.0,0.0,0.0,4.5397,4.5397,4.5397,4.5397,4.545,4.545,4.5397,4.5476,4.5459,4.5397,4.593,4.6211,4.6211,4.6835,4.7399,4.7899,4.8056,4.8402,0.0,4.8909,4.8909,4.8909,4.8909,4.8909,4.8909,4.8909,4.8909,4.8909,4.8909,4.8909,4.8993,4.9594,4.9803,4.9897,5.0513,5.0712,5.0712,5.0712,5.0712,5.0712,5.0712,5.0712,5.0712,5.0712,5.0712,5.0712,5.0712,5.0712,5.0712,5.0712,5.0712,5.0721,5.0784,5.0801,5.0827,5.089,5.1064,5.1203,5.1203,5.1304,5.1406,5.1406,5.1406,5.1406,5.1406,5.1406,5.1406,5.1406,5.1406,5.1406,5.1406,5.1406,5.1406,5.1406,5.1406,5.1406,5.1406,5.1406,5.1406,5.1406,5.1406,5.1426,5.1504,5.2383,5.3262,2.141,0.0,2.4813,2.5046,2.4625,2.4133,0.0,2.3431,2.2829,2.272,2.2699,2.2871,2.344,2.3836,2.4732,2.6695,0.0,0.0,0.0,0.0,0.0,0.0,0.0,0.0,0.0,0.0,4.5397,4.5397,4.5397,4.5397,4.5397,4.5778,4.5829,4.5423,4.6144,4.6193,4.5397,4.593,4.6211,4.6211,4.7071,4.7591,4.7836,4.8288,4.8605,4.884,4.8874,4.8909,4.8909,4.8909,4.8909,4.8909,4.8909,4.8909,4.8909,4.8909,4.8909,4.8993,4.9594,4.9803,4.9897,5.0513,5.0712,5.0712,5.0712,5.0712,5.0712,5.0712,5.0712,5.0712,5.0712,5.0712,5.0712,5.0712,5.0712,5.0712,5.0712,5.0712,5.0721,5.0784,5.0801,5.0827,5.089,5.1064,5.1203,5.1203,5.1304,5.1406,5.1406,5.1406,5.1406,5.1406,5.1406,5.1406,5.1406,5.1406,5.1406,5.1406,5.1406,5.1406,5.1406,5.1406,5.1406,5.1406,5.1406,5.1406,5.1406,5.1406,5.1738,5.2422,5.3281,5.416,2.0661,2.2065,2.338,2.3794,2.3755,2.3608,2.3676,2.3151,2.2659,0.0,0.0,2.344,2.4215,2.4922,0.0,0.0,3.0093,0.0,0.0,0.0,0.0,0.0,0.0,0.0,0.0,0.0,4.5397,4.5397,4.5397,4.5528,4.5752,4.6038,4.6062,4.5778,4.6489,4.6537,4.5778,4.6489,4.6845,4.6845,4.7569,4.7995,4.8113,4.8458,4.8678,4.8804,4.8874,4.8909,4.8909,4.8909,4.8909,4.8909,4.8909,4.8909,4.8909,4.8909,4.8909,4.8993,4.9594,4.9974,5.0268,5.0594,5.0712,5.0712,5.0712,5.0712,5.0712,5.0712,5.0712,5.0712,5.0712,5.0712,5.0712,5.0712,5.0712,5.0712,5.0712,5.0712,5.0721,5.0784,5.0801,5.0833,5.0969,5.1122,5.1214,5.1249,5.1334,5.1406,5.1406,5.1406,5.1406,5.1406,5.1406,5.1406,5.1406,5.1406,5.1406,5.1406,5.1406,5.1406,5.1406,5.1406,5.1406,5.1406,5.1406,5.1406,5.1406,5.1406,5.1855,5.2715,5.3594,5.4473,2.0758,2.1688,2.2632,2.342,2.375,2.3893,2.3893,0.0,0.0,0.0,0.0,0.0,0.0,2.6506,0.0,0.0,0.0,0.0,0.0,0.0,0.0,0.0,0.0,0.0,0.0,0.0,4.5312,4.5511,4.5511,4.5752,4.6284,4.6363,4.6387,4.6308,4.684,4.6886,4.6411,4.7186,4.7611,4.7611,4.8093,4.8363,4.8513,4.8569,4.8678,4.8804,0.0,0.0,4.8909,4.8909,4.8909,4.8909,4.8909,4.8909,4.8909,4.8909,4.8909,4.8993,4.9594,5.0209,5.0712,5.0712,5.0712,5.0712,5.0712,5.0712,5.0712,5.0712,5.0712,5.0712,5.0712,5.0712,5.0712,5.0712,5.0712,5.0712,5.0712,5.0712,5.0721,5.0784,5.0801,5.0866,5.1069,5.1157,5.1229,5.1291,5.1361,5.1406,5.1406,5.1406,5.1406,5.1406,5.1406,5.1406,5.1406,5.1406,5.1406,5.1406,5.1406,5.1406,5.1406,5.1406,5.1406,5.1406,5.1406,5.1406,5.1406,5.1523,5.2051,5.293,5.3789,5.4668,2.0125,2.1909,2.3727,2.4484,2.4746,2.4787,2.4787,0.0,0.0,0.0,0.0,0.0,0.0,2.7644,0.0,0.0,0.0,0.0,0.0,0.0,0.0,0.0,0.0,0.0,0.0,0.0,4.4922,4.6003,4.6062,4.6308,4.6771,4.7182,4.7204,4.6794,4.763,4.7856,4.7399,4.7527,4.7611,4.7611,4.8093,4.8363,4.8513,4.8569,4.8678,4.8804,0.0,4.8909,4.8909,4.8909,4.8909,4.8909,4.8909,4.8909,4.8909,4.8909,4.8909,4.8993,4.9594,5.0209,5.0712,5.0712,5.0712,5.0712,5.0712,5.0712,5.0712,5.0712,5.0712,5.0712,5.0712,5.0712,5.0712,5.0712,5.0712,5.0712,5.0712,5.0712,5.0721,5.0784,5.0801,5.0866,5.1069,5.1157,5.1229,5.1291,5.1361,5.1406,5.1406,5.1406,5.1406,5.1406,5.1406,5.1406,5.1406,5.1406,5.1406,5.1406,5.1406,5.1406,5.1406,5.1406,5.1406,5.1406,5.1406,5.1406,5.1406,5.2148,5.2949,5.3828,5.4687,5.5566,2.0578,2.2323,2.4187,2.5805,2.5889,2.5712,2.6143,2.5919,0.0,0.0,0.0,0.0,0.0,0.0,0.0,0.0,0.0,0.0,0.0,0.0,0.0,0.0,0.0,0.0,0.0,0.0,4.4265,4.4857,4.5135,4.5681,4.6579,4.6832,4.7051,4.7273,4.7955,4.8075,4.7611,4.7856,4.7975,4.7975,4.8191,4.8363,4.8513,4.8569,4.8678,4.8804,0.0,4.8909,4.8909,4.8909,4.8909,4.8909,4.8909,4.8909,4.8926,4.911,4.9252,4.9446,4.9865,5.0313,5.0712,5.0712,5.0712,5.0712,5.0712,5.0712,5.0712,5.0712,5.0712,5.0712,5.0712,5.0712,5.0712,5.0712,5.0712,5.0712,5.0712,5.0712,5.0721,5.0784,5.0801,5.0866,5.1069,5.1157,5.1229,5.1291,5.1361,5.1406,5.1406,5.1406,5.1406,5.1406,5.1406,5.1406,5.1406,5.1406,5.1406,5.1406,5.1406,5.1406,5.1406,5.1406,5.1406,5.1406,5.1406,5.1406,5.1406,5.2266,5.3144,5.4023,5.4883,5.5762,2.0874,2.2362,2.406,2.6212,0.0,2.6506,2.8006,2.7609,0.0,0.0,0.0,0.0,0.0,0.0,0.0,0.0,0.0,0.0,0.0,0.0,0.0,0.0,0.0,0.0,0.0,4.3347,4.3704,4.4092,4.4444,4.5141,4.6206,4.6283,4.6573,4.7193,4.7546,4.7657,4.7484,4.7838,4.8122,4.8306,4.8325,4.8401,4.8532,4.8605,4.8696,4.884,4.8874,4.8909,4.8909,4.8909,4.8909,4.8909,4.8909,4.896,4.9044,4.9305,4.9598,4.9917,5.0135,5.0421,5.0712,5.0712,5.0712,5.0712,5.0712,5.0712,5.0712,5.0712,5.0712,5.0712,5.0712,5.0712,5.0712,5.0712,5.0712,5.0712,5.0712,5.0712,5.0721,5.0784,5.0801,5.0874,5.1092,5.1176,5.1236,5.1302,5.1363,5.1406,5.1406,5.1406,5.1406,5.1406,5.1406,5.1406,5.1406,5.1406,5.1406,5.1406,5.1406,5.1406,5.1406,5.1406,5.1406,5.1406,5.1406,5.1406,5.1406,5.248,5.3359,5.4023,5.5098,5.5957,2.0257,2.1613,2.3164,2.4781,2.5643,0.0,3.0644,3.0317,0.0,3.3007,0.0,0.0,0.0,0.0,0.0,0.0,0.0,0.0,0.0,0.0,0.0,0.0,0.0,0.0,0.0,4.277,4.3417,4.498,4.5116,4.5372,4.5902,4.5938,4.5957,4.603,4.6049,4.6415,4.713,4.7167,4.7553,4.8306,4.8438,4.8513,4.8605,4.8732,4.8821,4.8891,4.8909,4.8909,4.8909,4.8909,4.8909,4.8909,4.8909,4.9094,4.9368,4.9399,4.974,5.0171,5.0195,5.0421,5.0712,5.0712,5.0712,5.0712,5.0712,5.0712,5.0712,5.0712,5.0712,5.0712,5.0712,5.0712,5.0712,5.0712,5.0712,5.0712,5.0712,5.0712,5.0721,5.0784,5.0801,5.0875,5.1152,5.1199,5.1232,5.1365,5.1406,5.1406,5.1406,5.1406,5.1406,5.1406,5.1406,5.1406,5.1406,5.1406,5.1406,5.1406,5.1406,5.1406,5.1406,5.1406,5.1406,5.1406,5.1406,5.1406,5.1406,5.3086,5.3945,5.4043,5.5723,5.6543,2.0067,2.1527,2.3181,2.518,2.6281,0.0,0.0,3.1351,3.1783,3.4835,3.5232,0.0,0.0,0.0,0.0,0.0,0.0,0.0,0.0,0.0,0.0,0.0,0.0,0.0,0.0,4.2641,4.3091,4.3713,4.3997,4.4455,4.5113,4.5149,4.5388,4.5883,4.5902,4.6049,4.6361,4.6361,4.6507,4.6819,4.796,4.855,4.8605,4.8732,4.884,4.8909,4.8909,4.8909,4.8909,4.8909,4.8909,4.8909,4.8909,4.911,4.9411,4.9602,4.9884,5.023,5.0432,5.0585,5.0712,5.0712,5.0712,5.0712,5.0712,5.0712,5.0712,5.0712,5.0712,5.0712,5.0712,5.0712,5.0712,5.0712,5.0712,5.0712,5.0712,5.0712,5.0721,5.0784,5.0801,5.0863,5.1095,5.1165,5.1239,5.133,5.1365,5.1406,5.1406,5.1406,5.1406,5.1406,5.1406,5.1406,5.1406,5.1406,5.1406,5.1406,5.1406,5.1406,5.1406,5.1406,5.1406,5.1406,5.1406,5.1406,5.1406,5.3144,5.4004,5.4043,5.5781,5.6601,2.0067,2.1527,2.325,2.5525,0.0,0.0,3.2059,3.2679,3.3438,3.6697,3.718,0.0,0.0,0.0,0.0,0.0,0.0,0.0,0.0,0.0,0.0,0.0,0.0,0.0,0.0,4.2711,4.2939,4.3069,4.3339,4.3736,4.4287,4.4323,4.458,4.5112,4.5131,4.5259,4.5516,4.5516,4.5663,4.5993,4.7187,4.7794,4.7866,4.8268,4.8485,4.8537,4.8797,4.8909,4.8909,4.8909,4.8909,4.8909,4.8909,4.9158,4.9558,4.9735,5.0038,5.038,5.0614,5.0712,5.0712,5.0712,5.0712,5.0712,5.0712,5.0712,5.0712,5.0712,5.0712,5.0712,5.0712,5.0712,5.0712,5.0712,5.0712,5.0693,5.0712,5.0693,5.0721,5.0801,5.085,5.092,5.1095,5.1187,5.1241,5.1328,5.1365,5.1406,5.1406,5.1406,5.1406,5.1406,5.1406,5.1406,5.1406,5.1406,5.1406,5.1406,5.1406,5.1406,5.1406,5.1406,5.1406,5.1406,5.1406,5.1406,5.1406,5.3144,5.4004,5.4043,5.5781,5.6601,2.0222,2.1531,2.3267,0.0,0.0,0.0,3.4162,3.4648,3.5183,3.8939,0.0,3.8594,3.8594,0.0,0.0,0.0,0.0,0.0,0.0,0.0,0.0,0.0,0.0,0.0,0.0,0.0,4.3069,4.3462,4.3515,4.3515,4.3515,4.3515,4.3515,4.3515,4.3515,4.3883,4.4673,4.4691,4.5148,4.6064,4.6151,4.6186,4.6241,4.7227,4.7683,4.7738,4.8537,4.889,4.889,4.889,4.889,4.889,4.889,4.9265,4.9798,4.9798,5.0178,5.0693,5.0693,5.0693,5.0693,5.0712,5.0712,5.0712,5.0712,5.0712,5.0712,5.0712,5.0712,5.0712,5.0712,5.0712,5.0712,5.0712,5.0712,5.0702,5.0711,5.0701,5.0748,5.0863,5.0954,5.1033,5.1183,5.1263,5.1328,5.1386,5.1406,5.1406,5.1406,5.1406,5.1406,5.1406,5.1406,5.1406,5.1406,5.1406,5.1406,5.1406,5.1406,5.1406,5.1406,5.1406,5.1406,5.1406,5.1406,5.1406,5.1406,5.3144,5.4004,5.4043,5.5781,5.6601,2.1527,2.2733,0.0,2.7006,0.0,0.0,0.0,3.5421,0.0,0.0,0.0,3.937,3.937,0.0,0.0,0.0,0.0,0.0,0.0,0.0,0.0,0.0,0.0,0.0,0.0,0.0,4.3375,4.3479,4.3515,4.3515,4.3515,4.3515,4.3515,4.3515,4.3515,4.3608,4.3846,4.3864,4.3992,4.4266,4.4438,4.513,4.6289,4.6685,4.6865,4.6865,4.7107,4.7218,4.7218,4.7218,4.7665,4.834,4.834,4.9046,5.0011,4.9458,4.9475,4.9779,4.9779,4.9779,4.9894,5.05,5.0712,5.0712,5.0712,5.0712,5.0712,5.0712,5.0712,5.0712,5.0712,5.0712,5.0712,5.0712,5.0712,5.0693,5.0702,5.0692,5.0739,5.081,5.092,5.1033,5.1183,5.1263,5.1328,5.1386,5.1406,5.1406,5.1406,5.1406,5.1406,5.1406,5.1406,5.1406,5.1406,5.1406,5.1406,5.1406,5.1406,5.1406,5.1406,5.1406,5.1406,5.1406,5.1406,5.1406,5.1406,5.3144,5.4004,5.4043,5.5781,5.6601,2.2164,2.3698,0.0,2.8541,3.0782,3.299,3.5887,0.0,0.0,0.0,0.0,3.9802,0.0,0.0,0.0,0.0,0.0,0.0,0.0,0.0,0.0,0.0,0.0,0.0,0.0,0.0,4.3515,4.3515,4.3515,4.3515,4.3515,4.3515,4.3515,4.3515,4.3515,4.3515,4.3515,4.3515,4.3496,4.3531,4.3719,4.4352,4.536,4.583,4.6011,4.603,4.6364,4.6494,4.651,4.6603,4.7037,4.7631,4.7749,4.8376,4.9144,4.8667,4.8647,4.8875,4.8875,4.8875,4.8971,4.949,4.9894,5.0183,5.0183,5.0442,5.0712,5.0712,5.0712,5.0712,5.0712,5.0712,5.0712,5.0712,5.0702,5.0702,5.073,5.0767,5.0793,5.0836,5.0972,5.1118,5.1191,5.1282,5.1341,5.1386,5.1406,5.1406,5.1406,5.1406,5.1406,5.1406,5.1406,5.1406,5.1406,5.1406,5.1406,5.1406,5.1406,5.1406,5.1406,5.1406,5.1406,5.1406,5.1406,5.1406,5.1406,5.3144,5.4004,5.4043,5.5781,5.6581,2.2453,0.0,0.0,3.0127,3.2147,0.0,3.7849,0.0,4.002,4.0763,0.0,0.0,0.0,0.0,0.0,0.0,0.0,0.0,0.0,0.0,0.0,0.0,0.0,0.0,0.0,0.0,0.0,4.3515,4.3515,4.3515,4.3515,4.3515,4.3515,4.3515,4.3515,4.3515,4.3515,4.3515,4.3513,4.3582,4.3736,4.3818,4.3918,4.4774,4.5175,4.5212,4.5969,4.6301,4.6334,4.6589,4.6774,4.6887,4.7135,4.7438,4.7726,4.7649,4.7776,4.799,4.799,4.799,4.8009,4.8086,4.8644,4.9279,4.9279,4.9894,5.0577,5.0577,5.0635,5.0693,5.0693,5.0693,5.0693,5.0702,5.0692,5.071,5.0793,5.0855,5.0897,5.0906,5.1064,5.1203,5.1211,5.1325,5.1406,5.1406,5.1406,5.1406,5.1406,5.1406,5.1406,5.1406,5.1406,5.1406,5.1406,5.1406,5.1406,5.1406,5.1406,5.1406,5.1406,5.1406,5.1406,5.1406,5.1406,5.1406,5.1406,5.3144,5.4004,5.4043,5.5781,5.6558,2.3717,2.5831,0.0,0.0,3.4731,3.7338,3.8751,3.9919,4.074,0.0,0.0,0.0,0.0,0.0,0.0,0.0,0.0,0.0,0.0,0.0,0.0,0.0,0.0,0.0,0.0,0.0,0.0,4.3515,4.3515,4.3515,4.3515,4.3515,4.3515,4.3515,4.3515,4.3515,4.3515,4.3515,4.3515,4.3513,4.3703,4.3804,4.3837,4.4146,4.4283,4.4299,4.4688,4.4847,4.4875,4.5146,4.5785,4.6584,4.666,4.7214,4.7943,4.73,4.7098,4.7154,4.7154,4.7154,4.725,4.7894,4.824,4.8375,4.8375,4.899,4.9683,4.9683,5.0164,5.0702,5.0692,5.0702,5.0711,5.0776,5.0739,5.071,5.0793,5.0855,5.0921,5.0958,5.1108,5.1222,5.1274,5.1358,5.1406,5.1406,5.1406,5.1406,5.1406,5.1406,5.1406,5.1406,5.1406,5.1406,5.1406,5.1406,5.1406,5.1406,5.1406,5.1406,5.1406,5.1406,5.1406,5.1406,5.1406,5.1406,5.1406,5.3144,5.4004,5.4043,5.5781,5.6558,2.3815,0.0,0.0,3.2699,0.0,3.8199,3.8582,3.974,0.0,0.0,0.0,0.0,0.0,0.0,0.0,0.0,0.0,0.0,0.0,0.0,0.0,0.0,0.0,0.0,0.0,0.0,0.0,4.3515,4.3515,4.3515,4.3515,4.3515,4.3515,4.3515,4.3515,4.3515,4.3515,4.3515,4.3532,4.3548,4.3719,4.3897,4.4094,4.4166,4.4265,4.4388,4.4519,4.4585,4.4612,4.4872,4.5341,4.5891,4.6013,4.6407,4.6855,4.6432,4.6278,4.6278,4.6278,4.6278,4.6355,4.6759,4.7182,4.7528,4.7528,4.8105,4.8779,4.8826,4.9451,5.0134,5.0122,5.0449,5.0747,5.0838,5.0829,5.0812,5.0846,5.0925,5.1009,5.1043,5.1165,5.1266,5.1293,5.1361,5.1406,5.1406,5.1406,5.1406,5.1406,5.1406,5.1406,5.1406,5.1406,5.1406,5.1406,5.1406,5.1406,5.1406,5.1406,5.1406,5.1406,5.1406,5.1406,5.1406,5.1406,5.1406,5.1406,5.2734,5.3594,5.4023,5.5328,5.6108,2.3135,0.0,2.9576,3.3671,3.6314,0.0,3.8084,0.0,0.0,0.0,0.0,0.0,0.0,0.0,0.0,0.0,0.0,0.0,0.0,0.0,0.0,0.0,0.0,0.0,0.0,0.0,0.0,4.3515,4.3515,4.3515,4.3515,4.3515,4.3515,4.3515,4.3515,4.3515,4.3515,4.3515,4.3566,4.3599,4.38,4.4094,4.4465,4.4519,4.4637,4.48,4.4849,4.4861,4.4884,4.5169,4.5263,4.5302,4.5513,4.5594,4.5594,4.5594,4.5594,4.5594,4.5594,4.5594,4.5594,4.5594,4.6086,4.6682,4.6682,4.7259,4.7903,4.7967,4.8593,4.9304,4.9472,5.0049,5.0653,5.0882,5.0937,5.0929,5.0897,5.1002,5.1111,5.1109,5.1232,5.1325,5.1325,5.1363,5.1406,5.1406,5.1406,5.1406,5.1406,5.1406,5.1406,5.1406,5.1406,5.1406,5.1406,5.1406,5.1406,5.1406,5.1406,5.1406,5.1406,5.1406,5.1406,5.1406,5.1406,5.1406,5.1406,5.2266,5.3066,5.3808,5.4768,5.5502,0.0,0.0,3.1677,0.0,3.6055,3.7245,0.0,0.0,0.0,0.0,0.0,0.0,0.0,0.0,0.0,0.0,0.0,0.0,0.0,0.0,0.0,0.0,0.0,0.0,0.0,0.0,0.0,4.3515,4.3515,4.3515,4.3515,4.3515,4.3515,4.3515,4.3515,4.3515,4.3515,4.3548,4.3582,4.3599,4.4026,4.4416,4.4751,4.4996,4.4996,4.48,4.5041,4.5159,4.5169,4.5429,4.555,4.5559,4.5586,4.5594,4.5594,4.5594,4.5594,4.5594,4.5594,4.5594,4.5594,4.5594,4.5691,4.5768,4.5768,4.6374,4.7057,4.7082,4.7707,4.8561,4.9379,4.9674,4.9974,5.0862,5.1069,5.1037,5.0921,5.1004,5.1114,5.1189,5.1293,5.1386,5.1386,5.1386,5.1406,5.1406,5.1406,5.1406,5.1406,5.1406,5.1406,5.1406,5.1406,5.1406,5.1406,5.1406,5.1406,5.1406,5.1406,5.1406,5.1406,5.1406,5.1406,5.1406,5.1406,5.1406,5.1406,5.2266,5.2754,5.291,5.4475,5.5187,2.1993,2.6378,3.0352,0.0,3.4474,3.5878,0.0,0.0,0.0,0.0,0.0,0.0,0.0,0.0,0.0,0.0,0.0,0.0,0.0,0.0,0.0,0.0,0.0,0.0,0.0,0.0,0.0,0.0,4.3515,4.3515,4.3515,4.3515,4.3515,4.3515,4.3515,4.3532,4.3548,4.3582,4.373,4.3996,4.454,4.4884,4.503,4.5302,4.5352,4.5253,4.5362,4.5419,4.5429,4.5559,4.5594,4.5594,4.5594,4.5594,4.5594,4.5594,4.5594,4.5594,4.5594,4.5594,4.5594,4.5594,4.5594,4.5594,4.5594,4.5883,4.618,4.621,4.6871,4.7645,4.8139,4.8619,4.922,5.0194,5.0432,5.0559,5.0978,5.1132,5.1239,5.1297,5.1362,5.1406,5.1406,5.1406,5.1406,5.1406,5.1406,5.1406,5.1406,5.1406,5.1406,5.1406,5.1406,5.1406,5.1406,5.1406,5.1406,5.1406,5.1406,5.1406,5.1406,5.1406,5.1406,5.1406,5.1406,5.1406,5.1406,5.1777,5.2206,5.2666,5.3813,5.4558,0.0,0.0,2.8187,3.0631,3.248,3.4192,0.0,0.0,0.0,0.0,0.0,0.0,0.0,0.0,0.0,0.0,0.0,0.0,0.0,0.0,0.0,0.0,0.0,0.0,0.0,0.0,0.0,0.0,4.3515,4.3515,4.3515,4.3515,4.3515,4.3515,4.3532,4.3548,4.3599,4.3714,4.3965,4.4332,4.4919,4.5201,4.5211,4.5716,4.5932,4.5913,4.571,4.5594,4.5594,4.5594,4.5594,4.5594,4.5594,4.5594,4.5594,4.5594,4.5594,4.5594,4.5594,4.5594,4.5594,4.5594,4.5594,4.5594,4.5594,4.5603,4.5648,4.5684,4.619,4.6786,4.7123,4.7703,4.8429,4.9375,4.9763,5.0157,5.1037,5.1249,5.1327,5.1386,5.1406,5.1406,5.1406,5.1406,5.1406,5.1406,5.1406,5.1406,5.1406,5.1406,5.1406,5.1406,5.1406,5.1406,5.1406,5.1406,5.1406,5.1406,5.1406,5.1406,5.1406,5.1406,5.1406,5.1406,5.1406,5.1406,5.1406,5.1406,5.1695,5.2292,5.324,5.4008,0.0,2.3014,0.0,2.8549,0.0,0.0,0.0,0.0,0.0,0.0,0.0,0.0,0.0,0.0,0.0,0.0,0.0,0.0,0.0,0.0,0.0,0.0,0.0,0.0,0.0,0.0,0.0,0.0,4.3515,4.3515,4.3515,4.3515,4.3515,4.3515,4.3548,4.3599,4.3599,4.4042,4.4303,4.4397,4.4943,4.5201,4.525,4.6321,4.6827,4.6797,4.5951,4.5594,4.5594,4.5594,4.5594,4.5594,4.5594,4.5594,4.5594,4.5594,4.5594,4.5594,4.5594,4.5594,4.5594,4.5594,4.5594,4.5594,4.5594,4.564,4.5709,4.5692,4.5821,4.6147,4.6976,4.7291,4.7606,4.8545,4.9397,5.0237,5.1117,5.1295,5.1327,5.1386,5.1406,5.1406,5.1406,5.1406,5.1406,5.1406,5.1406,5.1406,5.1406,5.1406,5.1406,5.1406,5.1406,5.1406,5.1406,5.1406,5.1406,5.1406,5.1406,5.1406,5.1406,5.1406,5.1406,5.1406,5.1406,5.1406,5.1406,5.1406,5.1383,5.1412,5.2967,5.3697,0.0,0.0,0.0,2.5892,0.0,0.0,0.0,0.0,0.0,0.0,0.0,0.0,0.0,0.0,0.0,0.0,0.0,0.0,0.0,0.0,0.0,0.0,0.0,0.0,0.0,0.0,0.0,0.0,4.2727,4.2947,4.3478,4.3515,4.3515,4.3515,4.3565,4.3649,4.38,4.4346,4.4624,4.4663,4.5201,4.5467,4.5467,4.5886,4.6067,4.6047,4.5748,4.621,4.7163,4.6644,4.6432,4.6374,4.5825,4.5594,4.5594,4.5594,4.5594,4.5594,4.5594,4.5594,4.5594,4.5594,4.5594,4.5594,4.5594,4.5648,4.5709,4.5692,4.5808,4.6,4.6385,4.6541,4.6832,4.7765,4.8668,4.9527,5.0406,5.0992,5.1365,5.1406,5.1406,5.1406,5.1406,5.1406,5.1406,5.1406,5.1406,5.1406,5.1406,5.1406,5.1406,5.1406,5.1406,5.1406,5.1406,5.1406,5.1406,5.1406,5.1406,5.1406,5.1406,5.1406,5.1406,5.1406,5.1406,5.1406,5.1406,5.1406,5.1338,5.1262,5.2399,5.3149,1.7669,0.0,0.0,0.0,0.0,0.0,0.0,0.0,0.0,0.0,0.0,0.0,0.0,0.0,0.0,0.0,0.0,0.0,0.0,0.0,0.0,0.0,0.0,0.0,0.0,0.0,0.0,0.0,4.1901,0.0,4.2671,4.269,4.2852,4.3195,4.3487,4.3751,4.3929,4.4511,4.4788,4.48,4.5342,4.5594,4.5614,4.5893,4.6028,4.6047,4.6317,4.674,4.724,4.7009,4.6904,4.6827,4.6259,4.6028,4.599,4.571,4.5594,4.5594,4.5594,4.5594,4.5594,4.5594,4.5594,4.5594,4.5594,4.5657,4.5706,4.57,4.5829,4.5988,4.6084,4.6162,4.6457,4.7382,4.8047,4.8691,4.957,5.041,5.1074,5.1348,5.1406,5.1406,5.1406,5.1406,5.1406,5.1406,5.1406,5.1406,5.1406,5.1406,5.1406,5.1406,5.1406,5.1406,5.1406,5.1406,5.1406,5.1406,5.1406,5.1406,5.1406,5.1406,5.1406,5.1406,5.1406,5.1406,5.1406,5.1385,5.1302,5.1219,5.2353,5.3397,0.0,0.0,0.0,0.0,0.0,0.0,0.0,0.0,0.0,0.0,0.0,0.0,0.0,0.0,0.0,0.0,0.0,0.0,0.0,0.0,0.0,0.0,0.0,0.0,0.0,0.0,0.0,0.0,4.1058,4.1058,4.1095,4.1095,4.1542,4.2527,4.3342,4.383,4.3968,4.4519,4.4788,4.48,4.5342,4.5594,4.5633,4.649,4.6846,4.6904,4.7702,4.7105,4.5671,4.6547,4.6904,4.6904,4.6904,4.6904,4.6797,4.597,4.5671,4.5633,4.5633,4.5614,4.5594,4.5594,4.5594,4.5594,4.5594,4.5654,4.5708,4.5696,4.5894,4.6102,4.6105,4.6204,4.6504,4.7363,4.7558,4.7793,4.8672,4.9531,5.0351,5.1172,5.1348,5.1367,5.1367,5.1387,5.1406,5.1406,5.1406,5.1406,5.1406,5.1406,5.1406,5.1406,5.1406,5.1406,5.1406,5.1406,5.1406,5.1406,5.1406,5.1406,5.1406,5.1406,5.1406,5.1406,5.1406,5.1406,5.1406,5.1333,5.1272,5.1238,5.2841,5.4456,1.7887,0.0,0.0,0.0,0.0,0.0,0.0,0.0,0.0,0.0,0.0,0.0,0.0,0.0,0.0,0.0,0.0,0.0,0.0,0.0,0.0,0.0,0.0,0.0,0.0,0.0,0.0,0.0,4.023,4.0487,4.1058,4.1142,4.133,4.1643,4.2538,4.3061,4.3132,4.4237,4.4788,4.48,4.5342,4.5594,4.5614,4.5845,4.5951,4.597,4.6182,4.6037,4.5671,4.6547,4.6904,4.6904,4.6904,4.6904,4.6942,4.7278,4.7048,4.6547,4.6547,4.6124,4.5594,4.5594,4.5594,4.5622,4.5648,4.5679,4.5719,4.5815,4.5969,4.6125,4.6212,4.6267,4.6367,4.6601,4.666,4.6894,4.7773,4.8144,4.8574,4.9433,5.0098,5.0527,5.0527,5.1016,5.1406,5.1406,5.1406,5.1406,5.1406,5.1406,5.1406,5.1406,5.1406,5.1406,5.1406,5.1406,5.1406,5.1406,5.1406,5.1406,5.1406,5.1406,5.1406,5.1406,5.1406,5.1385,5.1331,5.1302,5.1272,5.1238,5.279,5.4099,0.0,0.0,0.0,0.0,0.0,0.0,0.0,2.5309,0.0,0.0,0.0,0.0,0.0,0.0,0.0,0.0,0.0,0.0,0.0,0.0,0.0,0.0,0.0,0.0,0.0,3.9129,3.9405,3.9405,3.9405,3.9622,4.0113,4.0491,4.0735,4.084,4.1718,4.2266,4.2416,4.3661,4.4336,4.4441,4.5228,4.5594,4.5594,4.5594,4.5594,4.5594,4.5594,4.5594,4.5633,4.6144,4.6567,4.6904,4.6904,4.6904,4.6962,4.7432,4.7288,4.6904,4.6904,4.6567,4.6086,4.5729,4.5594,4.5612,4.5715,4.5737,4.5769,4.5889,4.6033,4.6162,4.6267,4.6308,4.6308,4.6308,4.6308,4.6445,4.6953,4.7051,4.7422,4.8652,4.9316,4.9668,4.9668,5.0351,5.0898,5.0898,5.1191,5.1406,5.1406,5.1406,5.1406,5.1406,5.1406,5.1406,5.1406,5.1406,5.1406,5.1406,5.1406,5.1406,5.1406,5.1406,5.1406,5.1406,5.1406,5.1341,5.1263,5.1263,5.139,5.1653,5.2906,5.3962,2.1584,2.1794,0.0,0.0,2.2391,0.0,2.3006,2.4171,2.5503,0.0,0.0,0.0,0.0,0.0,0.0,0.0,0.0,0.0,0.0,0.0,0.0,0.0,0.0,0.0,3.845,3.8597,3.867,3.8579,3.8741,3.8842,3.8807,3.958,4.0028,4.0067,4.0915,4.1496,4.1766,4.2899,4.3601,4.3911,4.4958,4.5518,4.5594,4.5594,4.5594,4.5594,4.5594,4.5594,4.5594,4.5594,4.6067,4.6778,4.6846,4.6904,4.6904,4.7,4.6981,4.6904,4.7,4.6962,4.6778,4.599,4.5757,4.5759,4.5787,4.5815,4.5847,4.5978,4.6108,4.6215,4.6288,4.6308,4.6308,4.6308,4.6308,4.6308,4.6308,4.6308,4.6758,4.8301,4.8691,4.8769,4.8769,4.9473,5.0098,5.0195,5.0801,5.1308,5.1387,5.1406,5.1406,5.1406,5.1406,5.1406,5.1406,5.1406,5.1406,5.1406,5.1406,5.1406,5.1406,5.1406,5.1406,5.1406,5.1386,5.1327,5.1203,5.1191,5.1533,5.2229,5.3091,5.3962,2.1678,2.1768,2.1794,2.1794,0.0,0.0,2.3006,2.3749,2.4658,0.0,0.0,0.0,0.0,0.0,0.0,0.0,0.0,0.0,0.0,0.0,0.0,0.0,0.0,0.0,3.6835,3.7936,3.8462,3.786,3.9058,3.9549,3.8899,3.9697,3.9889,3.9252,4.0121,4.0714,4.0935,4.2018,4.3,4.3911,4.4344,4.4913,4.5594,4.5594,4.5594,4.5594,4.5594,4.5594,4.5594,4.5594,4.571,4.5913,4.6624,4.6904,4.6981,4.7625,4.7471,4.6981,4.7644,4.7451,4.6865,4.6701,4.6681,4.6614,4.5989,4.5875,4.6,4.6128,4.6216,4.6288,4.6308,4.6308,4.6308,4.6308,4.6308,4.6308,4.6308,4.6308,4.6406,4.6738,4.7363,4.7851,4.7851,4.8574,4.9394,5.0098,5.0332,5.0664,5.1328,5.1406,5.1406,5.1406,5.1406,5.1406,5.1406,5.1406,5.1406,5.1406,5.1406,5.1406,5.1406,5.1406,5.1406,5.1406,5.1293,5.1232,5.1203,5.1142,5.149,5.2229,5.3091,5.3962,2.3984,2.383,2.3657,2.4098,0.0,0.0,0.0,2.419,2.43,2.4713,0.0,0.0,0.0,0.0,0.0,0.0,0.0,0.0,0.0,0.0,0.0,0.0,0.0,0.0,3.574,3.6824,3.7419,3.7067,3.8198,3.8925,3.8954,3.9367,3.9672,3.9847,3.992,4.0109,4.0449,4.1385,4.2199,4.286,4.3427,4.4143,4.496,4.496,4.519,4.5594,4.5594,4.5594,4.5594,4.5594,4.5594,4.5633,4.6086,4.624,4.6355,4.7201,4.7259,4.6962,4.7355,4.7509,4.7441,4.7103,4.7009,4.6943,4.6676,4.6399,4.6167,4.6238,4.6268,4.6308,4.6308,4.6308,4.6308,4.6308,4.6308,4.6308,4.6308,4.6308,4.6308,4.6308,4.6641,4.6953,4.6953,4.7676,4.8398,4.8848,4.9648,5.0351,5.0742,5.1152,5.1406,5.1406,5.1406,5.1406,5.1406,5.1406,5.1406,5.1406,5.1406,5.1406,5.1406,5.1406,5.1386,5.1359,5.1258,5.1178,5.1152,5.1049,5.1194,5.1563,5.2453,5.3323,0.0,0.0,0.0,0.0,0.0,2.5393,0.0,0.0,0.0,2.419,0.0,0.0,0.0,0.0,0.0,0.0,0.0,0.0,0.0,0.0,0.0,0.0,0.0,0.0,3.4202,3.4887,3.5642,3.6498,3.6909,3.7649,3.8858,3.9063,3.9584,4.0503,3.9895,3.9758,4.0205,4.0845,4.1387,4.1808,4.2508,4.3278,4.4066,4.422,4.4682,4.5364,4.5537,4.5594,4.5594,4.5594,4.5594,4.5594,4.5594,4.5594,4.5691,4.6394,4.6644,4.6682,4.6827,4.7336,4.7806,4.7445,4.7222,4.7119,4.7372,4.6908,4.6307,4.6308,4.6308,4.6308,4.6308,4.6308,4.6308,4.6308,4.6308,4.6308,4.6308,4.6308,4.6308,4.6308,4.6308,4.6308,4.6308,4.6875,4.7402,4.7578,4.8808,4.9824,5.0156,5.0762,5.123,5.1387,5.1406,5.1406,5.1406,5.1406,5.1386,5.1386,5.1386,5.1386,5.1386,5.1386,5.1361,5.1297,5.1229,5.1157,5.1099,5.0981,5.0898,5.0917,5.1796,5.2577,0.0,0.0,0.0,0.0,2.5957,0.0,0.0,0.0,2.419,2.419,0.0,0.0,0.0,0.0,0.0,0.0,0.0,0.0,0.0,0.0,0.0,0.0,0.0,0.0,0.0,3.1143,3.281,3.6565,3.5724,3.6093,3.8523,3.9316,3.9773,3.9897,3.9802,3.9912,4.0205,4.0281,4.0832,4.1788,4.1904,4.2412,4.3258,4.397,4.4355,4.4489,4.5267,4.5594,4.5594,4.5594,4.5594,4.5594,4.5594,4.5594,4.5614,4.571,4.5748,4.5864,4.6624,4.6962,4.7151,4.7921,4.7806,4.7382,4.7533,4.6986,4.6307,4.6308,4.6308,4.6308,4.6308,4.6308,4.6308,4.6308,4.6308,4.6308,4.6308,4.6308,4.6308,4.6308,4.6308,4.6308,4.6308,4.6387,4.6719,4.748,4.7773,4.8457,5.0,5.0273,5.0605,5.1328,5.1406,5.1406,5.1406,5.1406,5.1365,5.1325,5.1363,5.1365,5.1304,5.1302,5.1301,5.1297,5.1189,5.1117,5.1099,5.0981,5.0898,5.0917,5.1796,5.2248,0.0,0.0,0.0,0.0,0.0,0.0,2.6098,0.0,2.419,0.0,0.0,0.0,0.0,0.0,0.0,0.0,0.0,0.0,0.0,0.0,0.0,0.0,0.0,0.0,0.0,0.0,0.0,0.0,3.3513,3.4705,3.6307,3.8117,3.9593,4.0679,4.028,4.0387,4.1131,4.0633,4.0598,4.1046,4.1046,4.1508,4.2354,4.2701,4.3124,4.3643,4.447,4.4855,4.4874,4.5402,4.5594,4.5594,4.5594,4.5594,4.5594,4.5594,4.5594,4.5652,4.6009,4.6502,4.7048,4.7589,4.7996,4.8187,4.7741,4.734,4.7049,4.7051,4.6699,4.6308,4.6308,4.6308,4.6308,4.6308,4.6308,4.6308,4.6308,4.6308,4.6308,4.6308,4.6308,4.6308,4.6308,4.6308,4.6426,4.6797,4.7285,4.7851,4.8594,4.9121,4.9766,5.0605,5.0703,5.0898,5.1367,5.1406,5.1365,5.1299,5.133,5.1304,5.1232,5.1282,5.1269,5.1183,5.1136,5.1063,5.0983,5.0937,5.0898,5.0917,5.1273,5.1718,2.8596,0.0,0.0,0.0,0.0,0.0,0.0,0.0,0.0,0.0,0.0,0.0,0.0,0.0,0.0,0.0,0.0,0.0,0.0,0.0,0.0,0.0,0.0,0.0,0.0,0.0,0.0,2.978,0.0,3.2743,3.4535,3.6825,3.8928,4.0776,4.0699,4.0903,4.145,4.1046,4.0746,4.0496,4.0496,4.0843,4.145,4.1692,4.2162,4.2797,4.3605,4.4105,4.4355,4.4979,4.5383,4.5594,4.5594,4.5594,4.5594,4.5594,4.5594,4.5622,4.5635,4.6286,4.7138,4.7341,4.8064,4.8754,4.8135,4.7965,4.7909,4.7676,4.7148,4.6601,4.6367,4.6308,4.6308,4.6308,4.6308,4.6308,4.6308,4.6308,4.6308,4.6308,4.6308,4.6308,4.6308,4.6308,4.6308,4.6308,4.6836,4.7324,4.7578,4.8144,4.8887,4.9746,4.9844,5.0156,5.0955,5.1013,5.1084,5.126,5.1261,5.1239,5.1203,5.1236,5.1199,5.1105,5.1069,5.0997,5.0898,5.0898,5.0898,5.0898,5.0898,5.1235,0.0,0.0,0.0,2.8894,0.0,0.0,0.0,0.0,2.419,0.0,0.0,0.0,0.0,0.0,0.0,0.0,0.0,0.0,0.0,0.0,0.0,0.0,0.0,0.0,0.0,0.0,2.6549,0.0,2.8785,2.9811,3.3993,3.5839,3.757,3.9308,4.0923,4.1365,4.0554,4.1354,4.1335,4.0496,4.0496,4.0516,4.0573,4.1412,4.1808,4.1885,4.2758,4.3585,4.4297,4.4335,4.4836,4.5594,4.5594,4.5594,4.5594,4.5594,4.5594,4.562,4.5749,4.6499,4.7396,4.7404,4.8045,4.8813,4.8858,4.8863,4.8671,4.7832,4.7578,4.7363,4.6523,4.6308,4.6308,4.6308,4.6308,4.6308,4.6308,4.6308,4.6308,4.6308,4.6308,4.6308,4.6308,4.6308,4.6308,4.6308,4.6328,4.6641,4.748,4.7617,4.7988,4.8848,4.8945,4.9236,4.9973,5.0048,5.0379,5.1152,5.1137,5.1127,5.1199,5.1132,5.1092,5.1105,5.0969,5.0906,5.0898,5.0898,5.0898,5.0898,5.0898,5.0917,0.0,0.0,2.9787,2.9553,0.0,0.0,0.0,0.0,0.0,0.0,0.0,0.0,0.0,0.0,0.0,0.0,0.0,0.0,0.0,0.0,0.0,0.0,0.0,0.0,0.0,0.0,0.0,0.0,2.7689,0.0,3.0762,3.4064,3.6673,3.8392,3.9546,4.0816,4.22,4.1373,4.1085,4.1354,4.0785,4.0496,4.0516,4.0804,4.0931,4.0989,4.1854,4.2393,4.2739,4.3835,4.447,4.4797,4.5364,4.5594,4.5594,4.5594,4.5671,4.5764,4.5933,4.6247,4.6557,4.6638,4.7272,4.8129,4.8716,4.8897,4.8843,4.8534,4.8046,4.7402,4.6523,4.6308,4.6308,4.6308,4.6308,4.6308,4.6308,4.6308,4.6308,4.6308,4.6308,4.6308,4.6308,4.6308,4.6308,4.6308,4.6308,4.6406,4.6699,4.6738,4.707,4.7949,4.8004,4.8305,4.9134,4.9607,5.0228,5.1088,5.1109,5.1062,5.0998,5.1062,5.1063,5.0961,5.0929,5.0898,5.0898,5.0898,5.0898,5.0898,5.0898,5.0898,3.0775,3.067,0.0,3.035,2.9305,0.0,2.7694,0.0,2.6498,0.0,0.0,0.0,0.0,0.0,0.0,0.0,0.0,0.0,0.0,0.0,0.0,0.0,0.0,0.0,0.0,0.0,2.4819,2.4092,2.6628,0.0,0.0,3.2872,3.5815,3.7488,3.895,4.0516,4.2162,4.1681,4.1546,4.1788,4.1239,4.095,4.095,4.065,4.0496,4.0535,4.1085,4.1508,4.1904,4.3297,4.4047,4.4393,4.5267,4.5594,4.5594,4.5594,4.5704,4.5853,4.6033,4.6135,4.6181,4.6273,4.689,4.7754,4.8634,4.9107,4.9326,4.9352,4.8963,4.8241,4.707,4.6758,4.668,4.6367,4.6308,4.6308,4.6308,4.6308,4.6308,4.6308,4.6308,4.6308,4.6308,4.6308,4.6308,4.6308,4.6308,4.6308,4.6308,4.6288,4.6481,4.7047,4.7045,4.7345,4.8161,4.9172,5.0009,5.0565,5.0875,5.099,5.0906,5.0983,5.0983,5.0898,5.0898,5.0898,5.0898,5.0898,5.0898,5.0898,5.0898,5.0898]}]]